Wetterdaten: Sonntag, 15.05.2016
Datum Zeit Temp. A. Feuchte A. Luftdruck Regen Wind Richtung Richtung Sonnenschein ET UV Solar Taupunkt Windchill Windben Empfang
15.05.2016 00:00 10,3 C 87 % 1010,0 hPa 0,0 l/m 18,3 km/h (3 Bft) W-SW 242 0 min 0,000 mm 0,0 UV-I 0 W/m 8,2 C 4,2 C 22,5 km/h (4 Bft) 100,00 %
15.05.2016 00:02 10,3 C 88 % 1010,0 hPa 0,0 l/m 14,7 km/h (3 Bft) W-SW 238 0 min 0,000 mm 0,0 UV-I 0 W/m 8,4 C 5,6 C 25,7 km/h (4 Bft) 100,00 %
15.05.2016 00:03 10,3 C 87 % 1010,1 hPa 0,0 l/m 14,8 km/h (3 Bft) W-SW 248 0 min 0,000 mm 0,0 UV-I 0 W/m 8,2 C 5,6 C 17,7 km/h (3 Bft) 100,00 %
15.05.2016 00:04 10,3 C 88 % 1010,1 hPa 0,0 l/m 14,4 km/h (3 Bft) W 276 0 min 0,000 mm 0,0 UV-I 0 W/m 8,4 C 5,8 C 17,7 km/h (3 Bft) 100,00 %
15.05.2016 00:05 10,2 C 88 % 1010,1 hPa 0,0 l/m 16,4 km/h (3 Bft) W-SW 241 0 min 0,000 mm 0,0 UV-I 0 W/m 8,3 C 4,8 C 20,9 km/h (4 Bft) 100,00 %
15.05.2016 00:06 10,2 C 88 % 1010,1 hPa 0,0 l/m 16,1 km/h (3 Bft) W-SW 258 0 min 0,000 mm 0,0 UV-I 0 W/m 8,3 C 4,9 C 22,5 km/h (4 Bft) 100,00 %
15.05.2016 00:07 10,2 C 88 % 1010,1 hPa 0,0 l/m 13,8 km/h (3 Bft) W-SW 237 0 min 0,000 mm 0,0 UV-I 0 W/m 8,3 C 5,9 C 19,3 km/h (3 Bft) 100,00 %
15.05.2016 00:08 10,2 C 87 % 1010,1 hPa 0,0 l/m 14,5 km/h (3 Bft) W-SW 252 0 min 0,000 mm 0,0 UV-I 0 W/m 8,1 C 5,6 C 24,1 km/h (4 Bft) 100,00 %
15.05.2016 00:09 10,2 C 87 % 1010,1 hPa 0,0 l/m 14,3 km/h (3 Bft) SW 236 0 min 0,000 mm 0,0 UV-I 0 W/m 8,1 C 5,7 C 19,3 km/h (3 Bft) 100,00 %
15.05.2016 00:10 10,2 C 87 % 1010,1 hPa 0,0 l/m 13,6 km/h (3 Bft) W-SW 251 0 min 0,000 mm 0,0 UV-I 0 W/m 8,1 C 6,0 C 17,7 km/h (3 Bft) 100,00 %
15.05.2016 00:11 10,2 C 87 % 1010,0 hPa 0,0 l/m 12,6 km/h (3 Bft) W-SW 237 0 min 0,000 mm 0,0 UV-I 0 W/m 8,1 C 6,5 C 16,1 km/h (3 Bft) 100,00 %
15.05.2016 00:12 10,1 C 87 % 1010,1 hPa 0,0 l/m 14,3 km/h (3 Bft) W-SW 237 0 min 0,000 mm 0,0 UV-I 0 W/m 8,0 C 5,6 C 19,3 km/h (3 Bft) 100,00 %
15.05.2016 00:13 10,1 C 87 % 1010,1 hPa 0,0 l/m 13,2 km/h (3 Bft) W 266 0 min 0,000 mm 0,0 UV-I 0 W/m 8,0 C 6,0 C 16,1 km/h (3 Bft) 100,00 %
15.05.2016 00:14 10,1 C 87 % 1010,1 hPa 0,0 l/m 19,7 km/h (3 Bft) W-SW 246 0 min 0,000 mm 0,0 UV-I 0 W/m 8,0 C 3,5 C 27,4 km/h (4 Bft) 100,00 %
15.05.2016 00:15 10,1 C 87 % 1010,1 hPa 0,0 l/m 13,0 km/h (3 Bft) W-SW 248 0 min 0,000 mm 0,0 UV-I 0 W/m 8,0 C 6,1 C 19,3 km/h (3 Bft) 100,00 %
15.05.2016 00:16 10,1 C 87 % 1010,1 hPa 0,0 l/m 15,2 km/h (3 Bft) W-SW 240 0 min 0,000 mm 0,0 UV-I 0 W/m 8,0 C 5,2 C 19,3 km/h (3 Bft) 100,00 %
15.05.2016 00:17 10,1 C 87 % 1010,2 hPa 0,0 l/m 16,1 km/h (3 Bft) W 259 0 min 0,000 mm 0,0 UV-I 0 W/m 8,0 C 4,8 C 19,3 km/h (3 Bft) 100,00 %
15.05.2016 00:18 10,1 C 87 % 1010,2 hPa 0,0 l/m 14,3 km/h (3 Bft) W-NW 298 0 min 0,000 mm 0,0 UV-I 0 W/m 8,0 C 5,6 C 19,3 km/h (3 Bft) 100,00 %
15.05.2016 00:19 10,1 C 87 % 1010,2 hPa 0,0 l/m 17,6 km/h (3 Bft) W-SW 248 0 min 0,000 mm 0,0 UV-I 0 W/m 8,0 C 4,2 C 24,1 km/h (4 Bft) 100,00 %
15.05.2016 00:20 10,1 C 87 % 1010,3 hPa 0,0 l/m 13,6 km/h (3 Bft) SW 221 0 min 0,000 mm 0,0 UV-I 0 W/m 8,0 C 5,9 C 24,1 km/h (4 Bft) 100,00 %
15.05.2016 00:21 10,1 C 87 % 1010,3 hPa 0,0 l/m 15,2 km/h (3 Bft) W-SW 255 0 min 0,000 mm 0,0 UV-I 0 W/m 8,0 C 5,2 C 19,3 km/h (3 Bft) 100,00 %
15.05.2016 00:22 10,1 C 87 % 1010,3 hPa 0,0 l/m 14,6 km/h (3 Bft) W 259 0 min 0,000 mm 0,0 UV-I 0 W/m 8,0 C 5,4 C 19,3 km/h (3 Bft) 100,00 %
15.05.2016 00:23 10,1 C 87 % 1010,2 hPa 0,0 l/m 13,7 km/h (3 Bft) W 262 0 min 0,000 mm 0,0 UV-I 0 W/m 8,0 C 5,8 C 20,9 km/h (4 Bft) 96,15 %
15.05.2016 00:24 10,1 C 86 % 1010,3 hPa 0,0 l/m 15,6 km/h (3 Bft) W 267 0 min 0,000 mm 0,0 UV-I 0 W/m 7,9 C 5,0 C 24,1 km/h (4 Bft) 100,00 %
15.05.2016 00:25 10,1 C 86 % 1010,2 hPa 0,0 l/m 15,3 km/h (3 Bft) W-SW 241 0 min 0,000 mm 0,0 UV-I 0 W/m 7,9 C 5,1 C 19,3 km/h (3 Bft) 100,00 %
15.05.2016 00:26 10,1 C 87 % 1010,2 hPa 0,0 l/m 11,3 km/h (2 Bft) W-SW 258 0 min 0,000 mm 0,0 UV-I 0 W/m 8,0 C 7,0 C 19,3 km/h (3 Bft) 100,00 %
15.05.2016 00:27 10,0 C 87 % 1010,3 hPa 0,0 l/m 17,0 km/h (3 Bft) S-SW 196 0 min 0,000 mm 0,0 UV-I 0 W/m 7,9 C 4,3 C 20,9 km/h (4 Bft) 100,00 %
15.05.2016 00:28 10,0 C 87 % 1010,3 hPa 0,0 l/m 13,2 km/h (3 Bft) SW 234 0 min 0,000 mm 0,0 UV-I 0 W/m 7,9 C 5,9 C 19,3 km/h (3 Bft) 93,33 %
15.05.2016 00:29 10,0 C 87 % 1010,3 hPa 0,0 l/m 10,9 km/h (2 Bft) W-SW 257 0 min 0,000 mm 0,0 UV-I 0 W/m 7,9 C 7,1 C 12,9 km/h (3 Bft) 100,00 %
15.05.2016 00:30 10,0 C 87 % 1010,3 hPa 0,0 l/m 11,5 km/h (2 Bft) W 263 0 min 0,000 mm 0,0 UV-I 0 W/m 7,9 C 6,8 C 16,1 km/h (3 Bft) 100,00 %
15.05.2016 00:31 10,0 C 87 % 1010,3 hPa 0,0 l/m 15,1 km/h (3 Bft) W 260 0 min 0,000 mm 0,0 UV-I 0 W/m 7,9 C 5,1 C 22,5 km/h (4 Bft) 100,00 %
15.05.2016 00:32 10,0 C 87 % 1010,3 hPa 0,0 l/m 15,4 km/h (3 Bft) W-SW 257 0 min 0,000 mm 0,0 UV-I 0 W/m 7,9 C 5,0 C 20,9 km/h (4 Bft) 100,00 %
15.05.2016 00:33 10,0 C 86 % 1010,3 hPa 0,0 l/m 13,5 km/h (3 Bft) SW 225 0 min 0,000 mm 0,0 UV-I 0 W/m 7,8 C 5,8 C 17,7 km/h (3 Bft) 100,00 %
15.05.2016 00:34 9,9 C 86 % 1010,3 hPa 0,0 l/m 14,6 km/h (3 Bft) W-SW 250 0 min 0,000 mm 0,0 UV-I 0 W/m 7,7 C 5,2 C 17,7 km/h (3 Bft) 100,00 %
15.05.2016 00:35 9,9 C 86 % 1010,4 hPa 0,0 l/m 13,1 km/h (3 Bft) W-SW 242 0 min 0,000 mm 0,0 UV-I 0 W/m 7,7 C 5,9 C 20,9 km/h (4 Bft) 100,00 %
15.05.2016 00:36 9,9 C 87 % 1010,4 hPa 0,0 l/m 14,9 km/h (3 Bft) S-SW 208 0 min 0,000 mm 0,0 UV-I 0 W/m 7,8 C 5,1 C 19,3 km/h (3 Bft) 100,00 %
15.05.2016 00:37 9,9 C 86 % 1010,4 hPa 0,0 l/m 15,5 km/h (3 Bft) W-SW 249 0 min 0,000 mm 0,0 UV-I 0 W/m 7,7 C 4,8 C 19,3 km/h (3 Bft) 100,00 %
15.05.2016 00:38 9,9 C 86 % 1010,4 hPa 0,0 l/m 14,4 km/h (3 Bft) SW 231 0 min 0,000 mm 0,0 UV-I 0 W/m 7,7 C 5,3 C 20,9 km/h (4 Bft) 100,00 %
15.05.2016 00:39 9,9 C 86 % 1010,4 hPa 0,0 l/m 13,4 km/h (3 Bft) W-SW 244 0 min 0,000 mm 0,0 UV-I 0 W/m 7,7 C 5,7 C 19,3 km/h (3 Bft) 100,00 %
15.05.2016 00:40 9,9 C 86 % 1010,4 hPa 0,0 l/m 14,3 km/h (3 Bft) S-SW 213 0 min 0,000 mm 0,0 UV-I 0 W/m 7,7 C 5,3 C 17,7 km/h (3 Bft) 100,00 %
15.05.2016 00:41 9,9 C 86 % 1010,4 hPa 0,0 l/m 17,1 km/h (3 Bft) W-SW 249 0 min 0,000 mm 0,0 UV-I 0 W/m 7,7 C 4,2 C 25,7 km/h (4 Bft) 100,00 %
15.05.2016 00:42 9,9 C 86 % 1010,5 hPa 0,0 l/m 12,3 km/h (3 Bft) SW 232 0 min 0,000 mm 0,0 UV-I 0 W/m 7,7 C 6,2 C 17,7 km/h (3 Bft) 100,00 %
15.05.2016 00:43 9,9 C 86 % 1010,5 hPa 0,0 l/m 10,5 km/h (2 Bft) W-SW 250 0 min 0,000 mm 0,0 UV-I 0 W/m 7,7 C 7,2 C 16,1 km/h (3 Bft) 100,00 %
15.05.2016 00:44 9,9 C 86 % 1010,5 hPa 0,0 l/m 8,1 km/h (2 Bft) W 260 0 min 0,000 mm 0,0 UV-I 0 W/m 7,7 C 8,7 C 11,3 km/h (2 Bft) 100,00 %
15.05.2016 00:45 9,9 C 86 % 1010,6 hPa 0,0 l/m 10,4 km/h (2 Bft) W 267 0 min 0,000 mm 0,0 UV-I 0 W/m 7,7 C 7,3 C 16,1 km/h (3 Bft) 100,00 %
15.05.2016 00:46 9,9 C 86 % 1010,6 hPa 0,0 l/m 11,4 km/h (2 Bft) W 266 0 min 0,000 mm 0,0 UV-I 0 W/m 7,7 C 6,7 C 16,1 km/h (3 Bft) 100,00 %
15.05.2016 00:47 9,9 C 86 % 1010,6 hPa 0,0 l/m 13,4 km/h (3 Bft) W-SW 255 0 min 0,000 mm 0,0 UV-I 0 W/m 7,7 C 5,7 C 17,7 km/h (3 Bft) 100,00 %
15.05.2016 00:48 9,8 C 86 % 1010,6 hPa 0,0 l/m 12,5 km/h (3 Bft) W-SW 247 0 min 0,000 mm 0,0 UV-I 0 W/m 7,6 C 6,0 C 19,3 km/h (3 Bft) 100,00 %
15.05.2016 00:49 9,8 C 86 % 1010,6 hPa 0,0 l/m 15,6 km/h (3 Bft) S-SW 211 0 min 0,000 mm 0,0 UV-I 0 W/m 7,6 C 4,6 C 20,9 km/h (4 Bft) 100,00 %
15.05.2016 00:50 9,8 C 86 % 1010,6 hPa 0,0 l/m 12,8 km/h (3 Bft) W 259 0 min 0,000 mm 0,0 UV-I 0 W/m 7,6 C 5,9 C 17,7 km/h (3 Bft) 100,00 %
15.05.2016 00:51 9,8 C 86 % 1010,6 hPa 0,0 l/m 13,4 km/h (3 Bft) W-SW 240 0 min 0,000 mm 0,0 UV-I 0 W/m 7,6 C 5,6 C 19,3 km/h (3 Bft) 93,33 %
15.05.2016 00:52 9,8 C 86 % 1010,6 hPa 0,0 l/m 13,8 km/h (3 Bft) W-SW 241 0 min 0,000 mm 0,0 UV-I 0 W/m 7,6 C 5,4 C 20,9 km/h (4 Bft) 100,00 %
15.05.2016 00:53 9,8 C 86 % 1010,6 hPa 0,0 l/m 14,2 km/h (3 Bft) SW 232 0 min 0,000 mm 0,0 UV-I 0 W/m 7,6 C 5,2 C 19,3 km/h (3 Bft) 96,30 %
15.05.2016 00:54 9,8 C 86 % 1010,6 hPa 0,0 l/m 14,8 km/h (3 Bft) W 269 0 min 0,000 mm 0,0 UV-I 0 W/m 7,6 C 5,0 C 19,3 km/h (3 Bft) 96,55 %
15.05.2016 00:55 9,8 C 86 % 1010,7 hPa 0,0 l/m 11,9 km/h (2 Bft) W-SW 253 0 min 0,000 mm 0,0 UV-I 0 W/m 7,6 C 6,3 C 17,7 km/h (3 Bft) 100,00 %
15.05.2016 00:56 9,8 C 86 % 1010,7 hPa 0,0 l/m 14,0 km/h (3 Bft) W-SW 246 0 min 0,000 mm 0,0 UV-I 0 W/m 7,6 C 5,3 C 19,3 km/h (3 Bft) 100,00 %
15.05.2016 00:57 9,8 C 86 % 1010,7 hPa 0,0 l/m 11,9 km/h (2 Bft) SW 223 0 min 0,000 mm 0,0 UV-I 0 W/m 7,6 C 6,3 C 16,1 km/h (3 Bft) 95,65 %
15.05.2016 00:58 9,8 C 86 % 1010,7 hPa 0,0 l/m 11,1 km/h (2 Bft) SW 220 0 min 0,000 mm 0,0 UV-I 0 W/m 7,6 C 6,8 C 16,1 km/h (3 Bft) 95,83 %
15.05.2016 00:59 9,8 C 86 % 1010,8 hPa 0,0 l/m 11,7 km/h (2 Bft) SW 219 0 min 0,000 mm 0,0 UV-I 0 W/m 7,6 C 6,4 C 16,1 km/h (3 Bft) 100,00 %
15.05.2016 01:00 9,8 C 86 % 1010,8 hPa 0,0 l/m 9,7 km/h (2 Bft) W-SW 252 0 min 0,025 mm 0,0 UV-I 0 W/m 7,6 C 7,6 C 14,5 km/h (3 Bft) 95,83 %
15.05.2016 01:01 9,8 C 86 % 1010,7 hPa 0,0 l/m 12,3 km/h (3 Bft) W-SW 254 0 min 0,000 mm 0,0 UV-I 0 W/m 7,6 C 6,1 C 16,1 km/h (3 Bft) 91,30 %
15.05.2016 01:02 9,8 C 86 % 1010,7 hPa 0,0 l/m 12,9 km/h (3 Bft) SW 234 0 min 0,000 mm 0,0 UV-I 0 W/m 7,6 C 5,8 C 20,9 km/h (4 Bft) 92,59 %
15.05.2016 01:03 9,8 C 85 % 1010,8 hPa 0,0 l/m 12,6 km/h (3 Bft) W-SW 246 0 min 0,000 mm 0,0 UV-I 0 W/m 7,4 C 6,0 C 17,7 km/h (3 Bft) 100,00 %
15.05.2016 01:04 9,7 C 86 % 1010,8 hPa 0,0 l/m 13,0 km/h (3 Bft) SW 226 0 min 0,000 mm 0,0 UV-I 0 W/m 7,5 C 5,7 C 19,3 km/h (3 Bft) 96,30 %
15.05.2016 01:05 9,7 C 85 % 1010,8 hPa 0,0 l/m 14,5 km/h (3 Bft) W-SW 250 0 min 0,000 mm 0,0 UV-I 0 W/m 7,3 C 5,0 C 20,9 km/h (4 Bft) 94,12 %
15.05.2016 01:06 9,7 C 85 % 1010,8 hPa 0,0 l/m 13,6 km/h (3 Bft) W-SW 242 0 min 0,000 mm 0,0 UV-I 0 W/m 7,3 C 5,4 C 19,3 km/h (3 Bft) 100,00 %
15.05.2016 01:07 9,7 C 84 % 1010,8 hPa 0,0 l/m 11,1 km/h (2 Bft) W-SW 243 0 min 0,000 mm 0,0 UV-I 0 W/m 7,1 C 6,6 C 16,1 km/h (3 Bft) 91,30 %
15.05.2016 01:08 9,7 C 85 % 1010,9 hPa 0,0 l/m 10,3 km/h (2 Bft) W-SW 237 0 min 0,000 mm 0,0 UV-I 0 W/m 7,3 C 7,1 C 14,5 km/h (3 Bft) 100,00 %
15.05.2016 01:09 9,7 C 85 % 1010,9 hPa 0,0 l/m 10,8 km/h (2 Bft) W 272 0 min 0,000 mm 0,0 UV-I 0 W/m 7,3 C 6,8 C 16,1 km/h (3 Bft) 96,15 %
15.05.2016 01:10 9,7 C 84 % 1010,9 hPa 0,0 l/m 12,2 km/h (2 Bft) W 260 0 min 0,000 mm 0,0 UV-I 0 W/m 7,1 C 6,1 C 16,1 km/h (3 Bft) 100,00 %
15.05.2016 01:11 9,7 C 84 % 1010,9 hPa 0,0 l/m 15,8 km/h (3 Bft) W-SW 238 0 min 0,000 mm 0,0 UV-I 0 W/m 7,1 C 4,4 C 19,3 km/h (3 Bft) 91,67 %
15.05.2016 01:12 9,7 C 84 % 1010,9 hPa 0,0 l/m 13,0 km/h (3 Bft) W-SW 251 0 min 0,000 mm 0,0 UV-I 0 W/m 7,1 C 5,7 C 17,7 km/h (3 Bft) 96,15 %
15.05.2016 01:13 9,7 C 84 % 1010,9 hPa 0,0 l/m 12,4 km/h (3 Bft) SW 233 0 min 0,000 mm 0,0 UV-I 0 W/m 7,1 C 6,0 C 19,3 km/h (3 Bft) 95,83 %
15.05.2016 01:14 9,7 C 84 % 1010,9 hPa 0,0 l/m 14,8 km/h (3 Bft) W-NW 282 0 min 0,000 mm 0,0 UV-I 0 W/m 7,1 C 4,9 C 22,5 km/h (4 Bft) 95,65 %
15.05.2016 01:15 9,7 C 83 % 1010,9 hPa 0,0 l/m 12,0 km/h (2 Bft) SW 234 0 min 0,000 mm 0,0 UV-I 0 W/m 7,0 C 6,2 C 16,1 km/h (3 Bft) 83,33 %
15.05.2016 01:16 9,7 C 83 % 1010,9 hPa 0,0 l/m 12,2 km/h (2 Bft) W 267 0 min 0,000 mm 0,0 UV-I 0 W/m 7,0 C 6,1 C 16,1 km/h (3 Bft) 97,73 %
15.05.2016 01:17 9,7 C 83 % 1011,0 hPa 0,0 l/m 11,2 km/h (2 Bft) W 271 0 min 0,000 mm 0,0 UV-I 0 W/m 7,0 C 6,6 C 14,5 km/h (3 Bft) 94,44 %
15.05.2016 01:18 9,7 C 83 % 1011,0 hPa 0,0 l/m 11,7 km/h (2 Bft) W-SW 240 0 min 0,000 mm 0,0 UV-I 0 W/m 7,0 C 6,3 C 19,3 km/h (3 Bft) 96,15 %
15.05.2016 01:19 9,7 C 83 % 1011,0 hPa 0,0 l/m 13,3 km/h (3 Bft) W-SW 241 0 min 0,000 mm 0,0 UV-I 0 W/m 7,0 C 5,5 C 16,1 km/h (3 Bft) 100,00 %
15.05.2016 01:20 9,7 C 83 % 1011,0 hPa 0,0 l/m 10,7 km/h (2 Bft) SW 228 0 min 0,000 mm 0,0 UV-I 0 W/m 7,0 C 6,9 C 14,5 km/h (3 Bft) 90,91 %
15.05.2016 01:21 9,7 C 83 % 1011,0 hPa 0,0 l/m 11,4 km/h (2 Bft) SW 232 0 min 0,000 mm 0,0 UV-I 0 W/m 7,0 C 6,5 C 16,1 km/h (3 Bft) 96,30 %
15.05.2016 01:22 9,7 C 83 % 1011,0 hPa 0,0 l/m 10,3 km/h (2 Bft) W-SW 248 0 min 0,000 mm 0,0 UV-I 0 W/m 7,0 C 7,1 C 12,9 km/h (3 Bft) 94,12 %
15.05.2016 01:23 9,7 C 83 % 1011,1 hPa 0,0 l/m 11,7 km/h (2 Bft) W 270 0 min 0,000 mm 0,0 UV-I 0 W/m 7,0 C 6,3 C 16,1 km/h (3 Bft) 100,00 %
15.05.2016 01:24 9,7 C 82 % 1011,1 hPa 0,0 l/m 14,2 km/h (3 Bft) W-SW 241 0 min 0,000 mm 0,0 UV-I 0 W/m 6,8 C 5,1 C 19,3 km/h (3 Bft) 96,15 %
15.05.2016 01:25 9,7 C 83 % 1011,1 hPa 0,0 l/m 14,8 km/h (3 Bft) W-SW 252 0 min 0,000 mm 0,0 UV-I 0 W/m 7,0 C 4,9 C 20,9 km/h (4 Bft) 92,59 %
15.05.2016 01:26 9,7 C 82 % 1011,0 hPa 0,0 l/m 13,3 km/h (3 Bft) W 263 0 min 0,000 mm 0,0 UV-I 0 W/m 6,8 C 5,5 C 17,7 km/h (3 Bft) 100,00 %
15.05.2016 01:27 9,7 C 82 % 1011,1 hPa 0,0 l/m 16,2 km/h (3 Bft) SW 234 0 min 0,000 mm 0,0 UV-I 0 W/m 6,8 C 4,3 C 20,9 km/h (4 Bft) 100,00 %
15.05.2016 01:28 9,7 C 82 % 1011,1 hPa 0,0 l/m 14,0 km/h (3 Bft) SW 219 0 min 0,000 mm 0,0 UV-I 0 W/m 6,8 C 5,2 C 22,5 km/h (4 Bft) 100,00 %
15.05.2016 01:29 9,7 C 82 % 1011,1 hPa 0,0 l/m 14,0 km/h (3 Bft) W-SW 242 0 min 0,000 mm 0,0 UV-I 0 W/m 6,8 C 5,2 C 19,3 km/h (3 Bft) 100,00 %
15.05.2016 01:30 9,7 C 82 % 1011,1 hPa 0,0 l/m 13,6 km/h (3 Bft) W-SW 244 0 min 0,000 mm 0,0 UV-I 0 W/m 6,8 C 5,4 C 16,1 km/h (3 Bft) 100,00 %
15.05.2016 01:31 9,7 C 82 % 1011,1 hPa 0,0 l/m 11,2 km/h (2 Bft) W-SW 240 0 min 0,000 mm 0,0 UV-I 0 W/m 6,8 C 6,6 C 16,1 km/h (3 Bft) 100,00 %
15.05.2016 01:32 9,7 C 82 % 1011,1 hPa 0,0 l/m 12,3 km/h (3 Bft) W 260 0 min 0,000 mm 0,0 UV-I 0 W/m 6,8 C 6,0 C 17,7 km/h (3 Bft) 97,37 %
15.05.2016 01:33 9,7 C 82 % 1011,1 hPa 0,0 l/m 8,9 km/h (2 Bft) SW 218 0 min 0,000 mm 0,0 UV-I 0 W/m 6,8 C 7,9 C 12,9 km/h (3 Bft) 98,47 %
15.05.2016 01:34 9,7 C 82 % 1011,2 hPa 0,0 l/m 10,5 km/h (2 Bft) S-SW 207 0 min 0,000 mm 0,0 UV-I 0 W/m 6,8 C 7,0 C 14,5 km/h (3 Bft) 100,00 %
15.05.2016 01:35 9,7 C 82 % 1011,2 hPa 0,0 l/m 10,4 km/h (2 Bft) W 259 0 min 0,000 mm 0,0 UV-I 0 W/m 6,8 C 7,0 C 16,1 km/h (3 Bft) 96,30 %
15.05.2016 01:36 9,7 C 82 % 1011,2 hPa 0,0 l/m 14,2 km/h (3 Bft) SW 230 0 min 0,000 mm 0,0 UV-I 0 W/m 6,8 C 5,1 C 19,3 km/h (3 Bft) 100,00 %
15.05.2016 01:37 9,7 C 82 % 1011,2 hPa 0,0 l/m 13,1 km/h (3 Bft) S-SW 208 0 min 0,000 mm 0,0 UV-I 0 W/m 6,8 C 5,6 C 16,1 km/h (3 Bft) 100,00 %
15.05.2016 01:38 9,7 C 82 % 1011,2 hPa 0,0 l/m 10,9 km/h (2 Bft) SW 229 0 min 0,000 mm 0,0 UV-I 0 W/m 6,8 C 6,8 C 12,9 km/h (3 Bft) 100,00 %
15.05.2016 01:39 9,6 C 82 % 1011,3 hPa 0,0 l/m 13,2 km/h (3 Bft) SW 224 0 min 0,000 mm 0,0 UV-I 0 W/m 6,7 C 5,5 C 17,7 km/h (3 Bft) 100,00 %
15.05.2016 01:40 9,6 C 82 % 1011,3 hPa 0,0 l/m 11,7 km/h (2 Bft) W-SW 245 0 min 0,000 mm 0,0 UV-I 0 W/m 6,7 C 6,2 C 16,1 km/h (3 Bft) 100,00 %
15.05.2016 01:41 9,6 C 82 % 1011,3 hPa 0,0 l/m 12,8 km/h (3 Bft) W-SW 242 0 min 0,000 mm 0,0 UV-I 0 W/m 6,7 C 5,7 C 14,5 km/h (3 Bft) 100,00 %
15.05.2016 01:42 9,6 C 83 % 1011,3 hPa 0,0 l/m 7,7 km/h (2 Bft) SW 223 0 min 0,000 mm 0,0 UV-I 0 W/m 6,9 C 8,6 C 11,3 km/h (2 Bft) 100,00 %
15.05.2016 01:43 9,6 C 83 % 1011,3 hPa 0,0 l/m 9,4 km/h (2 Bft) SW 227 0 min 0,000 mm 0,0 UV-I 0 W/m 6,9 C 7,5 C 12,9 km/h (3 Bft) 100,00 %
15.05.2016 01:44 9,6 C 84 % 1011,3 hPa 0,0 l/m 11,3 km/h (2 Bft) W-SW 244 0 min 0,000 mm 0,0 UV-I 0 W/m 7,0 C 6,4 C 16,1 km/h (3 Bft) 100,00 %
15.05.2016 01:45 9,6 C 84 % 1011,3 hPa 0,0 l/m 10,9 km/h (2 Bft) W-SW 242 0 min 0,000 mm 0,0 UV-I 0 W/m 7,0 C 6,6 C 12,9 km/h (3 Bft) 100,00 %
15.05.2016 01:46 9,6 C 84 % 1011,3 hPa 0,0 l/m 9,3 km/h (2 Bft) W 267 0 min 0,000 mm 0,0 UV-I 0 W/m 7,0 C 7,6 C 16,1 km/h (3 Bft) 96,30 %
15.05.2016 01:47 9,6 C 84 % 1011,4 hPa 0,0 l/m 10,3 km/h (2 Bft) SW 220 0 min 0,000 mm 0,0 UV-I 0 W/m 7,0 C 7,0 C 14,5 km/h (3 Bft) 100,00 %
15.05.2016 01:48 9,6 C 85 % 1011,4 hPa 0,0 l/m 11,6 km/h (2 Bft) S 189 0 min 0,000 mm 0,0 UV-I 0 W/m 7,2 C 6,3 C 14,5 km/h (3 Bft) 100,00 %
15.05.2016 01:49 9,5 C 85 % 1011,4 hPa 0,0 l/m 11,1 km/h (2 Bft) W-SW 248 0 min 0,000 mm 0,0 UV-I 0 W/m 7,1 C 6,4 C 16,1 km/h (3 Bft) 100,00 %
15.05.2016 01:50 9,5 C 85 % 1011,4 hPa 0,0 l/m 7,8 km/h (2 Bft) SW 233 0 min 0,000 mm 0,0 UV-I 0 W/m 7,1 C 8,5 C 11,3 km/h (2 Bft) 100,00 %
15.05.2016 01:51 9,5 C 85 % 1011,4 hPa 0,0 l/m 7,4 km/h (2 Bft) S-SW 210 0 min 0,000 mm 0,0 UV-I 0 W/m 7,1 C 8,8 C 9,7 km/h (2 Bft) 100,00 %
15.05.2016 01:52 9,5 C 85 % 1011,4 hPa 0,0 l/m 10,2 km/h (2 Bft) W-SW 238 0 min 0,000 mm 0,0 UV-I 0 W/m 7,1 C 6,9 C 12,9 km/h (3 Bft) 100,00 %
15.05.2016 01:53 9,5 C 85 % 1011,4 hPa 0,0 l/m 6,4 km/h (2 Bft) S 185 0 min 0,000 mm 0,0 UV-I 0 W/m 7,1 C 9,5 C 9,7 km/h (2 Bft) 100,00 %
15.05.2016 01:54 9,4 C 85 % 1011,4 hPa 0,0 l/m 7,2 km/h (2 Bft) SW 227 0 min 0,000 mm 0,0 UV-I 0 W/m 7,0 C 8,8 C 9,7 km/h (2 Bft) 100,00 %
15.05.2016 01:55 9,4 C 85 % 1011,5 hPa 0,0 l/m 7,6 km/h (2 Bft) W 267 0 min 0,000 mm 0,0 UV-I 0 W/m 7,0 C 8,5 C 12,9 km/h (3 Bft) 100,00 %
15.05.2016 01:56 9,4 C 85 % 1011,5 hPa 0,0 l/m 10,1 km/h (2 Bft) SW 230 0 min 0,000 mm 0,0 UV-I 0 W/m 7,0 C 6,9 C 12,9 km/h (3 Bft) 100,00 %
15.05.2016 01:57 9,4 C 85 % 1011,5 hPa 0,0 l/m 11,5 km/h (2 Bft) W-SW 242 0 min 0,000 mm 0,0 UV-I 0 W/m 7,0 C 6,1 C 17,7 km/h (3 Bft) 100,00 %
15.05.2016 01:58 9,4 C 85 % 1011,5 hPa 0,0 l/m 8,0 km/h (2 Bft) W-SW 247 0 min 0,000 mm 0,0 UV-I 0 W/m 7,0 C 8,2 C 11,3 km/h (2 Bft) 100,00 %
15.05.2016 01:59 9,4 C 85 % 1011,5 hPa 0,0 l/m 10,1 km/h (2 Bft) W-SW 253 0 min 0,000 mm 0,0 UV-I 0 W/m 7,0 C 6,9 C 16,1 km/h (3 Bft) 100,00 %
15.05.2016 02:00 9,4 C 85 % 1011,5 hPa 0,0 l/m 6,1 km/h (2 Bft) SW 223 0 min 0,026 mm 0,0 UV-I 0 W/m 7,0 C 9,4 C 8,0 km/h (2 Bft) 100,00 %
15.05.2016 02:01 9,4 C 85 % 1011,5 hPa 0,0 l/m 9,0 km/h (2 Bft) W-SW 257 0 min 0,000 mm 0,0 UV-I 0 W/m 7,0 C 7,6 C 12,9 km/h (3 Bft) 100,00 %
15.05.2016 02:02 9,4 C 85 % 1011,5 hPa 0,0 l/m 9,1 km/h (2 Bft) W-SW 247 0 min 0,000 mm 0,0 UV-I 0 W/m 7,0 C 7,5 C 11,3 km/h (2 Bft) 96,15 %
15.05.2016 02:03 9,4 C 85 % 1011,5 hPa 0,0 l/m 14,2 km/h (3 Bft) SW 233 0 min 0,000 mm 0,0 UV-I 0 W/m 7,0 C 4,8 C 16,1 km/h (3 Bft) 100,00 %
15.05.2016 02:04 9,4 C 85 % 1011,5 hPa 0,0 l/m 11,5 km/h (2 Bft) W 265 0 min 0,000 mm 0,0 UV-I 0 W/m 7,0 C 6,1 C 14,5 km/h (3 Bft) 100,00 %
15.05.2016 02:05 9,4 C 85 % 1011,5 hPa 0,0 l/m 10,1 km/h (2 Bft) W-SW 253 0 min 0,000 mm 0,0 UV-I 0 W/m 7,0 C 6,9 C 16,1 km/h (3 Bft) 100,00 %
15.05.2016 02:06 9,4 C 85 % 1011,5 hPa 0,0 l/m 9,6 km/h (2 Bft) W-SW 243 0 min 0,000 mm 0,0 UV-I 0 W/m 7,0 C 7,2 C 12,9 km/h (3 Bft) 100,00 %
15.05.2016 02:07 9,4 C 85 % 1011,5 hPa 0,0 l/m 10,6 km/h (2 Bft) W-SW 249 0 min 0,000 mm 0,0 UV-I 0 W/m 7,0 C 6,6 C 14,5 km/h (3 Bft) 96,30 %
15.05.2016 02:08 9,4 C 85 % 1011,5 hPa 0,0 l/m 8,5 km/h (2 Bft) W-SW 252 0 min 0,000 mm 0,0 UV-I 0 W/m 7,0 C 7,9 C 11,3 km/h (2 Bft) 100,00 %
15.05.2016 02:09 9,4 C 85 % 1011,5 hPa 0,0 l/m 8,0 km/h (2 Bft) S-SW 211 0 min 0,000 mm 0,0 UV-I 0 W/m 7,0 C 8,2 C 16,1 km/h (3 Bft) 100,00 %
15.05.2016 02:10 9,4 C 85 % 1011,6 hPa 0,0 l/m 10,5 km/h (2 Bft) W 264 0 min 0,000 mm 0,0 UV-I 0 W/m 7,0 C 6,6 C 16,1 km/h (3 Bft) 91,30 %
15.05.2016 02:11 9,4 C 84 % 1011,6 hPa 0,0 l/m 9,2 km/h (2 Bft) W-SW 241 0 min 0,000 mm 0,0 UV-I 0 W/m 6,8 C 7,4 C 14,5 km/h (3 Bft) 100,00 %
15.05.2016 02:12 9,4 C 84 % 1011,6 hPa 0,0 l/m 11,6 km/h (2 Bft) W-SW 238 0 min 0,000 mm 0,0 UV-I 0 W/m 6,8 C 6,0 C 16,1 km/h (3 Bft) 100,00 %
15.05.2016 02:13 9,4 C 84 % 1011,6 hPa 0,0 l/m 7,6 km/h (2 Bft) W 265 0 min 0,000 mm 0,0 UV-I 0 W/m 6,8 C 8,5 C 11,3 km/h (2 Bft) 100,00 %
15.05.2016 02:14 9,4 C 84 % 1011,6 hPa 0,0 l/m 9,6 km/h (2 Bft) W-SW 238 0 min 0,000 mm 0,0 UV-I 0 W/m 6,8 C 7,2 C 14,5 km/h (3 Bft) 100,00 %
15.05.2016 02:15 9,4 C 85 % 1011,6 hPa 0,0 l/m 10,3 km/h (2 Bft) W-SW 253 0 min 0,000 mm 0,0 UV-I 0 W/m 7,0 C 6,8 C 19,3 km/h (3 Bft) 100,00 %
15.05.2016 02:16 9,4 C 84 % 1011,6 hPa 0,0 l/m 12,9 km/h (3 Bft) W-SW 258 0 min 0,000 mm 0,0 UV-I 0 W/m 6,8 C 5,4 C 19,3 km/h (3 Bft) 96,15 %
15.05.2016 02:17 9,4 C 84 % 1011,6 hPa 0,0 l/m 10,3 km/h (2 Bft) S 170 0 min 0,000 mm 0,0 UV-I 0 W/m 6,8 C 6,8 C 14,5 km/h (3 Bft) 95,83 %
15.05.2016 02:18 9,4 C 84 % 1011,6 hPa 0,0 l/m 8,4 km/h (2 Bft) W-SW 242 0 min 0,000 mm 0,0 UV-I 0 W/m 6,8 C 7,9 C 14,5 km/h (3 Bft) 100,00 %
15.05.2016 02:19 9,4 C 84 % 1011,6 hPa 0,0 l/m 14,3 km/h (3 Bft) W-SW 246 0 min 0,000 mm 0,0 UV-I 0 W/m 6,8 C 4,7 C 20,9 km/h (4 Bft) 100,00 %
15.05.2016 02:20 9,4 C 84 % 1011,6 hPa 0,0 l/m 12,0 km/h (2 Bft) SW 222 0 min 0,000 mm 0,0 UV-I 0 W/m 6,8 C 5,8 C 19,3 km/h (3 Bft) 100,00 %
15.05.2016 02:21 9,4 C 83 % 1011,6 hPa 0,0 l/m 8,6 km/h (2 Bft) S-SW 202 0 min 0,000 mm 0,0 UV-I 0 W/m 6,7 C 7,8 C 12,9 km/h (3 Bft) 100,00 %
15.05.2016 02:22 9,4 C 84 % 1011,6 hPa 0,0 l/m 6,6 km/h (2 Bft) W-SW 240 0 min 0,000 mm 0,0 UV-I 0 W/m 6,8 C 9,3 C 9,7 km/h (2 Bft) 100,00 %
15.05.2016 02:23 9,4 C 84 % 1011,6 hPa 0,0 l/m 10,2 km/h (2 Bft) W-SW 253 0 min 0,000 mm 0,0 UV-I 0 W/m 6,8 C 6,8 C 14,5 km/h (3 Bft) 100,00 %
15.05.2016 02:24 9,3 C 84 % 1011,6 hPa 0,0 l/m 7,6 km/h (2 Bft) W-SW 240 0 min 0,000 mm 0,0 UV-I 0 W/m 6,7 C 8,4 C 11,3 km/h (2 Bft) 100,00 %
15.05.2016 02:25 9,3 C 84 % 1011,7 hPa 0,0 l/m 5,9 km/h (2 Bft) W-SW 241 0 min 0,000 mm 0,0 UV-I 0 W/m 6,7 C 9,3 C 11,3 km/h (2 Bft) 100,00 %
15.05.2016 02:26 9,3 C 84 % 1011,7 hPa 0,0 l/m 9,0 km/h (2 Bft) SW 236 0 min 0,000 mm 0,0 UV-I 0 W/m 6,7 C 7,4 C 16,1 km/h (3 Bft) 100,00 %
15.05.2016 02:27 9,3 C 84 % 1011,6 hPa 0,0 l/m 12,9 km/h (3 Bft) W-SW 250 0 min 0,000 mm 0,0 UV-I 0 W/m 6,7 C 5,3 C 16,1 km/h (3 Bft) 100,00 %
15.05.2016 02:28 9,3 C 83 % 1011,7 hPa 0,0 l/m 10,8 km/h (2 Bft) W 274 0 min 0,000 mm 0,0 UV-I 0 W/m 6,6 C 6,4 C 16,1 km/h (3 Bft) 100,00 %
15.05.2016 02:29 9,3 C 83 % 1011,7 hPa 0,0 l/m 9,2 km/h (2 Bft) W-SW 246 0 min 0,000 mm 0,0 UV-I 0 W/m 6,6 C 7,3 C 12,9 km/h (3 Bft) 100,00 %
15.05.2016 02:30 9,3 C 83 % 1011,7 hPa 0,0 l/m 11,9 km/h (2 Bft) W-SW 252 0 min 0,000 mm 0,0 UV-I 0 W/m 6,6 C 5,8 C 16,1 km/h (3 Bft) 100,00 %
15.05.2016 02:31 9,3 C 82 % 1011,7 hPa 0,0 l/m 15,0 km/h (3 Bft) W-SW 257 0 min 0,000 mm 0,0 UV-I 0 W/m 6,4 C 4,3 C 17,7 km/h (3 Bft) 100,00 %
15.05.2016 02:32 9,3 C 82 % 1011,6 hPa 0,0 l/m 11,0 km/h (2 Bft) W-SW 240 0 min 0,000 mm 0,0 UV-I 0 W/m 6,4 C 6,2 C 17,7 km/h (3 Bft) 100,00 %
15.05.2016 02:33 9,3 C 81 % 1011,7 hPa 0,0 l/m 16,2 km/h (3 Bft) W-SW 252 0 min 0,000 mm 0,0 UV-I 0 W/m 6,2 C 3,8 C 20,9 km/h (4 Bft) 100,00 %
15.05.2016 02:34 9,3 C 81 % 1011,7 hPa 0,0 l/m 11,3 km/h (2 Bft) W 263 0 min 0,000 mm 0,0 UV-I 0 W/m 6,2 C 6,1 C 14,5 km/h (3 Bft) 100,00 %
15.05.2016 02:35 9,3 C 81 % 1011,7 hPa 0,0 l/m 5,1 km/h (1 Bft) W-SW 255 0 min 0,000 mm 0,0 UV-I 0 W/m 6,2 C 9,3 C 6,4 km/h (2 Bft) 100,00 %
15.05.2016 02:36 9,3 C 82 % 1011,7 hPa 0,0 l/m 5,8 km/h (2 Bft) W-SW 248 0 min 0,000 mm 0,0 UV-I 0 W/m 6,4 C 9,3 C 9,7 km/h (2 Bft) 100,00 %
15.05.2016 02:37 9,3 C 82 % 1011,7 hPa 0,0 l/m 9,0 km/h (2 Bft) W 265 0 min 0,000 mm 0,0 UV-I 0 W/m 6,4 C 7,4 C 12,9 km/h (3 Bft) 100,00 %
15.05.2016 02:38 9,3 C 82 % 1011,7 hPa 0,0 l/m 9,8 km/h (2 Bft) W 269 0 min 0,000 mm 0,0 UV-I 0 W/m 6,4 C 6,9 C 12,9 km/h (3 Bft) 100,00 %
15.05.2016 02:39 9,3 C 82 % 1011,7 hPa 0,0 l/m 5,2 km/h (1 Bft) W-SW 243 0 min 0,000 mm 0,0 UV-I 0 W/m 6,4 C 9,3 C 6,4 km/h (2 Bft) 100,00 %
15.05.2016 02:40 9,3 C 83 % 1011,7 hPa 0,0 l/m 6,5 km/h (2 Bft) SW 225 0 min 0,000 mm 0,0 UV-I 0 W/m 6,6 C 9,3 C 9,7 km/h (2 Bft) 100,00 %
15.05.2016 02:41 9,3 C 83 % 1011,7 hPa 0,0 l/m 6,0 km/h (2 Bft) W-SW 257 0 min 0,000 mm 0,0 UV-I 0 W/m 6,6 C 9,3 C 9,7 km/h (2 Bft) 100,00 %
15.05.2016 02:42 9,3 C 83 % 1011,7 hPa 0,0 l/m 8,2 km/h (2 Bft) W-SW 252 0 min 0,000 mm 0,0 UV-I 0 W/m 6,6 C 8,0 C 12,9 km/h (3 Bft) 100,00 %
15.05.2016 02:43 9,3 C 82 % 1011,7 hPa 0,0 l/m 7,4 km/h (2 Bft) W 266 0 min 0,000 mm 0,0 UV-I 0 W/m 6,4 C 8,6 C 11,3 km/h (2 Bft) 100,00 %
15.05.2016 02:44 9,3 C 82 % 1011,7 hPa 0,0 l/m 7,4 km/h (2 Bft) W 271 0 min 0,000 mm 0,0 UV-I 0 W/m 6,4 C 8,6 C 11,3 km/h (2 Bft) 100,00 %
15.05.2016 02:45 9,3 C 82 % 1011,7 hPa 0,0 l/m 9,6 km/h (2 Bft) SW 229 0 min 0,000 mm 0,0 UV-I 0 W/m 6,4 C 7,1 C 14,5 km/h (3 Bft) 100,00 %
15.05.2016 02:46 9,3 C 82 % 1011,7 hPa 0,0 l/m 6,3 km/h (2 Bft) W-SW 251 0 min 0,000 mm 0,0 UV-I 0 W/m 6,4 C 9,3 C 8,0 km/h (2 Bft) 100,00 %
15.05.2016 02:47 9,2 C 83 % 1011,7 hPa 0,0 l/m 10,7 km/h (2 Bft) SW 229 0 min 0,000 mm 0,0 UV-I 0 W/m 6,5 C 6,3 C 17,7 km/h (3 Bft) 100,00 %
15.05.2016 02:48 9,2 C 82 % 1011,8 hPa 0,0 l/m 13,4 km/h (3 Bft) W-SW 253 0 min 0,000 mm 0,0 UV-I 0 W/m 6,3 C 4,9 C 17,7 km/h (3 Bft) 100,00 %
15.05.2016 02:49 9,2 C 82 % 1011,8 hPa 0,0 l/m 11,8 km/h (2 Bft) SW 227 0 min 0,000 mm 0,0 UV-I 0 W/m 6,3 C 5,7 C 14,5 km/h (3 Bft) 100,00 %
15.05.2016 02:50 9,2 C 81 % 1011,8 hPa 0,0 l/m 6,9 km/h (2 Bft) W 279 0 min 0,000 mm 0,0 UV-I 0 W/m 6,1 C 8,8 C 11,3 km/h (2 Bft) 100,00 %
15.05.2016 02:51 9,2 C 82 % 1011,9 hPa 0,0 l/m 9,7 km/h (2 Bft) W-NW 290 0 min 0,000 mm 0,0 UV-I 0 W/m 6,3 C 6,9 C 12,9 km/h (3 Bft) 100,00 %
15.05.2016 02:52 9,2 C 81 % 1011,8 hPa 0,0 l/m 13,6 km/h (3 Bft) S-SW 205 0 min 0,000 mm 0,0 UV-I 0 W/m 6,1 C 4,8 C 22,5 km/h (4 Bft) 100,00 %
15.05.2016 02:53 9,2 C 80 % 1011,8 hPa 0,0 l/m 14,5 km/h (3 Bft) W-SW 248 0 min 0,000 mm 0,0 UV-I 0 W/m 5,9 C 4,4 C 24,1 km/h (4 Bft) 100,00 %
15.05.2016 02:54 9,2 C 80 % 1011,9 hPa 0,0 l/m 10,1 km/h (2 Bft) W 270 0 min 0,000 mm 0,0 UV-I 0 W/m 5,9 C 6,7 C 14,5 km/h (3 Bft) 100,00 %
15.05.2016 02:55 9,2 C 80 % 1011,9 hPa 0,0 l/m 10,5 km/h (2 Bft) SW 235 0 min 0,000 mm 0,0 UV-I 0 W/m 5,9 C 6,4 C 14,5 km/h (3 Bft) 100,00 %
15.05.2016 02:56 9,2 C 80 % 1011,9 hPa 0,0 l/m 8,2 km/h (2 Bft) W-SW 252 0 min 0,000 mm 0,0 UV-I 0 W/m 5,9 C 7,9 C 12,9 km/h (3 Bft) 96,15 %
15.05.2016 02:57 9,2 C 80 % 1011,9 hPa 0,0 l/m 11,4 km/h (2 Bft) SW 221 0 min 0,000 mm 0,0 UV-I 0 W/m 5,9 C 5,9 C 16,1 km/h (3 Bft) 100,00 %
15.05.2016 02:58 9,2 C 79 % 1011,9 hPa 0,0 l/m 12,6 km/h (3 Bft) W-NW 290 0 min 0,000 mm 0,0 UV-I 0 W/m 5,8 C 5,3 C 17,7 km/h (3 Bft) 100,00 %
15.05.2016 02:59 9,2 C 79 % 1011,9 hPa 0,0 l/m 8,0 km/h (2 Bft) W 259 0 min 0,000 mm 0,0 UV-I 0 W/m 5,8 C 8,0 C 14,5 km/h (3 Bft) 96,15 %
15.05.2016 03:00 9,2 C 79 % 1011,9 hPa 0,0 l/m 12,6 km/h (3 Bft) W 272 0 min 0,025 mm 0,0 UV-I 0 W/m 5,8 C 5,3 C 19,3 km/h (3 Bft) 96,67 %
15.05.2016 03:02 9,2 C 79 % 1011,9 hPa 0,0 l/m 11,2 km/h (2 Bft) W 269 0 min 0,000 mm 0,0 UV-I 0 W/m 5,8 C 6,0 C 17,7 km/h (3 Bft) 97,37 %
15.05.2016 03:03 9,2 C 79 % 1011,9 hPa 0,0 l/m 13,3 km/h (3 Bft) W-SW 257 0 min 0,000 mm 0,0 UV-I 0 W/m 5,8 C 4,9 C 20,9 km/h (4 Bft) 100,00 %
15.05.2016 03:04 9,2 C 79 % 1011,9 hPa 0,0 l/m 11,7 km/h (2 Bft) SW 229 0 min 0,000 mm 0,0 UV-I 0 W/m 5,8 C 5,8 C 16,1 km/h (3 Bft) 91,67 %
15.05.2016 03:05 9,2 C 79 % 1011,9 hPa 0,0 l/m 10,2 km/h (2 Bft) SW 225 0 min 0,000 mm 0,0 UV-I 0 W/m 5,8 C 6,6 C 16,1 km/h (3 Bft) 96,55 %
15.05.2016 03:06 9,2 C 78 % 1011,9 hPa 0,0 l/m 10,9 km/h (2 Bft) W-SW 254 0 min 0,000 mm 0,0 UV-I 0 W/m 5,6 C 6,2 C 16,1 km/h (3 Bft) 96,30 %
15.05.2016 03:07 9,2 C 78 % 1011,9 hPa 0,0 l/m 15,3 km/h (3 Bft) SW 215 0 min 0,000 mm 0,0 UV-I 0 W/m 5,6 C 4,0 C 22,5 km/h (4 Bft) 91,67 %
15.05.2016 03:08 9,2 C 78 % 1011,9 hPa 0,0 l/m 14,9 km/h (3 Bft) W-SW 243 0 min 0,000 mm 0,0 UV-I 0 W/m 5,6 C 4,2 C 22,5 km/h (4 Bft) 96,97 %
15.05.2016 03:09 9,2 C 78 % 1011,9 hPa 0,0 l/m 10,8 km/h (2 Bft) W-SW 255 0 min 0,000 mm 0,0 UV-I 0 W/m 5,6 C 6,2 C 14,5 km/h (3 Bft) 95,65 %
15.05.2016 03:10 9,2 C 78 % 1011,9 hPa 0,0 l/m 16,7 km/h (3 Bft) W 267 0 min 0,000 mm 0,0 UV-I 0 W/m 5,6 C 3,5 C 24,1 km/h (4 Bft) 96,30 %
15.05.2016 03:11 9,2 C 78 % 1012,0 hPa 0,0 l/m 10,8 km/h (2 Bft) W 259 0 min 0,000 mm 0,0 UV-I 0 W/m 5,6 C 6,2 C 16,1 km/h (3 Bft) 95,65 %
15.05.2016 03:12 9,2 C 78 % 1012,0 hPa 0,0 l/m 14,4 km/h (3 Bft) W-SW 258 0 min 0,000 mm 0,0 UV-I 0 W/m 5,6 C 4,4 C 20,9 km/h (4 Bft) 100,00 %
15.05.2016 03:13 9,2 C 78 % 1012,0 hPa 0,0 l/m 11,4 km/h (2 Bft) W-SW 252 0 min 0,000 mm 0,0 UV-I 0 W/m 5,6 C 5,9 C 14,5 km/h (3 Bft) 96,55 %
15.05.2016 03:14 9,2 C 78 % 1012,0 hPa 0,0 l/m 8,6 km/h (2 Bft) W-NW 300 0 min 0,000 mm 0,0 UV-I 0 W/m 5,6 C 7,6 C 12,9 km/h (3 Bft) 96,30 %
15.05.2016 03:15 9,1 C 78 % 1012,0 hPa 0,0 l/m 14,5 km/h (3 Bft) W 262 0 min 0,000 mm 0,0 UV-I 0 W/m 5,5 C 4,3 C 17,7 km/h (3 Bft) 93,33 %
15.05.2016 03:16 9,2 C 78 % 1012,0 hPa 0,0 l/m 12,1 km/h (2 Bft) W-SW 253 0 min 0,000 mm 0,0 UV-I 0 W/m 5,6 C 5,5 C 16,1 km/h (3 Bft) 96,15 %
15.05.2016 03:17 9,1 C 78 % 1012,0 hPa 0,0 l/m 8,8 km/h (2 Bft) W-SW 245 0 min 0,000 mm 0,0 UV-I 0 W/m 5,5 C 7,4 C 12,9 km/h (3 Bft) 100,00 %
15.05.2016 03:18 9,1 C 78 % 1012,0 hPa 0,0 l/m 12,2 km/h (2 Bft) W 259 0 min 0,000 mm 0,0 UV-I 0 W/m 5,5 C 5,4 C 17,7 km/h (3 Bft) 94,12 %
15.05.2016 03:19 9,1 C 78 % 1012,1 hPa 0,0 l/m 16,6 km/h (3 Bft) SW 229 0 min 0,000 mm 0,0 UV-I 0 W/m 5,5 C 3,4 C 22,5 km/h (4 Bft) 100,00 %
15.05.2016 03:20 9,1 C 78 % 1012,1 hPa 0,0 l/m 11,4 km/h (2 Bft) W-SW 244 0 min 0,000 mm 0,0 UV-I 0 W/m 5,5 C 5,8 C 14,5 km/h (3 Bft) 96,15 %
15.05.2016 03:21 9,1 C 77 % 1012,1 hPa 0,0 l/m 15,9 km/h (3 Bft) W 270 0 min 0,000 mm 0,0 UV-I 0 W/m 5,3 C 3,7 C 24,1 km/h (4 Bft) 100,00 %
15.05.2016 03:22 9,1 C 78 % 1012,1 hPa 0,0 l/m 11,9 km/h (2 Bft) W-SW 242 0 min 0,000 mm 0,0 UV-I 0 W/m 5,5 C 5,5 C 20,9 km/h (4 Bft) 96,15 %
15.05.2016 03:23 9,1 C 77 % 1012,1 hPa 0,0 l/m 10,7 km/h (2 Bft) W 259 0 min 0,000 mm 0,0 UV-I 0 W/m 5,3 C 6,2 C 14,5 km/h (3 Bft) 100,00 %
15.05.2016 03:24 9,1 C 78 % 1012,1 hPa 0,0 l/m 10,8 km/h (2 Bft) W-SW 246 0 min 0,000 mm 0,0 UV-I 0 W/m 5,5 C 6,1 C 12,9 km/h (3 Bft) 95,65 %
15.05.2016 03:25 9,1 C 78 % 1012,2 hPa 0,0 l/m 14,2 km/h (3 Bft) W 264 0 min 0,000 mm 0,0 UV-I 0 W/m 5,5 C 4,4 C 17,7 km/h (3 Bft) 96,30 %
15.05.2016 03:26 9,1 C 78 % 1012,2 hPa 0,0 l/m 10,8 km/h (2 Bft) W 260 0 min 0,000 mm 0,0 UV-I 0 W/m 5,5 C 6,1 C 16,1 km/h (3 Bft) 100,00 %
15.05.2016 03:27 9,0 C 77 % 1012,2 hPa 0,0 l/m 13,5 km/h (3 Bft) W 269 0 min 0,000 mm 0,0 UV-I 0 W/m 5,2 C 4,6 C 20,9 km/h (4 Bft) 96,30 %
15.05.2016 03:28 9,0 C 77 % 1012,2 hPa 0,0 l/m 10,2 km/h (2 Bft) W 263 0 min 0,000 mm 0,0 UV-I 0 W/m 5,2 C 6,4 C 19,3 km/h (3 Bft) 96,55 %
15.05.2016 03:29 9,0 C 77 % 1012,2 hPa 0,0 l/m 14,2 km/h (3 Bft) W 261 0 min 0,000 mm 0,0 UV-I 0 W/m 5,2 C 4,3 C 20,9 km/h (4 Bft) 91,67 %
15.05.2016 03:30 9,0 C 77 % 1012,2 hPa 0,0 l/m 13,2 km/h (3 Bft) W-SW 250 0 min 0,000 mm 0,0 UV-I 0 W/m 5,2 C 4,8 C 19,3 km/h (3 Bft) 100,00 %
15.05.2016 03:31 9,0 C 77 % 1012,2 hPa 0,0 l/m 13,7 km/h (3 Bft) W-SW 242 0 min 0,000 mm 0,0 UV-I 0 W/m 5,2 C 4,5 C 17,7 km/h (3 Bft) 100,00 %
15.05.2016 03:32 9,0 C 77 % 1012,2 hPa 0,0 l/m 15,5 km/h (3 Bft) W 270 0 min 0,000 mm 0,0 UV-I 0 W/m 5,2 C 3,7 C 20,9 km/h (4 Bft) 100,00 %
15.05.2016 03:33 8,9 C 77 % 1012,2 hPa 0,0 l/m 11,8 km/h (2 Bft) W-NW 301 0 min 0,000 mm 0,0 UV-I 0 W/m 5,1 C 5,4 C 14,5 km/h (3 Bft) 100,00 %
15.05.2016 03:34 8,9 C 78 % 1012,3 hPa 0,0 l/m 11,7 km/h (2 Bft) S-SW 207 0 min 0,000 mm 0,0 UV-I 0 W/m 5,3 C 5,4 C 20,9 km/h (4 Bft) 100,00 %
15.05.2016 03:35 8,9 C 77 % 1012,2 hPa 0,0 l/m 6,8 km/h (2 Bft) W-SW 257 0 min 0,000 mm 0,0 UV-I 0 W/m 5,1 C 8,6 C 14,5 km/h (3 Bft) 100,00 %
15.05.2016 03:36 8,9 C 77 % 1012,2 hPa 0,0 l/m 14,6 km/h (3 Bft) W 271 0 min 0,000 mm 0,0 UV-I 0 W/m 5,1 C 4,0 C 20,9 km/h (4 Bft) 100,00 %
15.05.2016 03:37 8,9 C 77 % 1012,2 hPa 0,0 l/m 12,2 km/h (2 Bft) W 271 0 min 0,000 mm 0,0 UV-I 0 W/m 5,1 C 5,1 C 16,1 km/h (3 Bft) 100,00 %
15.05.2016 03:38 8,9 C 76 % 1012,2 hPa 0,0 l/m 12,6 km/h (3 Bft) W-NW 292 0 min 0,000 mm 0,0 UV-I 0 W/m 4,9 C 4,9 C 20,9 km/h (4 Bft) 95,83 %
15.05.2016 03:39 8,9 C 75 % 1012,2 hPa 0,0 l/m 12,6 km/h (3 Bft) SW 225 0 min 0,000 mm 0,0 UV-I 0 W/m 4,7 C 4,9 C 17,7 km/h (3 Bft) 100,00 %
15.05.2016 03:40 8,9 C 75 % 1012,2 hPa 0,0 l/m 13,7 km/h (3 Bft) W-SW 256 0 min 0,000 mm 0,0 UV-I 0 W/m 4,7 C 4,4 C 20,9 km/h (4 Bft) 96,97 %
15.05.2016 03:41 8,9 C 75 % 1012,2 hPa 0,0 l/m 16,7 km/h (3 Bft) SW 236 0 min 0,000 mm 0,0 UV-I 0 W/m 4,7 C 3,1 C 20,9 km/h (4 Bft) 96,15 %
15.05.2016 03:42 8,9 C 75 % 1012,2 hPa 0,0 l/m 11,9 km/h (2 Bft) W-SW 238 0 min 0,000 mm 0,0 UV-I 0 W/m 4,7 C 5,3 C 20,9 km/h (4 Bft) 100,00 %
15.05.2016 03:43 8,9 C 75 % 1012,2 hPa 0,0 l/m 8,4 km/h (2 Bft) W-SW 247 0 min 0,000 mm 0,0 UV-I 0 W/m 4,7 C 7,4 C 14,5 km/h (3 Bft) 100,00 %
15.05.2016 03:44 8,9 C 75 % 1012,2 hPa 0,0 l/m 11,1 km/h (2 Bft) SW 219 0 min 0,000 mm 0,0 UV-I 0 W/m 4,7 C 5,7 C 14,5 km/h (3 Bft) 95,83 %
15.05.2016 03:45 8,9 C 75 % 1012,2 hPa 0,0 l/m 9,8 km/h (2 Bft) W 259 0 min 0,000 mm 0,0 UV-I 0 W/m 4,7 C 6,5 C 12,9 km/h (3 Bft) 100,00 %
15.05.2016 03:46 8,8 C 75 % 1012,2 hPa 0,0 l/m 7,6 km/h (2 Bft) SW 231 0 min 0,000 mm 0,0 UV-I 0 W/m 4,6 C 7,9 C 11,3 km/h (2 Bft) 100,00 %
15.05.2016 03:47 8,9 C 75 % 1012,2 hPa 0,0 l/m 12,4 km/h (3 Bft) W 267 0 min 0,000 mm 0,0 UV-I 0 W/m 4,7 C 5,0 C 17,7 km/h (3 Bft) 100,00 %
15.05.2016 03:48 8,8 C 75 % 1012,3 hPa 0,0 l/m 10,2 km/h (2 Bft) W 263 0 min 0,000 mm 0,0 UV-I 0 W/m 4,6 C 6,1 C 16,1 km/h (3 Bft) 100,00 %
15.05.2016 03:49 8,8 C 75 % 1012,3 hPa 0,0 l/m 6,8 km/h (2 Bft) W-SW 246 0 min 0,000 mm 0,0 UV-I 0 W/m 4,6 C 8,5 C 11,3 km/h (2 Bft) 96,15 %
15.05.2016 03:50 8,8 C 75 % 1012,3 hPa 0,0 l/m 9,5 km/h (2 Bft) W 261 0 min 0,000 mm 0,0 UV-I 0 W/m 4,6 C 6,6 C 12,9 km/h (3 Bft) 100,00 %
15.05.2016 03:51 8,8 C 75 % 1012,3 hPa 0,0 l/m 9,6 km/h (2 Bft) W-SW 244 0 min 0,000 mm 0,0 UV-I 0 W/m 4,6 C 6,5 C 14,5 km/h (3 Bft) 100,00 %
15.05.2016 03:52 8,8 C 74 % 1012,3 hPa 0,0 l/m 11,4 km/h (2 Bft) W-NW 284 0 min 0,000 mm 0,0 UV-I 0 W/m 4,4 C 5,5 C 16,1 km/h (3 Bft) 100,00 %
15.05.2016 03:53 8,8 C 74 % 1012,3 hPa 0,0 l/m 13,5 km/h (3 Bft) W-SW 237 0 min 0,000 mm 0,0 UV-I 0 W/m 4,4 C 4,4 C 19,3 km/h (3 Bft) 100,00 %
15.05.2016 03:54 8,8 C 73 % 1012,3 hPa 0,0 l/m 10,5 km/h (2 Bft) W-SW 256 0 min 0,000 mm 0,0 UV-I 0 W/m 4,2 C 6,0 C 14,5 km/h (3 Bft) 100,00 %
15.05.2016 03:55 8,8 C 74 % 1012,3 hPa 0,0 l/m 9,3 km/h (2 Bft) SW 234 0 min 0,000 mm 0,0 UV-I 0 W/m 4,4 C 6,7 C 14,5 km/h (3 Bft) 100,00 %
15.05.2016 03:56 8,7 C 74 % 1012,3 hPa 0,0 l/m 7,2 km/h (2 Bft) W 277 0 min 0,000 mm 0,0 UV-I 0 W/m 4,3 C 8,1 C 12,9 km/h (3 Bft) 100,00 %
15.05.2016 03:57 8,7 C 73 % 1012,3 hPa 0,0 l/m 6,6 km/h (2 Bft) W-SW 248 0 min 0,000 mm 0,0 UV-I 0 W/m 4,1 C 8,6 C 9,7 km/h (2 Bft) 100,00 %
15.05.2016 03:58 8,7 C 74 % 1012,3 hPa 0,0 l/m 9,9 km/h (2 Bft) W 264 0 min 0,000 mm 0,0 UV-I 0 W/m 4,3 C 6,2 C 14,5 km/h (3 Bft) 95,65 %
15.05.2016 03:59 8,7 C 73 % 1012,3 hPa 0,0 l/m 7,6 km/h (2 Bft) W 277 0 min 0,000 mm 0,0 UV-I 0 W/m 4,1 C 7,8 C 11,3 km/h (2 Bft) 100,00 %
15.05.2016 04:00 8,7 C 74 % 1012,4 hPa 0,0 l/m 10,7 km/h (2 Bft) W 273 0 min 0,026 mm 0,0 UV-I 0 W/m 4,3 C 5,7 C 12,9 km/h (3 Bft) 100,00 %
15.05.2016 04:03 8,6 C 73 % 1012,4 hPa 0,0 l/m 11,5 km/h (2 Bft) W-NW 292 0 min 0,000 mm 0,0 UV-I 0 W/m 4,0 C 5,2 C 17,7 km/h (3 Bft) 98,04 %
15.05.2016 04:04 8,6 C 73 % 1012,4 hPa 0,0 l/m 7,8 km/h (2 Bft) W 265 0 min 0,000 mm 0,0 UV-I 0 W/m 4,0 C 7,5 C 11,3 km/h (2 Bft) 100,00 %
15.05.2016 04:05 8,5 C 72 % 1012,4 hPa 0,0 l/m 11,8 km/h (2 Bft) W-SW 247 0 min 0,000 mm 0,0 UV-I 0 W/m 3,7 C 4,9 C 19,3 km/h (3 Bft) 100,00 %
15.05.2016 04:06 8,5 C 72 % 1012,4 hPa 0,0 l/m 8,9 km/h (2 Bft) W-SW 255 0 min 0,000 mm 0,0 UV-I 0 W/m 3,7 C 6,6 C 16,1 km/h (3 Bft) 100,00 %
15.05.2016 04:07 8,5 C 72 % 1012,4 hPa 0,0 l/m 11,7 km/h (2 Bft) W-SW 242 0 min 0,000 mm 0,0 UV-I 0 W/m 3,7 C 4,9 C 17,7 km/h (3 Bft) 100,00 %
15.05.2016 04:08 8,5 C 72 % 1012,4 hPa 0,0 l/m 10,1 km/h (2 Bft) W-SW 256 0 min 0,000 mm 0,0 UV-I 0 W/m 3,7 C 5,9 C 17,7 km/h (3 Bft) 95,65 %
15.05.2016 04:09 8,4 C 73 % 1012,5 hPa 0,0 l/m 7,1 km/h (2 Bft) W 261 0 min 0,000 mm 0,0 UV-I 0 W/m 3,8 C 7,9 C 11,3 km/h (2 Bft) 91,67 %
15.05.2016 04:10 8,4 C 72 % 1012,4 hPa 0,0 l/m 9,4 km/h (2 Bft) W 274 0 min 0,000 mm 0,0 UV-I 0 W/m 3,7 C 6,2 C 17,7 km/h (3 Bft) 100,00 %
15.05.2016 04:11 8,4 C 72 % 1012,4 hPa 0,0 l/m 5,7 km/h (1 Bft) W 259 0 min 0,000 mm 0,0 UV-I 0 W/m 3,7 C 8,4 C 12,9 km/h (3 Bft) 100,00 %
15.05.2016 04:12 8,4 C 72 % 1012,4 hPa 0,0 l/m 7,0 km/h (2 Bft) W-SW 254 0 min 0,000 mm 0,0 UV-I 0 W/m 3,7 C 7,9 C 14,5 km/h (3 Bft) 100,00 %
15.05.2016 04:13 8,4 C 72 % 1012,5 hPa 0,0 l/m 9,9 km/h (2 Bft) W 277 0 min 0,000 mm 0,0 UV-I 0 W/m 3,7 C 5,9 C 14,5 km/h (3 Bft) 100,00 %
15.05.2016 04:14 8,4 C 72 % 1012,4 hPa 0,0 l/m 14,3 km/h (3 Bft) W-SW 250 0 min 0,000 mm 0,0 UV-I 0 W/m 3,7 C 3,5 C 20,9 km/h (4 Bft) 100,00 %
15.05.2016 04:15 8,4 C 71 % 1012,5 hPa 0,0 l/m 9,8 km/h (2 Bft) W 275 0 min 0,000 mm 0,0 UV-I 0 W/m 3,5 C 6,0 C 14,5 km/h (3 Bft) 96,30 %
15.05.2016 04:16 8,4 C 72 % 1012,5 hPa 0,0 l/m 8,4 km/h (2 Bft) W-SW 256 0 min 0,000 mm 0,0 UV-I 0 W/m 3,7 C 6,9 C 12,9 km/h (3 Bft) 100,00 %
15.05.2016 04:17 8,4 C 72 % 1012,5 hPa 0,0 l/m 6,2 km/h (2 Bft) W 281 0 min 0,000 mm 0,0 UV-I 0 W/m 3,7 C 8,4 C 14,5 km/h (3 Bft) 100,00 %
15.05.2016 04:18 8,4 C 72 % 1012,5 hPa 0,0 l/m 8,8 km/h (2 Bft) W-SW 253 0 min 0,000 mm 0,0 UV-I 0 W/m 3,7 C 6,6 C 14,5 km/h (3 Bft) 100,00 %
15.05.2016 04:19 8,3 C 72 % 1012,6 hPa 0,0 l/m 9,0 km/h (2 Bft) W-NW 284 0 min 0,000 mm 0,0 UV-I 0 W/m 3,6 C 6,4 C 14,5 km/h (3 Bft) 100,00 %
15.05.2016 04:20 8,3 C 72 % 1012,6 hPa 0,0 l/m 5,9 km/h (2 Bft) SW 220 0 min 0,000 mm 0,0 UV-I 0 W/m 3,6 C 8,3 C 11,3 km/h (2 Bft) 100,00 %
15.05.2016 04:21 8,3 C 72 % 1012,5 hPa 0,0 l/m 9,7 km/h (2 Bft) W-SW 254 0 min 0,000 mm 0,0 UV-I 0 W/m 3,6 C 5,9 C 12,9 km/h (3 Bft) 100,00 %
15.05.2016 04:22 8,3 C 72 % 1012,6 hPa 0,0 l/m 10,8 km/h (2 Bft) W-SW 246 0 min 0,000 mm 0,0 UV-I 0 W/m 3,6 C 5,2 C 14,5 km/h (3 Bft) 100,00 %
15.05.2016 04:23 8,3 C 71 % 1012,6 hPa 0,0 l/m 17,8 km/h (3 Bft) W-SW 256 0 min 0,000 mm 0,0 UV-I 0 W/m 3,4 C 1,9 C 27,4 km/h (4 Bft) 100,00 %
15.05.2016 04:24 8,3 C 71 % 1012,6 hPa 0,0 l/m 7,3 km/h (2 Bft) W-SW 247 0 min 0,000 mm 0,0 UV-I 0 W/m 3,4 C 7,6 C 17,7 km/h (3 Bft) 100,00 %
15.05.2016 04:25 8,3 C 72 % 1012,6 hPa 0,0 l/m 8,8 km/h (2 Bft) W-SW 238 0 min 0,000 mm 0,0 UV-I 0 W/m 3,6 C 6,5 C 17,7 km/h (3 Bft) 100,00 %
15.05.2016 04:26 8,3 C 71 % 1012,6 hPa 0,0 l/m 14,0 km/h (3 Bft) W-SW 252 0 min 0,000 mm 0,0 UV-I 0 W/m 3,4 C 3,5 C 17,7 km/h (3 Bft) 100,00 %
15.05.2016 04:27 8,3 C 70 % 1012,7 hPa 0,0 l/m 14,5 km/h (3 Bft) W 261 0 min 0,000 mm 0,0 UV-I 0 W/m 3,2 C 3,3 C 19,3 km/h (3 Bft) 100,00 %
15.05.2016 04:28 8,3 C 70 % 1012,7 hPa 0,0 l/m 11,1 km/h (2 Bft) W-SW 246 0 min 0,000 mm 0,0 UV-I 0 W/m 3,2 C 5,1 C 14,5 km/h (3 Bft) 100,00 %
15.05.2016 04:29 8,3 C 71 % 1012,8 hPa 0,0 l/m 13,5 km/h (3 Bft) W-SW 244 0 min 0,000 mm 0,0 UV-I 0 W/m 3,4 C 3,8 C 20,9 km/h (4 Bft) 100,00 %
15.05.2016 04:30 8,3 C 70 % 1012,8 hPa 0,0 l/m 13,3 km/h (3 Bft) W 261 0 min 0,000 mm 0,0 UV-I 0 W/m 3,2 C 3,9 C 17,7 km/h (3 Bft) 100,00 %
15.05.2016 04:31 8,3 C 69 % 1012,8 hPa 0,0 l/m 14,2 km/h (3 Bft) W 267 0 min 0,000 mm 0,0 UV-I 0 W/m 3,0 C 3,4 C 20,9 km/h (4 Bft) 100,00 %
15.05.2016 04:32 8,3 C 69 % 1012,8 hPa 0,0 l/m 14,2 km/h (3 Bft) W 273 0 min 0,000 mm 0,0 UV-I 0 W/m 3,0 C 3,4 C 19,3 km/h (3 Bft) 100,00 %
15.05.2016 04:33 8,3 C 69 % 1012,8 hPa 0,0 l/m 8,9 km/h (2 Bft) W 279 0 min 0,000 mm 0,0 UV-I 0 W/m 3,0 C 6,4 C 12,9 km/h (3 Bft) 100,00 %
15.05.2016 04:34 8,4 C 69 % 1012,8 hPa 0,0 l/m 12,0 km/h (2 Bft) W 261 0 min 0,000 mm 0,0 UV-I 0 W/m 3,0 C 4,7 C 19,3 km/h (3 Bft) 100,00 %
15.05.2016 04:35 8,3 C 69 % 1012,8 hPa 0,0 l/m 11,3 km/h (2 Bft) W-SW 242 0 min 0,000 mm 0,0 UV-I 0 W/m 3,0 C 4,9 C 14,5 km/h (3 Bft) 100,00 %
15.05.2016 04:36 8,3 C 69 % 1012,8 hPa 0,0 l/m 11,6 km/h (2 Bft) W-SW 248 0 min 0,000 mm 0,0 UV-I 0 W/m 3,0 C 4,8 C 16,1 km/h (3 Bft) 100,00 %
15.05.2016 04:37 8,3 C 69 % 1012,8 hPa 0,0 l/m 9,7 km/h (2 Bft) W-SW 254 0 min 0,000 mm 0,0 UV-I 0 W/m 3,0 C 5,9 C 14,5 km/h (3 Bft) 100,00 %
15.05.2016 04:38 8,3 C 69 % 1012,8 hPa 0,0 l/m 9,0 km/h (2 Bft) W 265 0 min 0,000 mm 0,0 UV-I 0 W/m 3,0 C 6,4 C 11,3 km/h (2 Bft) 100,00 %
15.05.2016 04:39 8,3 C 69 % 1012,9 hPa 0,0 l/m 10,1 km/h (2 Bft) SW 235 0 min 0,000 mm 0,0 UV-I 0 W/m 3,0 C 5,7 C 16,1 km/h (3 Bft) 100,00 %
15.05.2016 04:40 8,3 C 69 % 1012,9 hPa 0,0 l/m 9,1 km/h (2 Bft) W-SW 243 0 min 0,000 mm 0,0 UV-I 0 W/m 3,0 C 6,3 C 17,7 km/h (3 Bft) 100,00 %
15.05.2016 04:41 8,3 C 70 % 1012,9 hPa 0,0 l/m 10,0 km/h (2 Bft) SW 225 0 min 0,000 mm 0,0 UV-I 0 W/m 3,2 C 5,7 C 17,7 km/h (3 Bft) 100,00 %
15.05.2016 04:42 8,3 C 69 % 1013,0 hPa 0,0 l/m 11,7 km/h (2 Bft) W-SW 250 0 min 0,000 mm 0,0 UV-I 0 W/m 3,0 C 4,7 C 17,7 km/h (3 Bft) 100,00 %
15.05.2016 04:43 8,3 C 70 % 1013,0 hPa 0,0 l/m 9,7 km/h (2 Bft) W-SW 257 0 min 0,000 mm 0,0 UV-I 0 W/m 3,2 C 5,9 C 17,7 km/h (3 Bft) 100,00 %
15.05.2016 04:44 8,3 C 69 % 1012,9 hPa 0,0 l/m 9,3 km/h (2 Bft) SW 231 0 min 0,000 mm 0,0 UV-I 0 W/m 3,0 C 6,2 C 16,1 km/h (3 Bft) 100,00 %
15.05.2016 04:45 8,3 C 70 % 1013,0 hPa 0,0 l/m 7,4 km/h (2 Bft) W 264 0 min 0,000 mm 0,0 UV-I 0 W/m 3,2 C 7,5 C 12,9 km/h (3 Bft) 100,00 %
15.05.2016 04:46 8,3 C 69 % 1013,0 hPa 0,0 l/m 9,6 km/h (2 Bft) W-SW 254 0 min 0,000 mm 0,0 UV-I 0 W/m 3,0 C 6,0 C 12,9 km/h (3 Bft) 100,00 %
15.05.2016 04:47 8,3 C 69 % 1013,0 hPa 0,0 l/m 7,4 km/h (2 Bft) W 271 0 min 0,000 mm 0,0 UV-I 0 W/m 3,0 C 7,5 C 9,7 km/h (2 Bft) 100,00 %
15.05.2016 04:48 8,3 C 70 % 1013,0 hPa 0,0 l/m 10,2 km/h (2 Bft) W-SW 252 0 min 0,000 mm 0,0 UV-I 0 W/m 3,2 C 5,6 C 12,9 km/h (3 Bft) 100,00 %
15.05.2016 04:49 8,3 C 70 % 1013,0 hPa 0,0 l/m 8,0 km/h (2 Bft) W 259 0 min 0,000 mm 0,0 UV-I 0 W/m 3,2 C 7,1 C 14,5 km/h (3 Bft) 100,00 %
15.05.2016 04:50 8,3 C 69 % 1013,0 hPa 0,0 l/m 7,6 km/h (2 Bft) W-SW 247 0 min 0,000 mm 0,0 UV-I 0 W/m 3,0 C 7,4 C 11,3 km/h (2 Bft) 100,00 %
15.05.2016 04:51 8,3 C 70 % 1013,0 hPa 0,0 l/m 8,8 km/h (2 Bft) W 281 0 min 0,000 mm 0,0 UV-I 0 W/m 3,2 C 6,5 C 16,1 km/h (3 Bft) 100,00 %
15.05.2016 04:52 8,3 C 69 % 1013,0 hPa 0,0 l/m 11,0 km/h (2 Bft) W-NW 284 0 min 0,000 mm 0,0 UV-I 0 W/m 3,0 C 5,1 C 16,1 km/h (3 Bft) 100,00 %
15.05.2016 04:53 8,3 C 70 % 1013,0 hPa 0,0 l/m 9,9 km/h (2 Bft) W 261 0 min 0,000 mm 0,0 UV-I 0 W/m 3,2 C 5,8 C 12,9 km/h (3 Bft) 100,00 %
15.05.2016 04:54 8,3 C 70 % 1013,1 hPa 0,0 l/m 5,0 km/h (1 Bft) W 263 0 min 0,000 mm 0,0 UV-I 0 W/m 3,2 C 8,3 C 6,4 km/h (2 Bft) 96,15 %
15.05.2016 04:55 8,3 C 70 % 1013,1 hPa 0,0 l/m 9,3 km/h (2 Bft) W-SW 255 0 min 0,000 mm 0,0 UV-I 0 W/m 3,2 C 6,2 C 14,5 km/h (3 Bft) 100,00 %
15.05.2016 04:56 8,3 C 70 % 1013,1 hPa 0,0 l/m 9,6 km/h (2 Bft) W 274 0 min 0,000 mm 0,0 UV-I 0 W/m 3,2 C 6,0 C 12,9 km/h (3 Bft) 100,00 %
15.05.2016 04:57 8,2 C 70 % 1013,1 hPa 0,0 l/m 7,4 km/h (2 Bft) W-NW 300 0 min 0,000 mm 0,0 UV-I 0 W/m 3,1 C 7,4 C 12,9 km/h (3 Bft) 100,00 %
15.05.2016 04:58 8,2 C 71 % 1013,1 hPa 0,0 l/m 7,7 km/h (2 Bft) W 266 0 min 0,000 mm 0,0 UV-I 0 W/m 3,3 C 7,2 C 16,1 km/h (3 Bft) 96,30 %
15.05.2016 04:59 8,2 C 71 % 1013,1 hPa 0,0 l/m 9,2 km/h (2 Bft) W-SW 251 0 min 0,000 mm 0,0 UV-I 0 W/m 3,3 C 6,1 C 11,3 km/h (2 Bft) 100,00 %
15.05.2016 05:00 8,2 C 71 % 1013,1 hPa 0,0 l/m 7,0 km/h (2 Bft) W-SW 252 0 min 0,025 mm 0,0 UV-I 0 W/m 3,3 C 7,7 C 11,3 km/h (2 Bft) 96,30 %
15.05.2016 05:01 8,2 C 71 % 1013,1 hPa 0,0 l/m 6,2 km/h (2 Bft) W 265 0 min 0,000 mm 0,0 UV-I 0 W/m 3,3 C 8,2 C 11,3 km/h (2 Bft) 100,00 %
15.05.2016 05:02 8,2 C 72 % 1013,1 hPa 0,0 l/m 6,2 km/h (2 Bft) W-NW 296 0 min 0,000 mm 0,0 UV-I 0 W/m 3,5 C 8,2 C 11,3 km/h (2 Bft) 91,67 %
15.05.2016 05:03 8,2 C 71 % 1013,1 hPa 0,0 l/m 10,2 km/h (2 Bft) W-SW 241 0 min 0,000 mm 0,0 UV-I 0 W/m 3,3 C 5,5 C 12,9 km/h (3 Bft) 100,00 %
15.05.2016 05:04 8,2 C 72 % 1013,1 hPa 0,0 l/m 8,4 km/h (2 Bft) W 263 0 min 0,000 mm 0,0 UV-I 0 W/m 3,5 C 6,7 C 11,3 km/h (2 Bft) 93,33 %
15.05.2016 05:05 8,2 C 72 % 1013,1 hPa 0,0 l/m 8,7 km/h (2 Bft) W-SW 257 0 min 0,000 mm 0,0 UV-I 0 W/m 3,5 C 6,5 C 14,5 km/h (3 Bft) 100,00 %
15.05.2016 05:06 8,2 C 72 % 1013,2 hPa 0,0 l/m 10,3 km/h (2 Bft) W 265 0 min 0,000 mm 0,0 UV-I 0 W/m 3,5 C 5,4 C 16,1 km/h (3 Bft) 96,30 %
15.05.2016 05:07 8,2 C 73 % 1013,2 hPa 0,0 l/m 7,0 km/h (2 Bft) W 263 0 min 0,000 mm 0,0 UV-I 0 W/m 3,7 C 7,7 C 14,5 km/h (3 Bft) 99,28 %
15.05.2016 05:08 8,2 C 73 % 1013,2 hPa 0,0 l/m 9,2 km/h (2 Bft) W-NW 290 0 min 0,000 mm 0,0 UV-I 0 W/m 3,7 C 6,1 C 12,9 km/h (3 Bft) 97,87 %
15.05.2016 05:09 8,2 C 73 % 1013,1 hPa 0,0 l/m 10,1 km/h (2 Bft) W-SW 248 0 min 0,000 mm 0,0 UV-I 0 W/m 3,7 C 5,5 C 14,5 km/h (3 Bft) 100,00 %
15.05.2016 05:10 8,2 C 73 % 1013,2 hPa 0,0 l/m 8,1 km/h (2 Bft) W 278 0 min 0,000 mm 0,0 UV-I 0 W/m 3,7 C 6,9 C 12,9 km/h (3 Bft) 90,91 %
15.05.2016 05:11 8,2 C 73 % 1013,2 hPa 0,0 l/m 9,7 km/h (2 Bft) W-SW 239 0 min 0,000 mm 0,0 UV-I 0 W/m 3,7 C 5,8 C 14,5 km/h (3 Bft) 97,56 %
15.05.2016 05:12 8,2 C 73 % 1013,2 hPa 0,0 l/m 9,8 km/h (2 Bft) W-SW 248 0 min 0,000 mm 0,0 UV-I 0 W/m 3,7 C 5,7 C 14,5 km/h (3 Bft) 100,00 %
15.05.2016 05:13 8,1 C 73 % 1013,2 hPa 0,0 l/m 7,2 km/h (2 Bft) W-SW 246 0 min 0,000 mm 0,0 UV-I 0 W/m 3,6 C 7,5 C 11,3 km/h (2 Bft) 99,16 %
15.05.2016 05:14 8,2 C 73 % 1013,2 hPa 0,0 l/m 6,7 km/h (2 Bft) W-SW 240 0 min 0,000 mm 0,0 UV-I 0 W/m 3,7 C 8,0 C 14,5 km/h (3 Bft) 95,45 %
15.05.2016 05:15 8,1 C 74 % 1013,2 hPa 0,0 l/m 6,0 km/h (2 Bft) W 275 0 min 0,000 mm 0,0 UV-I 0 W/m 3,8 C 8,1 C 11,3 km/h (2 Bft) 94,44 %
15.05.2016 05:16 8,1 C 73 % 1013,2 hPa 0,0 l/m 6,7 km/h (2 Bft) W-SW 248 0 min 0,000 mm 0,0 UV-I 0 W/m 3,6 C 7,9 C 11,3 km/h (2 Bft) 100,00 %
15.05.2016 05:17 8,1 C 74 % 1013,2 hPa 0,0 l/m 9,0 km/h (2 Bft) W-SW 258 0 min 0,000 mm 0,0 UV-I 0 W/m 3,8 C 6,1 C 12,9 km/h (3 Bft) 96,30 %
15.05.2016 05:18 8,1 C 74 % 1013,2 hPa 0,0 l/m 6,2 km/h (2 Bft) W-SW 246 0 min 0,000 mm 0,0 UV-I 0 W/m 3,8 C 8,1 C 8,0 km/h (2 Bft) 96,15 %
15.05.2016 05:19 8,1 C 74 % 1013,2 hPa 0,0 l/m 6,3 km/h (2 Bft) W-SW 244 0 min 0,000 mm 0,0 UV-I 0 W/m 3,8 C 8,1 C 8,0 km/h (2 Bft) 100,00 %
15.05.2016 05:20 8,1 C 74 % 1013,2 hPa 0,0 l/m 5,3 km/h (1 Bft) W 266 0 min 0,000 mm 0,0 UV-I 0 W/m 3,8 C 8,1 C 9,7 km/h (2 Bft) 96,15 %
15.05.2016 05:21 8,1 C 75 % 1013,2 hPa 0,0 l/m 4,6 km/h (1 Bft) W 271 0 min 0,000 mm 0,0 UV-I 0 W/m 3,9 C 8,1 C 6,4 km/h (2 Bft) 96,30 %
15.05.2016 05:22 8,0 C 75 % 1013,2 hPa 0,0 l/m 5,3 km/h (1 Bft) W-SW 239 0 min 0,000 mm 0,0 UV-I 0 W/m 3,8 C 8,0 C 9,7 km/h (2 Bft) 95,65 %
15.05.2016 05:23 8,0 C 76 % 1013,2 hPa 0,0 l/m 7,7 km/h (2 Bft) W 269 0 min 0,000 mm 0,0 UV-I 0 W/m 4,0 C 7,0 C 11,3 km/h (2 Bft) 100,00 %
15.05.2016 05:24 8,0 C 76 % 1013,3 hPa 0,0 l/m 6,8 km/h (2 Bft) W-NW 290 0 min 0,000 mm 0,0 UV-I 0 W/m 4,0 C 7,7 C 11,3 km/h (2 Bft) 94,12 %
15.05.2016 05:25 7,9 C 76 % 1013,3 hPa 0,0 l/m 5,2 km/h (1 Bft) W 262 0 min 0,000 mm 0,0 UV-I 0 W/m 3,9 C 7,9 C 9,7 km/h (2 Bft) 100,00 %
15.05.2016 05:26 7,9 C 76 % 1013,4 hPa 0,0 l/m 6,7 km/h (2 Bft) W-SW 238 0 min 0,000 mm 0,0 UV-I 0 W/m 3,9 C 7,7 C 11,3 km/h (2 Bft) 96,15 %
15.05.2016 05:27 7,9 C 76 % 1013,4 hPa 0,0 l/m 7,1 km/h (2 Bft) W-SW 244 0 min 0,000 mm 0,0 UV-I 0 W/m 3,9 C 7,3 C 11,3 km/h (2 Bft) 95,83 %
15.05.2016 05:28 7,9 C 76 % 1013,4 hPa 0,0 l/m 7,7 km/h (2 Bft) W-SW 249 0 min 0,000 mm 0,0 UV-I 0 W/m 3,9 C 6,9 C 12,9 km/h (3 Bft) 100,00 %
15.05.2016 05:29 7,9 C 77 % 1013,3 hPa 0,0 l/m 9,1 km/h (2 Bft) W-SW 252 0 min 0,000 mm 0,0 UV-I 0 W/m 4,1 C 5,9 C 14,5 km/h (3 Bft) 96,30 %
15.05.2016 05:30 7,9 C 77 % 1013,3 hPa 0,0 l/m 5,9 km/h (2 Bft) W-SW 254 0 min 0,000 mm 0,0 UV-I 0 W/m 4,1 C 7,9 C 11,3 km/h (2 Bft) 100,00 %
15.05.2016 05:31 7,9 C 78 % 1013,3 hPa 0,0 l/m 6,7 km/h (2 Bft) W-SW 250 0 min 0,000 mm 0,0 UV-I 0 W/m 4,3 C 7,7 C 9,7 km/h (2 Bft) 100,00 %
15.05.2016 05:32 7,8 C 78 % 1013,3 hPa 0,0 l/m 5,5 km/h (1 Bft) W-SW 258 0 min 0,000 mm 0,0 UV-I 0 W/m 4,2 C 7,8 C 9,7 km/h (2 Bft) 100,00 %
15.05.2016 05:33 7,8 C 78 % 1013,4 hPa 0,0 l/m 6,9 km/h (2 Bft) W 262 0 min 0,000 mm 0,0 UV-I 0 W/m 4,2 C 7,4 C 11,3 km/h (2 Bft) 100,00 %
15.05.2016 05:34 7,8 C 78 % 1013,3 hPa 0,0 l/m 6,9 km/h (2 Bft) W-SW 253 0 min 0,000 mm 0,0 UV-I 2 W/m 4,2 C 7,4 C 9,7 km/h (2 Bft) 94,74 %
15.05.2016 05:35 7,8 C 78 % 1013,3 hPa 0,0 l/m 4,7 km/h (1 Bft) W-SW 255 0 min 0,000 mm 0,0 UV-I 5 W/m 4,2 C 7,8 C 6,4 km/h (2 Bft) 100,00 %
15.05.2016 05:36 7,8 C 78 % 1013,3 hPa 0,0 l/m 7,3 km/h (2 Bft) W 268 0 min 0,000 mm 0,0 UV-I 5 W/m 4,2 C 7,1 C 11,3 km/h (2 Bft) 100,00 %
15.05.2016 05:37 7,8 C 79 % 1013,4 hPa 0,0 l/m 12,1 km/h (2 Bft) W-SW 257 0 min 0,000 mm 0,0 UV-I 5 W/m 4,4 C 3,9 C 17,7 km/h (3 Bft) 100,00 %
15.05.2016 05:38 7,8 C 79 % 1013,4 hPa 0,0 l/m 11,8 km/h (2 Bft) W-SW 240 0 min 0,000 mm 0,0 UV-I 5 W/m 4,4 C 4,1 C 17,7 km/h (3 Bft) 100,00 %
15.05.2016 05:39 7,8 C 78 % 1013,4 hPa 0,0 l/m 11,3 km/h (2 Bft) W 273 0 min 0,000 mm 0,0 UV-I 5 W/m 4,2 C 4,4 C 14,5 km/h (3 Bft) 96,15 %
15.05.2016 05:40 7,8 C 78 % 1013,4 hPa 0,0 l/m 10,1 km/h (2 Bft) W 272 0 min 0,000 mm 0,0 UV-I 5 W/m 4,2 C 5,1 C 17,7 km/h (3 Bft) 100,00 %
15.05.2016 05:41 7,8 C 79 % 1013,4 hPa 0,0 l/m 8,5 km/h (2 Bft) W-SW 240 0 min 0,000 mm 0,0 UV-I 7 W/m 4,4 C 6,2 C 12,9 km/h (3 Bft) 100,00 %
15.05.2016 05:42 7,8 C 79 % 1013,4 hPa 0,0 l/m 12,3 km/h (3 Bft) W 259 0 min 0,000 mm 0,0 UV-I 7 W/m 4,4 C 3,8 C 14,5 km/h (3 Bft) 100,00 %
15.05.2016 05:43 7,8 C 79 % 1013,4 hPa 0,0 l/m 11,2 km/h (2 Bft) W-SW 250 0 min 0,000 mm 0,0 UV-I 9 W/m 4,4 C 4,4 C 12,9 km/h (3 Bft) 96,15 %
15.05.2016 05:44 7,8 C 79 % 1013,4 hPa 0,0 l/m 8,2 km/h (2 Bft) W-SW 254 0 min 0,000 mm 0,0 UV-I 9 W/m 4,4 C 6,4 C 11,3 km/h (2 Bft) 100,00 %
15.05.2016 05:45 7,8 C 79 % 1013,5 hPa 0,0 l/m 10,4 km/h (2 Bft) W 275 0 min 0,000 mm 0,0 UV-I 10 W/m 4,4 C 4,9 C 14,5 km/h (3 Bft) 100,00 %
15.05.2016 05:46 7,8 C 79 % 1013,5 hPa 0,0 l/m 9,2 km/h (2 Bft) W 259 0 min 0,000 mm 0,0 UV-I 11 W/m 4,4 C 5,7 C 14,5 km/h (3 Bft) 100,00 %
15.05.2016 05:47 7,9 C 79 % 1013,5 hPa 0,0 l/m 11,7 km/h (2 Bft) W-SW 243 0 min 0,000 mm 0,0 UV-I 11 W/m 4,5 C 4,3 C 19,3 km/h (3 Bft) 100,00 %
15.05.2016 05:48 7,9 C 79 % 1013,5 hPa 0,0 l/m 13,7 km/h (3 Bft) W 270 0 min 0,000 mm 0,0 UV-I 12 W/m 4,5 C 3,2 C 19,3 km/h (3 Bft) 100,00 %
15.05.2016 05:49 7,9 C 79 % 1013,5 hPa 0,0 l/m 9,3 km/h (2 Bft) W-SW 247 0 min 0,000 mm 0,0 UV-I 12 W/m 4,5 C 5,7 C 14,5 km/h (3 Bft) 100,00 %
15.05.2016 05:50 7,9 C 79 % 1013,5 hPa 0,0 l/m 11,8 km/h (2 Bft) W-SW 250 0 min 0,000 mm 0,0 UV-I 14 W/m 4,5 C 4,2 C 17,7 km/h (3 Bft) 100,00 %
15.05.2016 05:51 7,9 C 78 % 1013,5 hPa 0,0 l/m 13,8 km/h (3 Bft) W-SW 250 0 min 0,000 mm 0,0 UV-I 14 W/m 4,3 C 3,2 C 17,7 km/h (3 Bft) 100,00 %
15.05.2016 05:52 7,9 C 78 % 1013,5 hPa 0,0 l/m 8,7 km/h (2 Bft) W-SW 249 0 min 0,000 mm 0,0 UV-I 14 W/m 4,3 C 6,1 C 12,9 km/h (3 Bft) 100,00 %
15.05.2016 05:53 7,9 C 79 % 1013,5 hPa 0,0 l/m 10,9 km/h (2 Bft) W-SW 242 0 min 0,000 mm 0,0 UV-I 14 W/m 4,5 C 4,7 C 14,5 km/h (3 Bft) 100,00 %
15.05.2016 05:54 7,9 C 79 % 1013,5 hPa 0,0 l/m 10,7 km/h (2 Bft) W 271 0 min 0,000 mm 0,0 UV-I 16 W/m 4,5 C 4,8 C 20,9 km/h (4 Bft) 100,00 %
15.05.2016 05:55 7,9 C 78 % 1013,5 hPa 0,0 l/m 9,2 km/h (2 Bft) W-SW 242 0 min 0,000 mm 0,0 UV-I 16 W/m 4,3 C 5,8 C 17,7 km/h (3 Bft) 100,00 %
15.05.2016 05:56 7,9 C 78 % 1013,5 hPa 0,0 l/m 9,7 km/h (2 Bft) W-SW 246 0 min 0,000 mm 0,0 UV-I 16 W/m 4,3 C 5,5 C 12,9 km/h (3 Bft) 100,00 %
15.05.2016 05:57 7,9 C 78 % 1013,6 hPa 0,0 l/m 8,1 km/h (2 Bft) W-SW 248 0 min 0,000 mm 0,0 UV-I 16 W/m 4,3 C 6,6 C 12,9 km/h (3 Bft) 100,00 %
15.05.2016 05:58 7,9 C 78 % 1013,6 hPa 0,0 l/m 7,8 km/h (2 Bft) W-SW 257 0 min 0,000 mm 0,0 UV-I 16 W/m 4,3 C 6,8 C 11,3 km/h (2 Bft) 100,00 %
15.05.2016 05:59 7,9 C 78 % 1013,6 hPa 0,0 l/m 12,2 km/h (2 Bft) W 263 0 min 0,000 mm 0,0 UV-I 17 W/m 4,3 C 4,0 C 17,7 km/h (3 Bft) 100,00 %
15.05.2016 06:00 7,9 C 78 % 1013,5 hPa 0,0 l/m 12,4 km/h (3 Bft) W-SW 241 0 min 0,000 mm 0,0 UV-I 18 W/m 4,3 C 3,9 C 17,7 km/h (3 Bft) 100,00 %
15.05.2016 06:02 7,9 C 78 % 1013,6 hPa 0,0 l/m 9,9 km/h (2 Bft) W-SW 251 0 min 0,025 mm 0,0 UV-I 19 W/m 4,3 C 5,3 C 17,7 km/h (3 Bft) 100,00 %
15.05.2016 06:03 7,9 C 78 % 1013,5 hPa 0,0 l/m 6,9 km/h (2 Bft) W-SW 248 0 min 0,000 mm 0,0 UV-I 20 W/m 4,3 C 7,5 C 11,3 km/h (2 Bft) 100,00 %
15.05.2016 06:04 7,9 C 78 % 1013,5 hPa 0,0 l/m 10,0 km/h (2 Bft) W-SW 252 0 min 0,000 mm 0,0 UV-I 21 W/m 4,3 C 5,3 C 14,5 km/h (3 Bft) 100,00 %
15.05.2016 06:05 7,9 C 78 % 1013,6 hPa 0,0 l/m 6,9 km/h (2 Bft) SW 236 0 min 0,000 mm 0,0 UV-I 22 W/m 4,3 C 7,5 C 12,9 km/h (3 Bft) 100,00 %
15.05.2016 06:06 7,9 C 78 % 1013,6 hPa 0,0 l/m 7,2 km/h (2 Bft) W-SW 246 0 min 0,000 mm 0,0 UV-I 23 W/m 4,3 C 7,3 C 9,7 km/h (2 Bft) 100,00 %
15.05.2016 06:07 7,9 C 78 % 1013,7 hPa 0,0 l/m 8,2 km/h (2 Bft) SW 222 0 min 0,000 mm 0,0 UV-I 23 W/m 4,3 C 6,5 C 11,3 km/h (2 Bft) 100,00 %
15.05.2016 06:08 7,9 C 78 % 1013,6 hPa 0,0 l/m 9,1 km/h (2 Bft) W-SW 248 0 min 0,000 mm 0,0 UV-I 23 W/m 4,3 C 5,9 C 14,5 km/h (3 Bft) 100,00 %
15.05.2016 06:09 7,8 C 78 % 1013,7 hPa 0,0 l/m 7,0 km/h (2 Bft) W 263 0 min 0,000 mm 0,0 UV-I 23 W/m 4,2 C 7,3 C 9,7 km/h (2 Bft) 100,00 %
15.05.2016 06:10 7,9 C 78 % 1013,7 hPa 0,0 l/m 9,7 km/h (2 Bft) W-SW 252 0 min 0,000 mm 0,0 UV-I 24 W/m 4,3 C 5,5 C 12,9 km/h (3 Bft) 100,00 %
15.05.2016 06:11 7,8 C 77 % 1013,7 hPa 0,0 l/m 11,2 km/h (2 Bft) W-NW 284 0 min 0,000 mm 0,0 UV-I 25 W/m 4,0 C 4,4 C 17,7 km/h (3 Bft) 96,55 %
15.05.2016 06:12 7,8 C 77 % 1013,7 hPa 0,0 l/m 10,3 km/h (2 Bft) W-SW 256 0 min 0,000 mm 0,0 UV-I 28 W/m 4,0 C 5,0 C 12,9 km/h (3 Bft) 100,00 %
15.05.2016 06:13 7,8 C 77 % 1013,7 hPa 0,0 l/m 8,5 km/h (2 Bft) W 278 0 min 0,000 mm 0,0 UV-I 29 W/m 4,0 C 6,2 C 12,9 km/h (3 Bft) 100,00 %
15.05.2016 06:14 7,8 C 77 % 1013,7 hPa 0,0 l/m 5,2 km/h (1 Bft) W-SW 244 0 min 0,000 mm 0,0 UV-I 30 W/m 4,0 C 7,8 C 6,4 km/h (2 Bft) 96,15 %
15.05.2016 06:15 7,8 C 78 % 1013,7 hPa 0,0 l/m 5,5 km/h (1 Bft) W-SW 246 0 min 0,000 mm 0,0 UV-I 31 W/m 4,2 C 7,8 C 11,3 km/h (2 Bft) 100,00 %
15.05.2016 06:16 7,8 C 78 % 1013,6 hPa 0,0 l/m 5,4 km/h (1 Bft) SW 230 0 min 0,000 mm 0,0 UV-I 33 W/m 4,2 C 7,8 C 9,7 km/h (2 Bft) 100,00 %
15.05.2016 06:17 7,8 C 78 % 1013,7 hPa 0,0 l/m 6,8 km/h (2 Bft) W-SW 237 0 min 0,000 mm 0,0 UV-I 34 W/m 4,2 C 7,5 C 9,7 km/h (2 Bft) 96,15 %
15.05.2016 06:18 7,8 C 78 % 1013,6 hPa 0,0 l/m 6,7 km/h (2 Bft) W-SW 254 0 min 0,000 mm 0,0 UV-I 35 W/m 4,2 C 7,6 C 11,3 km/h (2 Bft) 100,00 %
15.05.2016 06:19 7,8 C 77 % 1013,7 hPa 0,0 l/m 11,8 km/h (2 Bft) W-SW 250 0 min 0,000 mm 0,0 UV-I 37 W/m 4,0 C 4,1 C 16,1 km/h (3 Bft) 100,00 %
15.05.2016 06:20 7,8 C 77 % 1013,6 hPa 0,0 l/m 6,9 km/h (2 Bft) W-SW 237 0 min 0,000 mm 0,0 UV-I 38 W/m 4,0 C 7,4 C 11,3 km/h (2 Bft) 100,00 %
15.05.2016 06:21 7,8 C 78 % 1013,6 hPa 0,0 l/m 6,6 km/h (2 Bft) W 261 0 min 0,000 mm 0,0 UV-I 39 W/m 4,2 C 7,7 C 12,9 km/h (3 Bft) 95,65 %
15.05.2016 06:22 7,8 C 77 % 1013,6 hPa 0,0 l/m 10,0 km/h (2 Bft) W-SW 240 0 min 0,000 mm 0,0 UV-I 40 W/m 4,0 C 5,2 C 14,5 km/h (3 Bft) 95,83 %
15.05.2016 06:23 7,8 C 78 % 1013,6 hPa 0,0 l/m 5,6 km/h (1 Bft) W 278 0 min 0,000 mm 0,0 UV-I 40 W/m 4,2 C 7,8 C 9,7 km/h (2 Bft) 95,65 %
15.05.2016 06:24 7,8 C 78 % 1013,6 hPa 0,0 l/m 5,4 km/h (1 Bft) SW 215 0 min 0,000 mm 0,0 UV-I 40 W/m 4,2 C 7,8 C 9,7 km/h (2 Bft) 100,00 %
15.05.2016 06:25 7,8 C 78 % 1013,6 hPa 0,0 l/m 10,4 km/h (2 Bft) W 270 0 min 0,000 mm 0,0 UV-I 43 W/m 4,2 C 4,9 C 14,5 km/h (3 Bft) 100,00 %
15.05.2016 06:26 7,8 C 78 % 1013,6 hPa 0,0 l/m 11,6 km/h (2 Bft) W-SW 249 0 min 0,000 mm 0,0 UV-I 44 W/m 4,2 C 4,2 C 17,7 km/h (3 Bft) 100,00 %
15.05.2016 06:27 7,8 C 77 % 1013,7 hPa 0,0 l/m 10,4 km/h (2 Bft) W 261 0 min 0,000 mm 0,0 UV-I 46 W/m 4,0 C 4,9 C 12,9 km/h (3 Bft) 100,00 %
15.05.2016 06:28 7,8 C 77 % 1013,7 hPa 0,0 l/m 8,5 km/h (2 Bft) W-SW 248 0 min 0,000 mm 0,0 UV-I 51 W/m 4,0 C 6,2 C 14,5 km/h (3 Bft) 100,00 %
15.05.2016 06:29 7,8 C 77 % 1013,8 hPa 0,0 l/m 12,4 km/h (3 Bft) W-SW 258 0 min 0,000 mm 0,0 UV-I 56 W/m 4,0 C 3,8 C 16,1 km/h (3 Bft) 100,00 %
15.05.2016 06:30 7,8 C 77 % 1013,8 hPa 0,0 l/m 13,3 km/h (3 Bft) W-SW 244 0 min 0,000 mm 0,0 UV-I 56 W/m 4,0 C 3,3 C 19,3 km/h (3 Bft) 96,30 %
15.05.2016 06:31 7,8 C 77 % 1013,9 hPa 0,0 l/m 11,2 km/h (2 Bft) SW 221 0 min 0,000 mm 0,0 UV-I 58 W/m 4,0 C 4,4 C 14,5 km/h (3 Bft) 100,00 %
15.05.2016 06:32 7,8 C 77 % 1013,9 hPa 0,0 l/m 8,5 km/h (2 Bft) W-SW 252 0 min 0,000 mm 0,0 UV-I 61 W/m 4,0 C 6,2 C 14,5 km/h (3 Bft) 100,00 %
15.05.2016 06:33 7,8 C 78 % 1013,9 hPa 0,0 l/m 9,9 km/h (2 Bft) W-SW 253 0 min 0,000 mm 0,0 UV-I 64 W/m 4,2 C 5,2 C 19,3 km/h (3 Bft) 95,83 %
15.05.2016 06:34 7,8 C 78 % 1013,9 hPa 0,0 l/m 13,4 km/h (3 Bft) W 269 0 min 0,000 mm 0,0 UV-I 67 W/m 4,2 C 3,2 C 17,7 km/h (3 Bft) 100,00 %
15.05.2016 06:35 7,8 C 78 % 1013,9 hPa 0,0 l/m 10,2 km/h (2 Bft) SW 234 0 min 0,000 mm 0,0 UV-I 70 W/m 4,2 C 5,0 C 16,1 km/h (3 Bft) 100,00 %
15.05.2016 06:36 7,8 C 78 % 1014,0 hPa 0,0 l/m 10,1 km/h (2 Bft) W 269 0 min 0,000 mm 0,0 UV-I 72 W/m 4,2 C 5,1 C 14,5 km/h (3 Bft) 100,00 %
15.05.2016 06:37 7,8 C 78 % 1014,0 hPa 0,0 l/m 11,8 km/h (2 Bft) W 260 0 min 0,000 mm 0,0 UV-I 74 W/m 4,2 C 4,1 C 14,5 km/h (3 Bft) 100,00 %
15.05.2016 06:38 7,8 C 78 % 1014,0 hPa 0,0 l/m 10,3 km/h (2 Bft) W 262 0 min 0,000 mm 0,0 UV-I 74 W/m 4,2 C 5,0 C 14,5 km/h (3 Bft) 100,00 %
15.05.2016 06:39 7,8 C 78 % 1014,0 hPa 0,0 l/m 6,7 km/h (2 Bft) W 261 0 min 0,000 mm 0,0 UV-I 77 W/m 4,2 C 7,6 C 11,3 km/h (2 Bft) 96,67 %
15.05.2016 06:40 7,8 C 78 % 1014,0 hPa 0,0 l/m 12,7 km/h (3 Bft) W 268 0 min 0,000 mm 0,0 UV-I 77 W/m 4,2 C 3,6 C 14,5 km/h (3 Bft) 100,00 %
15.05.2016 06:41 7,8 C 77 % 1014,0 hPa 0,0 l/m 13,6 km/h (3 Bft) W 266 0 min 0,000 mm 0,0 UV-I 79 W/m 4,0 C 3,1 C 17,7 km/h (3 Bft) 100,00 %
15.05.2016 06:42 7,7 C 76 % 1014,0 hPa 0,0 l/m 11,9 km/h (2 Bft) W-NW 294 0 min 0,000 mm 0,0 UV-I 81 W/m 3,7 C 3,9 C 17,7 km/h (3 Bft) 97,56 %
15.05.2016 06:43 7,8 C 76 % 1014,0 hPa 0,0 l/m 13,4 km/h (3 Bft) W 271 0 min 0,000 mm 0,0 UV-I 81 W/m 3,8 C 3,2 C 17,7 km/h (3 Bft) 100,00 %
15.05.2016 06:44 7,7 C 77 % 1014,0 hPa 0,0 l/m 12,5 km/h (3 Bft) W 260 0 min 0,000 mm 0,0 UV-I 81 W/m 3,9 C 3,6 C 16,1 km/h (3 Bft) 100,00 %
15.05.2016 06:45 7,8 C 77 % 1014,0 hPa 0,0 l/m 12,0 km/h (2 Bft) W-SW 248 0 min 0,000 mm 0,0 UV-I 81 W/m 4,0 C 4,0 C 16,1 km/h (3 Bft) 100,00 %
15.05.2016 06:46 7,8 C 76 % 1014,1 hPa 0,0 l/m 7,5 km/h (2 Bft) W 260 0 min 0,000 mm 0,0 UV-I 81 W/m 3,8 C 6,9 C 14,5 km/h (3 Bft) 92,31 %
15.05.2016 06:47 7,7 C 76 % 1014,0 hPa 0,0 l/m 8,0 km/h (2 Bft) W 261 0 min 0,000 mm 0,0 UV-I 81 W/m 3,7 C 6,4 C 11,3 km/h (2 Bft) 95,83 %
15.05.2016 06:48 7,7 C 76 % 1014,1 hPa 0,0 l/m 12,2 km/h (2 Bft) W-SW 248 0 min 0,000 mm 0,0 UV-I 83 W/m 3,7 C 3,8 C 17,7 km/h (3 Bft) 100,00 %
15.05.2016 06:49 7,8 C 76 % 1014,0 hPa 0,0 l/m 6,4 km/h (2 Bft) W 267 0 min 0,000 mm 0,0 UV-I 83 W/m 3,8 C 7,8 C 11,3 km/h (2 Bft) 100,00 %
15.05.2016 06:50 7,8 C 77 % 1014,0 hPa 0,0 l/m 5,5 km/h (1 Bft) W-SW 244 0 min 0,000 mm 0,0 UV-I 84 W/m 4,0 C 7,8 C 6,4 km/h (2 Bft) 100,00 %
15.05.2016 06:51 7,8 C 77 % 1014,1 hPa 0,0 l/m 6,6 km/h (2 Bft) W-SW 237 0 min 0,000 mm 0,0 UV-I 87 W/m 4,0 C 7,7 C 9,7 km/h (2 Bft) 100,00 %
15.05.2016 06:52 7,8 C 78 % 1014,0 hPa 0,0 l/m 10,1 km/h (2 Bft) W 268 0 min 0,000 mm 0,0 UV-I 86 W/m 4,2 C 5,1 C 16,1 km/h (3 Bft) 100,00 %
15.05.2016 06:53 7,8 C 77 % 1014,1 hPa 0,0 l/m 7,4 km/h (2 Bft) W-SW 248 0 min 0,000 mm 0,0 UV-I 85 W/m 4,0 C 7,0 C 12,9 km/h (3 Bft) 100,00 %
15.05.2016 06:54 7,8 C 77 % 1014,1 hPa 0,0 l/m 6,8 km/h (2 Bft) W-SW 258 0 min 0,000 mm 0,0 UV-I 95 W/m 4,0 C 7,5 C 12,9 km/h (3 Bft) 100,00 %
15.05.2016 06:55 7,8 C 77 % 1014,1 hPa 0,0 l/m 12,1 km/h (2 Bft) W-SW 254 0 min 0,000 mm 0,0 UV-I 104 W/m 4,0 C 3,9 C 14,5 km/h (3 Bft) 94,44 %
15.05.2016 06:56 7,8 C 78 % 1014,1 hPa 0,0 l/m 11,5 km/h (2 Bft) W-SW 246 0 min 0,000 mm 0,0 UV-I 114 W/m 4,2 C 4,3 C 17,7 km/h (3 Bft) 100,00 %
15.05.2016 06:57 7,8 C 77 % 1014,1 hPa 0,0 l/m 8,8 km/h (2 Bft) W-SW 240 0 min 0,000 mm 0,0 UV-I 118 W/m 4,0 C 6,0 C 12,9 km/h (3 Bft) 100,00 %
15.05.2016 06:58 7,8 C 77 % 1014,1 hPa 0,0 l/m 9,9 km/h (2 Bft) W-SW 246 0 min 0,000 mm 0,0 UV-I 105 W/m 4,0 C 5,2 C 17,7 km/h (3 Bft) 100,00 %
15.05.2016 06:59 7,8 C 77 % 1014,1 hPa 0,0 l/m 8,2 km/h (2 Bft) SW 232 0 min 0,000 mm 0,0 UV-I 97 W/m 4,0 C 6,4 C 11,3 km/h (2 Bft) 96,55 %
15.05.2016 07:00 7,8 C 76 % 1014,1 hPa 0,0 l/m 14,3 km/h (3 Bft) W-SW 241 0 min 0,000 mm 0,0 UV-I 97 W/m 3,8 C 2,8 C 19,3 km/h (3 Bft) 95,83 %
15.05.2016 07:01 7,8 C 76 % 1014,2 hPa 0,0 l/m 14,8 km/h (3 Bft) W-SW 240 0 min 0,051 mm 0,0 UV-I 100 W/m 3,8 C 2,6 C 17,7 km/h (3 Bft) 92,86 %
15.05.2016 07:02 7,8 C 77 % 1014,2 hPa 0,0 l/m 10,9 km/h (2 Bft) W-SW 254 0 min 0,000 mm 0,0 UV-I 104 W/m 4,0 C 4,6 C 14,5 km/h (3 Bft) 96,67 %
15.05.2016 07:03 7,8 C 77 % 1014,2 hPa 0,0 l/m 13,3 km/h (3 Bft) SW 218 0 min 0,000 mm 0,0 UV-I 106 W/m 4,0 C 3,3 C 17,7 km/h (3 Bft) 100,00 %
15.05.2016 07:04 7,8 C 76 % 1014,2 hPa 0,0 l/m 12,0 km/h (2 Bft) W-SW 252 0 min 0,000 mm 0,0 UV-I 112 W/m 3,8 C 4,0 C 16,1 km/h (3 Bft) 96,30 %
15.05.2016 07:05 7,8 C 77 % 1014,2 hPa 0,0 l/m 12,0 km/h (2 Bft) SW 219 0 min 0,000 mm 0,0 UV-I 118 W/m 4,0 C 4,0 C 14,5 km/h (3 Bft) 98,86 %
15.05.2016 07:06 7,8 C 77 % 1014,2 hPa 0,0 l/m 7,3 km/h (2 Bft) W-SW 253 0 min 0,000 mm 0,0 UV-I 122 W/m 4,0 C 7,1 C 11,3 km/h (2 Bft) 97,37 %
15.05.2016 07:07 7,8 C 77 % 1014,2 hPa 0,0 l/m 7,2 km/h (2 Bft) SW 231 0 min 0,000 mm 0,0 UV-I 124 W/m 4,0 C 7,2 C 9,7 km/h (2 Bft) 100,00 %
15.05.2016 07:08 7,8 C 78 % 1014,2 hPa 0,0 l/m 10,0 km/h (2 Bft) W 274 0 min 0,000 mm 0,0 UV-I 120 W/m 4,2 C 5,2 C 14,5 km/h (3 Bft) 96,15 %
15.05.2016 07:09 7,8 C 77 % 1014,2 hPa 0,0 l/m 7,4 km/h (2 Bft) W-SW 246 0 min 0,000 mm 0,0 UV-I 120 W/m 4,0 C 7,0 C 12,9 km/h (3 Bft) 100,00 %
15.05.2016 07:10 7,8 C 77 % 1014,2 hPa 0,0 l/m 7,5 km/h (2 Bft) W 275 0 min 0,000 mm 0,0 UV-I 118 W/m 4,0 C 6,9 C 11,3 km/h (2 Bft) 95,83 %
15.05.2016 07:11 7,8 C 78 % 1014,2 hPa 0,0 l/m 9,0 km/h (2 Bft) W-NW 286 0 min 0,000 mm 0,0 UV-I 116 W/m 4,2 C 5,8 C 12,9 km/h (3 Bft) 96,55 %
15.05.2016 07:12 7,8 C 77 % 1014,2 hPa 0,0 l/m 8,6 km/h (2 Bft) W 264 0 min 0,000 mm 0,0 UV-I 116 W/m 4,0 C 6,1 C 14,5 km/h (3 Bft) 100,00 %
15.05.2016 07:13 7,8 C 77 % 1014,3 hPa 0,0 l/m 7,3 km/h (2 Bft) W-SW 241 0 min 0,000 mm 0,0 UV-I 116 W/m 4,0 C 7,1 C 11,3 km/h (2 Bft) 96,67 %
15.05.2016 07:14 7,8 C 77 % 1014,3 hPa 0,0 l/m 8,3 km/h (2 Bft) W-SW 240 0 min 0,000 mm 0,0 UV-I 119 W/m 4,0 C 6,3 C 12,9 km/h (3 Bft) 96,15 %
15.05.2016 07:15 7,9 C 78 % 1014,3 hPa 0,0 l/m 6,0 km/h (2 Bft) W 259 0 min 0,000 mm 0,0 UV-I 136 W/m 4,3 C 7,9 C 9,7 km/h (2 Bft) 96,30 %
15.05.2016 07:16 7,9 C 77 % 1014,4 hPa 0,0 l/m 10,1 km/h (2 Bft) W-SW 252 0 min 0,000 mm 0,0 UV-I 134 W/m 4,1 C 5,2 C 14,5 km/h (3 Bft) 95,65 %
15.05.2016 07:17 7,9 C 77 % 1014,4 hPa 0,0 l/m 11,7 km/h (2 Bft) W 276 0 min 0,000 mm 0,0 UV-I 135 W/m 4,1 C 4,3 C 19,3 km/h (3 Bft) 100,00 %
15.05.2016 07:18 7,9 C 77 % 1014,4 hPa 0,0 l/m 8,4 km/h (2 Bft) W-SW 252 0 min 0,000 mm 0,0 UV-I 135 W/m 4,1 C 6,4 C 11,3 km/h (2 Bft) 96,55 %
15.05.2016 07:19 7,9 C 77 % 1014,4 hPa 0,0 l/m 7,8 km/h (2 Bft) W 269 0 min 0,000 mm 0,0 UV-I 133 W/m 4,1 C 6,8 C 11,3 km/h (2 Bft) 100,00 %
15.05.2016 07:20 7,9 C 77 % 1014,4 hPa 0,0 l/m 11,9 km/h (2 Bft) W 262 0 min 0,000 mm 0,0 UV-I 132 W/m 4,1 C 4,2 C 16,1 km/h (3 Bft) 90,91 %
15.05.2016 07:21 7,9 C 77 % 1014,4 hPa 0,0 l/m 5,9 km/h (2 Bft) SW 236 0 min 0,000 mm 0,0 UV-I 138 W/m 4,1 C 7,9 C 9,7 km/h (2 Bft) 100,00 %
15.05.2016 07:22 7,9 C 77 % 1014,4 hPa 0,0 l/m 5,0 km/h (1 Bft) W-SW 244 0 min 0,000 mm 0,0 UV-I 135 W/m 4,1 C 7,9 C 6,4 km/h (2 Bft) 95,65 %
15.05.2016 07:23 7,9 C 77 % 1014,4 hPa 0,0 l/m 5,1 km/h (1 Bft) W-SW 252 0 min 0,000 mm 0,0 UV-I 132 W/m 4,1 C 7,9 C 6,4 km/h (2 Bft) 100,00 %
15.05.2016 07:24 7,9 C 78 % 1014,4 hPa 0,0 l/m 6,7 km/h (2 Bft) W 269 0 min 0,000 mm 0,0 UV-I 136 W/m 4,3 C 7,7 C 11,3 km/h (2 Bft) 96,15 %
15.05.2016 07:25 7,9 C 77 % 1014,5 hPa 0,0 l/m 9,1 km/h (2 Bft) W 267 0 min 0,000 mm 0,0 UV-I 137 W/m 4,1 C 5,9 C 11,3 km/h (2 Bft) 100,00 %
15.05.2016 07:26 7,9 C 76 % 1014,5 hPa 0,0 l/m 11,3 km/h (2 Bft) W-SW 247 0 min 0,000 mm 0,0 UV-I 138 W/m 3,9 C 4,5 C 17,7 km/h (3 Bft) 86,67 %
15.05.2016 07:27 8,0 C 76 % 1014,5 hPa 0,0 l/m 11,5 km/h (2 Bft) W-SW 256 0 min 0,000 mm 0,0 UV-I 139 W/m 4,0 C 4,5 C 16,1 km/h (3 Bft) 96,55 %
15.05.2016 07:28 7,9 C 76 % 1014,4 hPa 0,0 l/m 12,8 km/h (3 Bft) W-SW 258 0 min 0,000 mm 0,0 UV-I 142 W/m 3,9 C 3,7 C 19,3 km/h (3 Bft) 100,00 %
15.05.2016 07:29 7,9 C 76 % 1014,4 hPa 0,0 l/m 12,1 km/h (2 Bft) W 261 0 min 0,000 mm 0,0 UV-I 149 W/m 3,9 C 4,0 C 16,1 km/h (3 Bft) 96,30 %
15.05.2016 07:30 7,9 C 77 % 1014,4 hPa 0,0 l/m 10,6 km/h (2 Bft) W 268 0 min 0,000 mm 0,0 UV-I 156 W/m 4,1 C 4,9 C 17,7 km/h (3 Bft) 100,00 %
15.05.2016 07:31 7,9 C 75 % 1014,4 hPa 0,0 l/m 17,1 km/h (3 Bft) W-SW 238 0 min 0,000 mm 0,0 UV-I 172 W/m 3,7 C 1,7 C 20,9 km/h (4 Bft) 96,55 %
15.05.2016 07:32 7,9 C 75 % 1014,5 hPa 0,0 l/m 14,6 km/h (3 Bft) W-SW 248 1 min 0,000 mm 0,0 UV-I 192 W/m 3,7 C 2,8 C 17,7 km/h (3 Bft) 100,00 %
15.05.2016 07:33 7,9 C 75 % 1014,4 hPa 0,0 l/m 14,3 km/h (3 Bft) W 261 1 min 0,000 mm 0,0 UV-I 216 W/m 3,7 C 2,9 C 19,3 km/h (3 Bft) 91,30 %
15.05.2016 07:34 8,0 C 75 % 1014,5 hPa 0,0 l/m 13,4 km/h (3 Bft) W-SW 242 1 min 0,000 mm 0,0 UV-I 190 W/m 3,8 C 3,5 C 22,5 km/h (4 Bft) 100,00 %
15.05.2016 07:35 8,0 C 75 % 1014,5 hPa 0,0 l/m 17,1 km/h (3 Bft) SW 235 1 min 0,000 mm 0,0 UV-I 186 W/m 3,8 C 1,8 C 24,1 km/h (4 Bft) 95,65 %
15.05.2016 07:36 8,0 C 75 % 1014,5 hPa 0,0 l/m 22,3 km/h (4 Bft) W 269 0 min 0,000 mm 0,0 UV-I 185 W/m 3,8 C -0,1 C 25,7 km/h (4 Bft) 100,00 %
15.05.2016 07:37 8,0 C 74 % 1014,5 hPa 0,0 l/m 13,5 km/h (3 Bft) W-SW 246 0 min 0,000 mm 0,0 UV-I 186 W/m 3,7 C 3,4 C 20,9 km/h (4 Bft) 100,00 %
15.05.2016 07:38 8,0 C 75 % 1014,5 hPa 0,0 l/m 9,8 km/h (2 Bft) W-SW 255 1 min 0,000 mm 0,0 UV-I 206 W/m 3,8 C 5,5 C 14,5 km/h (3 Bft) 100,00 %
15.05.2016 07:39 8,0 C 75 % 1014,6 hPa 0,0 l/m 11,5 km/h (2 Bft) W-SW 253 1 min 0,000 mm 0,0 UV-I 213 W/m 3,8 C 4,5 C 14,5 km/h (3 Bft) 91,30 %
15.05.2016 07:40 8,1 C 75 % 1014,5 hPa 0,0 l/m 9,9 km/h (2 Bft) SW 236 1 min 0,000 mm 0,0 UV-I 286 W/m 3,9 C 5,6 C 14,5 km/h (3 Bft) 96,67 %
15.05.2016 07:41 8,1 C 75 % 1014,6 hPa 0,0 l/m 9,9 km/h (2 Bft) W 263 1 min 0,000 mm 0,5 UV-I 272 W/m 3,9 C 5,6 C 19,3 km/h (3 Bft) 100,00 %
15.05.2016 07:42 8,2 C 76 % 1014,6 hPa 0,0 l/m 7,1 km/h (2 Bft) W-SW 240 1 min 0,000 mm 0,5 UV-I 307 W/m 4,2 C 7,7 C 19,3 km/h (3 Bft) 100,00 %
15.05.2016 07:43 8,3 C 76 % 1014,6 hPa 0,0 l/m 7,7 km/h (2 Bft) W 269 1 min 0,000 mm 0,5 UV-I 314 W/m 4,3 C 7,3 C 9,7 km/h (2 Bft) 100,00 %
15.05.2016 07:44 8,3 C 75 % 1014,6 hPa 0,0 l/m 11,6 km/h (2 Bft) W 273 1 min 0,000 mm 0,5 UV-I 303 W/m 4,1 C 4,8 C 14,5 km/h (3 Bft) 96,30 %
15.05.2016 07:45 8,3 C 74 % 1014,6 hPa 0,0 l/m 10,7 km/h (2 Bft) W 277 1 min 0,000 mm 0,5 UV-I 309 W/m 3,9 C 5,3 C 19,3 km/h (3 Bft) 95,65 %
15.05.2016 07:46 8,4 C 74 % 1014,6 hPa 0,0 l/m 12,8 km/h (3 Bft) W-SW 249 1 min 0,000 mm 0,5 UV-I 268 W/m 4,0 C 4,3 C 22,5 km/h (4 Bft) 100,00 %
15.05.2016 07:47 8,4 C 73 % 1014,6 hPa 0,0 l/m 15,0 km/h (3 Bft) W-SW 252 1 min 0,000 mm 0,5 UV-I 267 W/m 3,8 C 3,2 C 24,1 km/h (4 Bft) 100,00 %
15.05.2016 07:48 8,3 C 73 % 1014,6 hPa 0,0 l/m 13,9 km/h (3 Bft) W-SW 255 1 min 0,000 mm 0,5 UV-I 292 W/m 3,8 C 3,6 C 17,7 km/h (3 Bft) 100,00 %
15.05.2016 07:49 8,4 C 74 % 1014,6 hPa 0,0 l/m 13,5 km/h (3 Bft) SW 221 1 min 0,000 mm 0,5 UV-I 285 W/m 4,0 C 3,9 C 20,9 km/h (4 Bft) 100,00 %
15.05.2016 07:50 8,3 C 73 % 1014,6 hPa 0,0 l/m 17,3 km/h (3 Bft) W-SW 246 1 min 0,000 mm 0,5 UV-I 230 W/m 3,8 C 2,1 C 22,5 km/h (4 Bft) 100,00 %
15.05.2016 07:51 8,3 C 73 % 1014,6 hPa 0,0 l/m 17,8 km/h (3 Bft) W 267 1 min 0,000 mm 0,5 UV-I 250 W/m 3,8 C 1,9 C 25,7 km/h (4 Bft) 100,00 %
15.05.2016 07:52 8,3 C 73 % 1014,6 hPa 0,0 l/m 16,3 km/h (3 Bft) W-SW 248 1 min 0,000 mm 0,5 UV-I 248 W/m 3,8 C 2,5 C 20,9 km/h (4 Bft) 95,65 %
15.05.2016 07:53 8,3 C 73 % 1014,6 hPa 0,0 l/m 8,4 km/h (2 Bft) W-NW 288 1 min 0,000 mm 0,5 UV-I 237 W/m 3,8 C 6,8 C 12,9 km/h (3 Bft) 100,00 %
15.05.2016 07:54 8,3 C 75 % 1014,7 hPa 0,0 l/m 8,5 km/h (2 Bft) SW 225 1 min 0,000 mm 0,6 UV-I 277 W/m 4,1 C 6,7 C 12,9 km/h (3 Bft) 100,00 %
15.05.2016 07:55 8,3 C 75 % 1014,7 hPa 0,0 l/m 9,8 km/h (2 Bft) SW 234 1 min 0,000 mm 0,6 UV-I 284 W/m 4,1 C 5,8 C 14,5 km/h (3 Bft) 100,00 %
15.05.2016 07:56 8,3 C 75 % 1014,7 hPa 0,0 l/m 10,4 km/h (2 Bft) W-SW 240 1 min 0,000 mm 0,6 UV-I 291 W/m 4,1 C 5,5 C 14,5 km/h (3 Bft) 100,00 %
15.05.2016 07:57 8,3 C 74 % 1014,7 hPa 0,0 l/m 13,5 km/h (3 Bft) W 274 1 min 0,000 mm 0,6 UV-I 295 W/m 3,9 C 3,8 C 22,5 km/h (4 Bft) 100,00 %
15.05.2016 07:58 8,3 C 74 % 1014,7 hPa 0,0 l/m 17,1 km/h (3 Bft) W-SW 244 1 min 0,000 mm 0,6 UV-I 293 W/m 3,9 C 2,2 C 24,1 km/h (4 Bft) 100,00 %
15.05.2016 07:59 8,3 C 73 % 1014,7 hPa 0,0 l/m 20,2 km/h (4 Bft) W 274 1 min 0,000 mm 0,6 UV-I 299 W/m 3,8 C 1,0 C 27,4 km/h (4 Bft) 100,00 %
15.05.2016 08:00 8,3 C 73 % 1014,7 hPa 0,0 l/m 18,0 km/h (3 Bft) W-SW 242 1 min 0,000 mm 0,6 UV-I 301 W/m 3,8 C 1,8 C 27,4 km/h (4 Bft) 100,00 %
15.05.2016 08:02 8,3 C 73 % 1014,7 hPa 0,0 l/m 15,9 km/h (3 Bft) W-SW 240 2 min 0,102 mm 0,6 UV-I 299 W/m 3,8 C 2,7 C 24,1 km/h (4 Bft) 100,00 %
15.05.2016 08:03 8,3 C 73 % 1014,9 hPa 0,0 l/m 15,8 km/h (3 Bft) W-SW 250 1 min 0,000 mm 0,7 UV-I 307 W/m 3,8 C 2,7 C 24,1 km/h (4 Bft) 100,00 %
15.05.2016 08:04 8,3 C 73 % 1014,7 hPa 0,0 l/m 9,5 km/h (2 Bft) W-SW 242 1 min 0,000 mm 0,7 UV-I 306 W/m 3,8 C 6,0 C 16,1 km/h (3 Bft) 100,00 %
15.05.2016 08:05 8,3 C 74 % 1014,7 hPa 0,0 l/m 9,5 km/h (2 Bft) SW 226 1 min 0,000 mm 0,7 UV-I 308 W/m 3,9 C 6,0 C 14,5 km/h (3 Bft) 100,00 %
15.05.2016 08:06 8,4 C 73 % 1014,8 hPa 0,0 l/m 10,9 km/h (2 Bft) W 266 1 min 0,000 mm 0,7 UV-I 311 W/m 3,8 C 5,3 C 20,9 km/h (4 Bft) 100,00 %
15.05.2016 08:07 8,4 C 74 % 1014,7 hPa 0,0 l/m 7,7 km/h (2 Bft) W-SW 258 1 min 0,000 mm 0,7 UV-I 316 W/m 4,0 C 7,4 C 12,9 km/h (3 Bft) 100,00 %
15.05.2016 08:08 8,4 C 73 % 1014,8 hPa 0,0 l/m 17,4 km/h (3 Bft) W 263 1 min 0,000 mm 0,7 UV-I 320 W/m 3,8 C 2,2 C 29,0 km/h (5 Bft) 96,55 %
15.05.2016 08:09 8,4 C 73 % 1014,8 hPa 0,0 l/m 10,2 km/h (2 Bft) W-SW 258 1 min 0,000 mm 0,7 UV-I 322 W/m 3,8 C 5,7 C 16,1 km/h (3 Bft) 100,00 %
15.05.2016 08:10 8,4 C 73 % 1014,7 hPa 0,0 l/m 8,3 km/h (2 Bft) W-SW 250 1 min 0,000 mm 0,7 UV-I 331 W/m 3,8 C 7,0 C 12,9 km/h (3 Bft) 100,00 %
15.05.2016 08:11 8,5 C 73 % 1014,7 hPa 0,0 l/m 8,0 km/h (2 Bft) W-SW 247 1 min 0,000 mm 0,7 UV-I 327 W/m 3,9 C 7,3 C 12,9 km/h (3 Bft) 100,00 %
15.05.2016 08:12 8,6 C 73 % 1014,8 hPa 0,0 l/m 8,1 km/h (2 Bft) S-SW 205 1 min 0,000 mm 0,8 UV-I 332 W/m 4,0 C 7,3 C 14,5 km/h (3 Bft) 93,33 %
15.05.2016 08:13 8,6 C 71 % 1014,8 hPa 0,0 l/m 12,6 km/h (3 Bft) W 265 1 min 0,000 mm 0,8 UV-I 330 W/m 3,6 C 4,6 C 19,3 km/h (3 Bft) 100,00 %
15.05.2016 08:14 8,6 C 72 % 1014,8 hPa 0,0 l/m 11,3 km/h (2 Bft) W-SW 253 1 min 0,000 mm 0,8 UV-I 336 W/m 3,8 C 5,3 C 14,5 km/h (3 Bft) 100,00 %
15.05.2016 08:15 8,5 C 72 % 1014,7 hPa 0,0 l/m 10,9 km/h (2 Bft) W 261 1 min 0,000 mm 0,8 UV-I 342 W/m 3,7 C 5,4 C 16,1 km/h (3 Bft) 100,00 %
15.05.2016 08:16 8,5 C 72 % 1014,8 hPa 0,0 l/m 12,6 km/h (3 Bft) W-NW 298 1 min 0,000 mm 0,8 UV-I 340 W/m 3,7 C 4,5 C 14,5 km/h (3 Bft) 100,00 %
15.05.2016 08:17 8,6 C 72 % 1014,8 hPa 0,0 l/m 12,4 km/h (3 Bft) W-NW 294 1 min 0,000 mm 0,8 UV-I 347 W/m 3,8 C 4,7 C 17,7 km/h (3 Bft) 100,00 %
15.05.2016 08:18 8,6 C 73 % 1014,7 hPa 0,0 l/m 18,9 km/h (3 Bft) W 268 1 min 0,000 mm 0,8 UV-I 352 W/m 4,0 C 1,9 C 32,2 km/h (5 Bft) 95,83 %
15.05.2016 08:19 8,6 C 72 % 1014,7 hPa 0,0 l/m 10,9 km/h (2 Bft) W 275 1 min 0,000 mm 0,8 UV-I 355 W/m 3,8 C 5,5 C 17,7 km/h (3 Bft) 100,00 %
15.05.2016 08:20 8,6 C 71 % 1014,7 hPa 0,0 l/m 18,3 km/h (3 Bft) W-SW 246 1 min 0,000 mm 0,9 UV-I 357 W/m 3,6 C 2,1 C 29,0 km/h (5 Bft) 93,33 %
15.05.2016 08:21 8,6 C 70 % 1014,7 hPa 0,0 l/m 16,9 km/h (3 Bft) W 265 1 min 0,000 mm 0,9 UV-I 359 W/m 3,4 C 2,6 C 22,5 km/h (4 Bft) 100,00 %
15.05.2016 08:22 8,6 C 71 % 1014,7 hPa 0,0 l/m 13,8 km/h (3 Bft) W-SW 256 1 min 0,000 mm 0,9 UV-I 367 W/m 3,6 C 4,0 C 19,3 km/h (3 Bft) 100,00 %
15.05.2016 08:23 8,6 C 71 % 1014,7 hPa 0,0 l/m 14,4 km/h (3 Bft) W-SW 240 1 min 0,000 mm 0,9 UV-I 367 W/m 3,6 C 3,7 C 20,9 km/h (4 Bft) 100,00 %
15.05.2016 08:24 8,6 C 71 % 1014,8 hPa 0,0 l/m 12,2 km/h (2 Bft) W 265 1 min 0,000 mm 0,9 UV-I 362 W/m 3,6 C 4,8 C 17,7 km/h (3 Bft) 100,00 %
15.05.2016 08:25 8,6 C 72 % 1014,8 hPa 0,0 l/m 12,7 km/h (3 Bft) W-SW 242 1 min 0,000 mm 0,9 UV-I 374 W/m 3,8 C 4,5 C 17,7 km/h (3 Bft) 100,00 %
15.05.2016 08:26 8,6 C 72 % 1014,7 hPa 0,0 l/m 19,4 km/h (3 Bft) W-SW 242 1 min 0,000 mm 0,9 UV-I 375 W/m 3,8 C 1,7 C 29,0 km/h (5 Bft) 100,00 %
15.05.2016 08:27 8,7 C 71 % 1014,8 hPa 0,0 l/m 17,2 km/h (3 Bft) W-NW 292 1 min 0,000 mm 0,9 UV-I 380 W/m 3,7 C 2,6 C 25,7 km/h (4 Bft) 100,00 %
15.05.2016 08:28 8,7 C 71 % 1014,8 hPa 0,0 l/m 11,9 km/h (2 Bft) SW 229 1 min 0,000 mm 0,9 UV-I 381 W/m 3,7 C 5,1 C 19,3 km/h (3 Bft) 100,00 %
15.05.2016 08:29 8,7 C 71 % 1014,8 hPa 0,0 l/m 10,2 km/h (2 Bft) W 263 1 min 0,000 mm 1,0 UV-I 383 W/m 3,7 C 6,0 C 14,5 km/h (3 Bft) 100,00 %
15.05.2016 08:30 8,7 C 72 % 1014,8 hPa 0,0 l/m 12,8 km/h (3 Bft) W-NW 285 1 min 0,000 mm 1,0 UV-I 394 W/m 3,9 C 4,6 C 17,7 km/h (3 Bft) 100,00 %
15.05.2016 08:31 8,7 C 72 % 1014,8 hPa 0,0 l/m 11,8 km/h (2 Bft) W-SW 244 1 min 0,000 mm 1,0 UV-I 397 W/m 3,9 C 5,1 C 22,5 km/h (4 Bft) 100,00 %
15.05.2016 08:32 8,7 C 70 % 1014,8 hPa 0,0 l/m 17,2 km/h (3 Bft) W-SW 245 1 min 0,000 mm 1,0 UV-I 398 W/m 3,5 C 2,6 C 25,7 km/h (4 Bft) 100,00 %
15.05.2016 08:33 8,7 C 70 % 1014,9 hPa 0,0 l/m 17,5 km/h (3 Bft) W 281 1 min 0,000 mm 1,0 UV-I 396 W/m 3,5 C 2,5 C 25,7 km/h (4 Bft) 100,00 %
15.05.2016 08:34 8,7 C 70 % 1014,8 hPa 0,0 l/m 12,3 km/h (3 Bft) W-SW 249 1 min 0,000 mm 1,0 UV-I 396 W/m 3,5 C 4,9 C 17,7 km/h (3 Bft) 100,00 %
15.05.2016 08:35 8,7 C 70 % 1014,9 hPa 0,0 l/m 18,6 km/h (3 Bft) W-SW 257 1 min 0,000 mm 1,0 UV-I 398 W/m 3,5 C 2,1 C 27,4 km/h (4 Bft) 100,00 %
15.05.2016 08:36 8,7 C 70 % 1014,9 hPa 0,0 l/m 16,5 km/h (3 Bft) W-SW 246 1 min 0,000 mm 1,1 UV-I 398 W/m 3,5 C 2,9 C 30,6 km/h (5 Bft) 100,00 %
15.05.2016 08:37 8,7 C 69 % 1014,9 hPa 0,0 l/m 17,2 km/h (3 Bft) W 273 1 min 0,000 mm 1,1 UV-I 402 W/m 3,3 C 2,6 C 27,4 km/h (4 Bft) 100,00 %
15.05.2016 08:38 8,7 C 70 % 1014,9 hPa 0,0 l/m 13,4 km/h (3 Bft) W 281 1 min 0,000 mm 0,7 UV-I 398 W/m 3,5 C 4,3 C 20,9 km/h (4 Bft) 100,00 %
15.05.2016 08:39 8,7 C 70 % 1014,9 hPa 0,0 l/m 11,5 km/h (2 Bft) W 263 1 min 0,000 mm 1,0 UV-I 399 W/m 3,5 C 5,3 C 19,3 km/h (3 Bft) 100,00 %
15.05.2016 08:40 8,7 C 70 % 1014,9 hPa 0,0 l/m 14,6 km/h (3 Bft) NW 312 1 min 0,000 mm 1,1 UV-I 397 W/m 3,5 C 3,7 C 19,3 km/h (3 Bft) 100,00 %
15.05.2016 08:41 8,7 C 72 % 1014,9 hPa 0,0 l/m 13,8 km/h (3 Bft) W 278 1 min 0,000 mm 1,1 UV-I 399 W/m 3,9 C 4,1 C 19,3 km/h (3 Bft) 100,00 %
15.05.2016 08:42 8,7 C 71 % 1015,0 hPa 0,0 l/m 16,2 km/h (3 Bft) W 271 1 min 0,000 mm 1,1 UV-I 399 W/m 3,7 C 3,0 C 22,5 km/h (4 Bft) 100,00 %
15.05.2016 08:43 8,7 C 70 % 1015,0 hPa 0,0 l/m 11,7 km/h (2 Bft) NW 311 1 min 0,000 mm 1,2 UV-I 399 W/m 3,5 C 5,2 C 16,1 km/h (3 Bft) 100,00 %
15.05.2016 08:44 8,7 C 70 % 1015,0 hPa 0,0 l/m 17,5 km/h (3 Bft) W-SW 245 1 min 0,000 mm 1,2 UV-I 399 W/m 3,5 C 2,5 C 27,4 km/h (4 Bft) 100,00 %
15.05.2016 08:45 8,7 C 70 % 1015,0 hPa 0,0 l/m 14,8 km/h (3 Bft) W 279 1 min 0,000 mm 1,2 UV-I 396 W/m 3,5 C 3,6 C 20,9 km/h (4 Bft) 100,00 %
15.05.2016 08:46 8,8 C 70 % 1015,0 hPa 0,0 l/m 11,5 km/h (2 Bft) W-SW 244 1 min 0,000 mm 1,2 UV-I 394 W/m 3,6 C 5,4 C 22,5 km/h (4 Bft) 100,00 %
15.05.2016 08:47 8,8 C 70 % 1015,0 hPa 0,0 l/m 9,2 km/h (2 Bft) W 281 1 min 0,000 mm 1,2 UV-I 393 W/m 3,6 C 6,8 C 16,1 km/h (3 Bft) 100,00 %
15.05.2016 08:48 8,8 C 70 % 1015,0 hPa 0,0 l/m 7,8 km/h (2 Bft) W-NW 284 1 min 0,000 mm 1,2 UV-I 391 W/m 3,6 C 7,7 C 14,5 km/h (3 Bft) 100,00 %
15.05.2016 08:49 8,8 C 69 % 1015,0 hPa 0,0 l/m 7,7 km/h (2 Bft) W-SW 255 1 min 0,000 mm 1,3 UV-I 388 W/m 3,4 C 7,8 C 16,1 km/h (3 Bft) 100,00 %
15.05.2016 08:50 8,9 C 70 % 1015,0 hPa 0,0 l/m 9,3 km/h (2 Bft) S-SW 204 1 min 0,000 mm 1,3 UV-I 390 W/m 3,7 C 6,8 C 12,9 km/h (3 Bft) 100,00 %
15.05.2016 08:51 8,9 C 71 % 1015,1 hPa 0,0 l/m 11,7 km/h (2 Bft) SW 221 1 min 0,000 mm 1,3 UV-I 391 W/m 3,9 C 5,4 C 20,9 km/h (4 Bft) 100,00 %
15.05.2016 08:52 9,0 C 69 % 1015,0 hPa 0,0 l/m 8,4 km/h (2 Bft) SW 222 1 min 0,000 mm 1,3 UV-I 388 W/m 3,6 C 7,5 C 14,5 km/h (3 Bft) 100,00 %
15.05.2016 08:53 9,1 C 69 % 1015,0 hPa 0,0 l/m 7,7 km/h (2 Bft) W 268 1 min 0,000 mm 1,3 UV-I 388 W/m 3,7 C 8,1 C 16,1 km/h (3 Bft) 100,00 %
15.05.2016 08:54 9,2 C 71 % 1015,0 hPa 0,0 l/m 12,1 km/h (2 Bft) W 259 1 min 0,000 mm 1,3 UV-I 387 W/m 4,2 C 5,5 C 17,7 km/h (3 Bft) 96,30 %
15.05.2016 08:55 9,2 C 70 % 1015,1 hPa 0,0 l/m 13,7 km/h (3 Bft) W-SW 251 1 min 0,000 mm 1,3 UV-I 387 W/m 4,0 C 4,8 C 19,3 km/h (3 Bft) 92,86 %
15.05.2016 08:56 9,2 C 68 % 1015,1 hPa 0,0 l/m 18,6 km/h (3 Bft) W 267 1 min 0,000 mm 1,3 UV-I 392 W/m 3,6 C 2,7 C 27,4 km/h (4 Bft) 100,00 %
15.05.2016 08:57 9,2 C 68 % 1015,2 hPa 0,0 l/m 15,9 km/h (3 Bft) W-SW 245 1 min 0,000 mm 1,4 UV-I 400 W/m 3,6 C 3,8 C 25,7 km/h (4 Bft) 96,15 %
15.05.2016 08:58 9,2 C 67 % 1015,1 hPa 0,0 l/m 15,0 km/h (3 Bft) W-SW 246 1 min 0,000 mm 1,4 UV-I 403 W/m 3,4 C 4,2 C 22,5 km/h (4 Bft) 100,00 %
15.05.2016 08:59 9,2 C 67 % 1015,2 hPa 0,0 l/m 7,4 km/h (2 Bft) S-SW 201 1 min 0,000 mm 1,4 UV-I 406 W/m 3,4 C 8,4 C 16,1 km/h (3 Bft) 95,65 %
15.05.2016 09:00 9,2 C 69 % 1015,1 hPa 0,0 l/m 10,8 km/h (2 Bft) SW 215 1 min 0,203 mm 1,4 UV-I 415 W/m 3,8 C 6,2 C 17,7 km/h (3 Bft) 100,00 %
15.05.2016 09:02 9,4 C 71 % 1015,1 hPa 0,0 l/m 10,9 km/h (2 Bft) N-NW 333 2 min 0,000 mm 1,4 UV-I 420 W/m 4,4 C 6,4 C 25,7 km/h (4 Bft) 94,64 %
15.05.2016 09:03 9,4 C 68 % 1015,2 hPa 0,0 l/m 9,2 km/h (2 Bft) W 269 1 min 0,000 mm 1,5 UV-I 438 W/m 3,8 C 7,4 C 16,1 km/h (3 Bft) 100,00 %
15.05.2016 09:04 9,4 C 67 % 1015,3 hPa 0,0 l/m 9,8 km/h (2 Bft) W-SW 250 1 min 0,000 mm 1,5 UV-I 451 W/m 3,6 C 7,1 C 14,5 km/h (3 Bft) 95,83 %
15.05.2016 09:05 9,4 C 67 % 1015,3 hPa 0,0 l/m 14,6 km/h (3 Bft) W 269 1 min 0,000 mm 1,5 UV-I 462 W/m 3,6 C 4,6 C 19,3 km/h (3 Bft) 100,00 %
15.05.2016 09:06 9,4 C 66 % 1015,2 hPa 0,0 l/m 19,2 km/h (3 Bft) W-SW 252 1 min 0,000 mm 1,5 UV-I 475 W/m 3,4 C 2,8 C 27,4 km/h (4 Bft) 96,30 %
15.05.2016 09:07 9,4 C 66 % 1015,2 hPa 0,0 l/m 11,9 km/h (2 Bft) SW 229 1 min 0,000 mm 1,5 UV-I 472 W/m 3,4 C 5,9 C 17,7 km/h (3 Bft) 100,00 %
15.05.2016 09:08 9,4 C 66 % 1015,2 hPa 0,0 l/m 15,0 km/h (3 Bft) W-SW 245 1 min 0,000 mm 1,5 UV-I 404 W/m 3,4 C 4,4 C 24,1 km/h (4 Bft) 92,31 %
15.05.2016 09:09 9,4 C 67 % 1015,2 hPa 0,0 l/m 15,4 km/h (3 Bft) SW 221 1 min 0,000 mm 1,5 UV-I 448 W/m 3,6 C 4,2 C 22,5 km/h (4 Bft) 100,00 %
15.05.2016 09:10 9,4 C 66 % 1015,2 hPa 0,0 l/m 11,7 km/h (2 Bft) W 268 1 min 0,000 mm 1,6 UV-I 448 W/m 3,4 C 6,0 C 17,7 km/h (3 Bft) 95,65 %
15.05.2016 09:11 9,3 C 66 % 1015,2 hPa 0,0 l/m 14,7 km/h (3 Bft) S 188 1 min 0,000 mm 1,6 UV-I 457 W/m 3,3 C 4,4 C 19,3 km/h (3 Bft) 96,55 %
15.05.2016 09:12 9,3 C 68 % 1015,3 hPa 0,0 l/m 10,5 km/h (2 Bft) W 261 1 min 0,000 mm 1,5 UV-I 443 W/m 3,7 C 6,5 C 14,5 km/h (3 Bft) 100,00 %
15.05.2016 09:13 9,4 C 67 % 1015,2 hPa 0,0 l/m 21,7 km/h (4 Bft) SW 235 1 min 0,000 mm 1,5 UV-I 468 W/m 3,6 C 2,0 C 30,6 km/h (5 Bft) 96,97 %
15.05.2016 09:14 9,4 C 66 % 1015,2 hPa 0,0 l/m 20,0 km/h (4 Bft) SW 227 1 min 0,000 mm 1,6 UV-I 490 W/m 3,4 C 2,5 C 29,0 km/h (5 Bft) 100,00 %
15.05.2016 09:15 9,4 C 65 % 1015,2 hPa 0,0 l/m 19,3 km/h (3 Bft) W-SW 250 1 min 0,000 mm 1,4 UV-I 490 W/m 3,2 C 2,7 C 27,4 km/h (4 Bft) 91,67 %
15.05.2016 09:16 9,4 C 65 % 1015,2 hPa 0,0 l/m 14,2 km/h (3 Bft) W-SW 250 1 min 0,000 mm 1,7 UV-I 499 W/m 3,2 C 4,8 C 22,5 km/h (4 Bft) 100,00 %
15.05.2016 09:17 9,4 C 65 % 1015,2 hPa 0,0 l/m 21,8 km/h (4 Bft) W-SW 252 1 min 0,000 mm 1,7 UV-I 521 W/m 3,2 C 1,9 C 30,6 km/h (5 Bft) 95,83 %
15.05.2016 09:18 9,3 C 65 % 1015,2 hPa 0,0 l/m 15,4 km/h (3 Bft) W-NW 286 1 min 0,000 mm 1,7 UV-I 533 W/m 3,1 C 4,1 C 19,3 km/h (3 Bft) 95,65 %
15.05.2016 09:19 9,3 C 65 % 1015,2 hPa 0,0 l/m 21,2 km/h (4 Bft) SW 217 1 min 0,000 mm 1,8 UV-I 551 W/m 3,1 C 2,0 C 27,4 km/h (4 Bft) 95,83 %
15.05.2016 09:20 9,3 C 65 % 1015,2 hPa 0,0 l/m 12,2 km/h (2 Bft) W 279 1 min 0,000 mm 1,8 UV-I 561 W/m 3,1 C 5,6 C 25,7 km/h (4 Bft) 92,31 %
15.05.2016 09:21 9,3 C 65 % 1015,2 hPa 0,0 l/m 9,6 km/h (2 Bft) SW 234 1 min 0,000 mm 1,7 UV-I 559 W/m 3,1 C 7,1 C 17,7 km/h (3 Bft) 100,00 %
15.05.2016 09:22 9,4 C 65 % 1015,2 hPa 0,0 l/m 9,5 km/h (2 Bft) SW 236 1 min 0,000 mm 1,7 UV-I 559 W/m 3,2 C 7,2 C 14,5 km/h (3 Bft) 95,65 %
15.05.2016 09:23 9,4 C 68 % 1015,2 hPa 0,0 l/m 13,5 km/h (3 Bft) W-SW 238 1 min 0,000 mm 1,8 UV-I 601 W/m 3,8 C 5,1 C 22,5 km/h (4 Bft) 100,00 %
15.05.2016 09:24 9,6 C 68 % 1015,2 hPa 0,0 l/m 13,4 km/h (3 Bft) SW 214 1 min 0,000 mm 1,8 UV-I 659 W/m 4,0 C 5,4 C 20,9 km/h (4 Bft) 92,31 %
15.05.2016 09:25 9,7 C 67 % 1015,2 hPa 0,0 l/m 16,9 km/h (3 Bft) SW 229 1 min 0,000 mm 1,5 UV-I 675 W/m 3,9 C 4,0 C 27,4 km/h (4 Bft) 96,30 %
15.05.2016 09:26 9,7 C 65 % 1015,3 hPa 0,0 l/m 11,8 km/h (2 Bft) W 263 0 min 0,000 mm 1,3 UV-I 334 W/m 3,4 C 6,3 C 16,1 km/h (3 Bft) 100,00 %
15.05.2016 09:27 9,6 C 65 % 1015,2 hPa 0,0 l/m 13,1 km/h (3 Bft) W-NW 284 0 min 0,000 mm 1,3 UV-I 314 W/m 3,4 C 5,5 C 17,7 km/h (3 Bft) 100,00 %
15.05.2016 09:28 9,6 C 65 % 1015,2 hPa 0,0 l/m 11,4 km/h (2 Bft) SW 236 0 min 0,000 mm 1,0 UV-I 276 W/m 3,4 C 6,4 C 19,3 km/h (3 Bft) 92,59 %
15.05.2016 09:29 9,4 C 65 % 1015,2 hPa 0,0 l/m 12,9 km/h (3 Bft) W-SW 240 0 min 0,000 mm 1,0 UV-I 257 W/m 3,2 C 5,4 C 20,9 km/h (4 Bft) 100,00 %
15.05.2016 09:30 9,4 C 67 % 1015,2 hPa 0,0 l/m 12,3 km/h (3 Bft) W 259 0 min 0,000 mm 1,1 UV-I 241 W/m 3,6 C 5,7 C 16,1 km/h (3 Bft) 100,00 %
15.05.2016 09:31 9,3 C 66 % 1015,3 hPa 0,0 l/m 12,6 km/h (3 Bft) W 267 0 min 0,000 mm 1,2 UV-I 243 W/m 3,3 C 5,4 C 25,7 km/h (4 Bft) 100,00 %
15.05.2016 09:32 9,3 C 66 % 1015,3 hPa 0,0 l/m 15,9 km/h (3 Bft) W 271 0 min 0,000 mm 1,3 UV-I 264 W/m 3,3 C 3,9 C 24,1 km/h (4 Bft) 100,00 %
15.05.2016 09:33 9,2 C 66 % 1015,3 hPa 0,0 l/m 22,3 km/h (4 Bft) W-SW 243 0 min 0,000 mm 1,3 UV-I 301 W/m 3,2 C 1,5 C 32,2 km/h (5 Bft) 96,15 %
15.05.2016 09:34 9,2 C 66 % 1015,4 hPa 0,0 l/m 13,6 km/h (3 Bft) W-NW 301 0 min 0,000 mm 1,4 UV-I 337 W/m 3,2 C 4,8 C 20,9 km/h (4 Bft) 100,00 %
15.05.2016 09:35 9,2 C 65 % 1015,3 hPa 0,0 l/m 12,2 km/h (2 Bft) W 260 1 min 0,000 mm 1,4 UV-I 353 W/m 3,0 C 5,5 C 20,9 km/h (4 Bft) 100,00 %
15.05.2016 09:36 9,2 C 66 % 1015,3 hPa 0,0 l/m 13,2 km/h (3 Bft) W-NW 285 1 min 0,000 mm 1,5 UV-I 574 W/m 3,2 C 5,0 C 19,3 km/h (3 Bft) 100,00 %
15.05.2016 09:37 9,2 C 65 % 1015,3 hPa 0,0 l/m 16,8 km/h (3 Bft) W 265 1 min 0,000 mm 1,2 UV-I 633 W/m 3,0 C 3,4 C 25,7 km/h (4 Bft) 96,88 %
15.05.2016 09:38 9,2 C 66 % 1015,4 hPa 0,0 l/m 14,4 km/h (3 Bft) W-SW 255 0 min 0,000 mm 1,2 UV-I 292 W/m 3,2 C 4,4 C 19,3 km/h (3 Bft) 100,00 %
15.05.2016 09:39 9,2 C 66 % 1015,4 hPa 0,0 l/m 13,6 km/h (3 Bft) W-SW 238 0 min 0,000 mm 1,2 UV-I 305 W/m 3,2 C 4,8 C 20,9 km/h (4 Bft) 100,00 %
15.05.2016 09:40 9,2 C 67 % 1015,4 hPa 0,0 l/m 11,1 km/h (2 Bft) W 262 1 min 0,000 mm 1,3 UV-I 366 W/m 3,4 C 6,1 C 14,5 km/h (3 Bft) 100,00 %
15.05.2016 09:41 9,2 C 66 % 1015,4 hPa 0,0 l/m 12,9 km/h (3 Bft) NW 321 1 min 0,000 mm 1,4 UV-I 420 W/m 3,2 C 5,1 C 20,9 km/h (4 Bft) 100,00 %
15.05.2016 09:42 9,2 C 66 % 1015,4 hPa 0,0 l/m 16,0 km/h (3 Bft) W 269 1 min 0,000 mm 1,5 UV-I 538 W/m 3,2 C 3,7 C 29,0 km/h (5 Bft) 100,00 %
15.05.2016 09:43 9,2 C 67 % 1015,4 hPa 0,0 l/m 16,7 km/h (3 Bft) W 267 1 min 0,000 mm 1,4 UV-I 518 W/m 3,4 C 3,5 C 29,0 km/h (5 Bft) 100,00 %
15.05.2016 09:44 9,2 C 66 % 1015,4 hPa 0,0 l/m 20,5 km/h (4 Bft) W 273 1 min 0,000 mm 1,1 UV-I 438 W/m 3,2 C 2,1 C 30,6 km/h (5 Bft) 100,00 %
15.05.2016 09:45 9,2 C 65 % 1015,4 hPa 0,0 l/m 19,3 km/h (3 Bft) W 281 1 min 0,000 mm 0,9 UV-I 366 W/m 3,0 C 2,5 C 25,7 km/h (4 Bft) 91,67 %
15.05.2016 09:46 9,1 C 65 % 1015,5 hPa 0,0 l/m 9,9 km/h (2 Bft) W-SW 244 0 min 0,000 mm 0,9 UV-I 234 W/m 2,9 C 6,7 C 14,5 km/h (3 Bft) 100,00 %
15.05.2016 09:47 9,1 C 66 % 1015,5 hPa 0,0 l/m 16,3 km/h (3 Bft) W-SW 240 0 min 0,000 mm 1,0 UV-I 244 W/m 3,1 C 3,5 C 20,9 km/h (4 Bft) 100,00 %
15.05.2016 09:48 9,1 C 66 % 1015,4 hPa 0,0 l/m 18,3 km/h (3 Bft) W 270 0 min 0,000 mm 1,0 UV-I 267 W/m 3,1 C 2,7 C 24,1 km/h (4 Bft) 100,00 %
15.05.2016 09:49 9,0 C 67 % 1015,4 hPa 0,0 l/m 14,6 km/h (3 Bft) W-SW 254 0 min 0,000 mm 0,9 UV-I 264 W/m 3,2 C 4,1 C 20,9 km/h (4 Bft) 96,15 %
15.05.2016 09:50 8,9 C 67 % 1015,4 hPa 0,0 l/m 13,2 km/h (3 Bft) W-SW 257 0 min 0,000 mm 0,7 UV-I 205 W/m 3,1 C 4,6 C 17,7 km/h (3 Bft) 100,00 %
15.05.2016 09:51 8,9 C 66 % 1015,4 hPa 0,0 l/m 15,1 km/h (3 Bft) W 264 0 min 0,000 mm 0,6 UV-I 163 W/m 2,9 C 3,8 C 19,3 km/h (3 Bft) 100,00 %
15.05.2016 09:52 8,8 C 67 % 1015,5 hPa 0,0 l/m 9,8 km/h (2 Bft) W-SW 252 0 min 0,000 mm 0,5 UV-I 124 W/m 3,0 C 6,4 C 16,1 km/h (3 Bft) 98,67 %
15.05.2016 09:53 8,8 C 68 % 1015,5 hPa 0,0 l/m 16,4 km/h (3 Bft) SW 229 0 min 0,000 mm 0,6 UV-I 126 W/m 3,2 C 3,1 C 22,5 km/h (4 Bft) 100,00 %
15.05.2016 09:54 8,8 C 68 % 1015,5 hPa 0,0 l/m 12,6 km/h (3 Bft) W 265 0 min 0,000 mm 0,7 UV-I 146 W/m 3,2 C 4,8 C 17,7 km/h (3 Bft) 100,00 %
15.05.2016 09:55 8,7 C 68 % 1015,5 hPa 0,0 l/m 13,0 km/h (3 Bft) W-SW 256 0 min 0,000 mm 0,7 UV-I 173 W/m 3,1 C 4,5 C 20,9 km/h (4 Bft) 100,00 %
15.05.2016 09:56 8,7 C 69 % 1015,5 hPa 0,0 l/m 14,4 km/h (3 Bft) W-SW 248 0 min 0,000 mm 0,8 UV-I 190 W/m 3,3 C 3,8 C 20,9 km/h (4 Bft) 100,00 %
15.05.2016 09:57 8,6 C 69 % 1015,5 hPa 0,0 l/m 10,2 km/h (2 Bft) W-SW 246 0 min 0,000 mm 0,8 UV-I 198 W/m 3,2 C 5,9 C 16,1 km/h (3 Bft) 100,00 %
15.05.2016 09:58 8,6 C 68 % 1015,5 hPa 0,0 l/m 16,5 km/h (3 Bft) W-SW 239 0 min 0,000 mm 0,9 UV-I 201 W/m 3,0 C 2,8 C 27,4 km/h (4 Bft) 100,00 %
15.05.2016 09:59 8,6 C 69 % 1015,4 hPa 0,0 l/m 10,5 km/h (2 Bft) SW 224 0 min 0,000 mm 0,9 UV-I 201 W/m 3,2 C 5,7 C 17,7 km/h (3 Bft) 100,00 %
15.05.2016 10:00 8,5 C 68 % 1015,5 hPa 0,0 l/m 15,8 km/h (3 Bft) W 263 0 min 0,203 mm 0,9 UV-I 199 W/m 2,9 C 3,0 C 20,9 km/h (4 Bft) 100,00 %
15.05.2016 10:01 8,5 C 68 % 1015,4 hPa 0,0 l/m 13,1 km/h (3 Bft) SW 230 0 min 0,000 mm 1,0 UV-I 210 W/m 2,9 C 4,2 C 22,5 km/h (4 Bft) 100,00 %
15.05.2016 10:02 8,5 C 69 % 1015,4 hPa 0,0 l/m 13,5 km/h (3 Bft) W-SW 244 0 min 0,000 mm 1,2 UV-I 242 W/m 3,1 C 4,0 C 20,9 km/h (4 Bft) 100,00 %
15.05.2016 10:03 8,5 C 69 % 1015,5 hPa 0,0 l/m 12,6 km/h (3 Bft) W 269 0 min 0,000 mm 1,3 UV-I 270 W/m 3,1 C 4,5 C 17,7 km/h (3 Bft) 100,00 %
15.05.2016 10:04 8,5 C 69 % 1015,5 hPa 0,0 l/m 14,1 km/h (3 Bft) W-SW 250 0 min 0,000 mm 1,3 UV-I 286 W/m 3,1 C 3,7 C 25,7 km/h (4 Bft) 100,00 %
15.05.2016 10:05 8,5 C 70 % 1015,4 hPa 0,0 l/m 7,4 km/h (2 Bft) W-NW 292 0 min 0,000 mm 1,3 UV-I 289 W/m 3,3 C 7,7 C 14,5 km/h (3 Bft) 100,00 %
15.05.2016 10:06 8,5 C 69 % 1015,4 hPa 0,0 l/m 7,6 km/h (2 Bft) W 266 0 min 0,000 mm 1,3 UV-I 285 W/m 3,1 C 7,6 C 14,5 km/h (3 Bft) 96,15 %
15.05.2016 10:07 8,6 C 69 % 1015,5 hPa 0,0 l/m 10,1 km/h (2 Bft) W 273 0 min 0,000 mm 1,3 UV-I 287 W/m 3,2 C 6,0 C 14,5 km/h (3 Bft) 100,00 %
15.05.2016 10:08 8,6 C 69 % 1015,4 hPa 0,0 l/m 11,2 km/h (2 Bft) W 259 0 min 0,000 mm 1,4 UV-I 291 W/m 3,2 C 5,3 C 16,1 km/h (3 Bft) 100,00 %
15.05.2016 10:09 8,6 C 71 % 1015,5 hPa 0,0 l/m 8,0 km/h (2 Bft) NW 309 0 min 0,000 mm 1,4 UV-I 304 W/m 3,6 C 7,4 C 17,7 km/h (3 Bft) 100,00 %
15.05.2016 10:10 8,6 C 71 % 1015,5 hPa 0,0 l/m 5,6 km/h (1 Bft) SW 234 0 min 0,000 mm 1,5 UV-I 319 W/m 3,6 C 8,6 C 11,3 km/h (2 Bft) 100,00 %
15.05.2016 10:11 8,7 C 71 % 1015,4 hPa 0,0 l/m 7,9 km/h (2 Bft) W-SW 241 0 min 0,000 mm 1,5 UV-I 333 W/m 3,7 C 7,6 C 16,1 km/h (3 Bft) 100,00 %
15.05.2016 10:12 8,8 C 70 % 1015,4 hPa 0,0 l/m 9,5 km/h (2 Bft) W 261 0 min 0,000 mm 1,6 UV-I 348 W/m 3,6 C 6,6 C 17,7 km/h (3 Bft) 96,30 %
15.05.2016 10:13 8,8 C 69 % 1015,5 hPa 0,0 l/m 10,5 km/h (2 Bft) SW 232 0 min 0,000 mm 1,7 UV-I 375 W/m 3,4 C 6,0 C 16,1 km/h (3 Bft) 96,55 %
15.05.2016 10:14 8,8 C 70 % 1015,4 hPa 0,0 l/m 10,0 km/h (2 Bft) SW 235 1 min 0,000 mm 1,7 UV-I 390 W/m 3,6 C 6,3 C 14,5 km/h (3 Bft) 91,67 %
15.05.2016 10:15 8,9 C 70 % 1015,4 hPa 0,0 l/m 10,2 km/h (2 Bft) W-NW 286 1 min 0,000 mm 1,7 UV-I 391 W/m 3,7 C 6,3 C 12,9 km/h (3 Bft) 100,00 %
15.05.2016 10:16 9,0 C 70 % 1015,4 hPa 0,0 l/m 11,2 km/h (2 Bft) W-NW 285 0 min 0,000 mm 1,7 UV-I 385 W/m 3,8 C 5,8 C 17,7 km/h (3 Bft) 96,30 %
15.05.2016 10:17 9,1 C 70 % 1015,4 hPa 0,0 l/m 12,6 km/h (3 Bft) W 265 0 min 0,000 mm 1,6 UV-I 373 W/m 3,9 C 5,2 C 17,7 km/h (3 Bft) 100,00 %
15.05.2016 10:18 9,1 C 70 % 1015,4 hPa 0,0 l/m 12,5 km/h (3 Bft) W 266 0 min 0,000 mm 1,5 UV-I 369 W/m 3,9 C 5,2 C 20,9 km/h (4 Bft) 100,00 %
15.05.2016 10:19 9,1 C 68 % 1015,4 hPa 0,0 l/m 16,2 km/h (3 Bft) W-SW 253 0 min 0,000 mm 1,5 UV-I 362 W/m 3,5 C 3,5 C 25,7 km/h (4 Bft) 100,00 %
15.05.2016 10:20 9,1 C 69 % 1015,4 hPa 0,0 l/m 18,6 km/h (3 Bft) W 267 0 min 0,000 mm 1,4 UV-I 321 W/m 3,7 C 2,6 C 24,1 km/h (4 Bft) 100,00 %
15.05.2016 10:21 9,1 C 68 % 1015,4 hPa 0,0 l/m 12,5 km/h (3 Bft) W 278 0 min 0,000 mm 1,4 UV-I 309 W/m 3,5 C 5,2 C 19,3 km/h (3 Bft) 100,00 %
15.05.2016 10:22 9,1 C 69 % 1015,4 hPa 0,0 l/m 13,3 km/h (3 Bft) W 264 0 min 0,000 mm 1,4 UV-I 304 W/m 3,7 C 4,8 C 19,3 km/h (3 Bft) 100,00 %
15.05.2016 10:23 9,1 C 68 % 1015,4 hPa 0,0 l/m 13,7 km/h (3 Bft) W-SW 243 0 min 0,000 mm 1,4 UV-I 307 W/m 3,5 C 4,6 C 29,0 km/h (5 Bft) 100,00 %
15.05.2016 10:24 9,1 C 68 % 1015,3 hPa 0,0 l/m 17,5 km/h (3 Bft) W 263 0 min 0,000 mm 1,5 UV-I 319 W/m 3,5 C 3,0 C 24,1 km/h (4 Bft) 100,00 %
15.05.2016 10:25 9,1 C 68 % 1015,4 hPa 0,0 l/m 21,8 km/h (4 Bft) W-SW 240 0 min 0,000 mm 1,6 UV-I 338 W/m 3,5 C 1,5 C 30,6 km/h (5 Bft) 96,15 %
15.05.2016 10:26 9,1 C 68 % 1015,4 hPa 0,0 l/m 16,0 km/h (3 Bft) S-SW 212 0 min 0,000 mm 1,6 UV-I 354 W/m 3,5 C 3,6 C 22,5 km/h (4 Bft) 100,00 %
15.05.2016 10:27 9,1 C 67 % 1015,4 hPa 0,0 l/m 22,3 km/h (4 Bft) W-SW 258 0 min 0,000 mm 1,7 UV-I 358 W/m 3,3 C 1,4 C 27,4 km/h (4 Bft) 100,00 %
15.05.2016 10:28 9,1 C 66 % 1015,4 hPa 0,0 l/m 15,9 km/h (3 Bft) W 269 0 min 0,000 mm 1,7 UV-I 357 W/m 3,1 C 3,7 C 25,7 km/h (4 Bft) 100,00 %
15.05.2016 10:29 9,0 C 65 % 1015,6 hPa 0,0 l/m 18,7 km/h (3 Bft) W 268 0 min 0,000 mm 1,8 UV-I 364 W/m 2,8 C 2,5 C 24,1 km/h (4 Bft) 100,00 %
15.05.2016 10:30 9,0 C 66 % 1015,5 hPa 0,0 l/m 25,7 km/h (4 Bft) W-SW 245 0 min 0,000 mm 1,8 UV-I 377 W/m 3,0 C 0,3 C 35,4 km/h (5 Bft) 100,00 %
15.05.2016 10:31 9,0 C 65 % 1015,4 hPa 0,2 l/m 22,7 km/h (4 Bft) W-NW 296 0 min 0,000 mm 1,8 UV-I 375 W/m 2,8 C 1,1 C 32,2 km/h (5 Bft) 100,00 %
15.05.2016 10:32 8,9 C 65 % 1015,5 hPa 0,0 l/m 20,9 km/h (4 Bft) W-SW 246 0 min 0,000 mm 1,8 UV-I 369 W/m 2,7 C 1,6 C 30,6 km/h (5 Bft) 100,00 %
15.05.2016 10:33 8,9 C 65 % 1015,5 hPa 0,0 l/m 20,7 km/h (4 Bft) W 280 0 min 0,000 mm 1,8 UV-I 362 W/m 2,7 C 1,6 C 27,4 km/h (4 Bft) 100,00 %
15.05.2016 10:34 8,9 C 65 % 1015,5 hPa 0,0 l/m 9,9 km/h (2 Bft) W-SW 254 0 min 0,000 mm 1,8 UV-I 349 W/m 2,7 C 6,4 C 16,1 km/h (3 Bft) 100,00 %
15.05.2016 10:35 8,9 C 68 % 1015,5 hPa 0,0 l/m 8,2 km/h (2 Bft) N 355 0 min 0,000 mm 1,8 UV-I 331 W/m 3,3 C 7,6 C 14,5 km/h (3 Bft) 100,00 %
15.05.2016 10:36 9,0 C 68 % 1015,4 hPa 0,0 l/m 15,5 km/h (3 Bft) W-SW 246 0 min 0,000 mm 1,8 UV-I 323 W/m 3,4 C 3,7 C 24,1 km/h (4 Bft) 100,00 %
15.05.2016 10:37 9,0 C 67 % 1015,5 hPa 0,0 l/m 12,5 km/h (3 Bft) W 263 0 min 0,000 mm 2,0 UV-I 339 W/m 3,2 C 5,1 C 22,5 km/h (4 Bft) 100,00 %
15.05.2016 10:38 9,1 C 66 % 1015,5 hPa 0,0 l/m 20,9 km/h (4 Bft) W 273 0 min 0,000 mm 2,1 UV-I 400 W/m 3,1 C 1,8 C 27,4 km/h (4 Bft) 100,00 %
15.05.2016 10:39 9,1 C 66 % 1015,5 hPa 0,0 l/m 17,4 km/h (3 Bft) W 260 1 min 0,000 mm 2,4 UV-I 458 W/m 3,1 C 3,1 C 22,5 km/h (4 Bft) 100,00 %
15.05.2016 10:40 9,1 C 67 % 1015,4 hPa 0,0 l/m 10,2 km/h (2 Bft) W 269 0 min 0,000 mm 2,4 UV-I 401 W/m 3,3 C 6,5 C 22,5 km/h (4 Bft) 100,00 %
15.05.2016 10:41 9,1 C 68 % 1015,5 hPa 0,0 l/m 12,6 km/h (3 Bft) W-SW 251 0 min 0,000 mm 2,4 UV-I 370 W/m 3,5 C 5,2 C 17,7 km/h (3 Bft) 100,00 %
15.05.2016 10:42 9,2 C 67 % 1015,5 hPa 0,0 l/m 14,8 km/h (3 Bft) W-SW 244 0 min 0,000 mm 3,0 UV-I 390 W/m 3,4 C 4,3 C 19,3 km/h (3 Bft) 100,00 %
15.05.2016 10:43 9,3 C 66 % 1015,5 hPa 0,0 l/m 15,4 km/h (3 Bft) W-SW 257 1 min 0,000 mm 3,2 UV-I 446 W/m 3,3 C 4,1 C 22,5 km/h (4 Bft) 100,00 %
15.05.2016 10:44 9,3 C 66 % 1015,5 hPa 0,0 l/m 15,5 km/h (3 Bft) W-SW 249 1 min 0,000 mm 3,2 UV-I 784 W/m 3,3 C 4,1 C 19,3 km/h (3 Bft) 100,00 %
15.05.2016 10:45 9,4 C 66 % 1015,4 hPa 0,0 l/m 12,1 km/h (2 Bft) W 274 1 min 0,000 mm 3,3 UV-I 806 W/m 3,4 C 5,8 C 17,7 km/h (3 Bft) 100,00 %
15.05.2016 10:46 9,6 C 64 % 1015,5 hPa 0,0 l/m 18,2 km/h (3 Bft) W-NW 294 1 min 0,000 mm 3,2 UV-I 742 W/m 3,1 C 3,4 C 25,7 km/h (4 Bft) 95,65 %
15.05.2016 10:47 9,7 C 67 % 1015,5 hPa 0,0 l/m 9,3 km/h (2 Bft) W 278 1 min 0,000 mm 3,3 UV-I 779 W/m 3,9 C 7,7 C 16,1 km/h (3 Bft) 100,00 %
15.05.2016 10:48 9,7 C 65 % 1015,4 hPa 0,0 l/m 17,8 km/h (3 Bft) W-NW 290 1 min 0,000 mm 3,3 UV-I 792 W/m 3,4 C 3,7 C 25,7 km/h (4 Bft) 91,67 %
15.05.2016 10:49 9,8 C 65 % 1015,4 hPa 0,0 l/m 15,9 km/h (3 Bft) SW 234 1 min 0,000 mm 3,3 UV-I 775 W/m 3,5 C 4,5 C 20,9 km/h (4 Bft) 100,00 %
15.05.2016 10:50 9,9 C 65 % 1015,4 hPa 0,0 l/m 14,3 km/h (3 Bft) SW 223 1 min 0,000 mm 3,3 UV-I 781 W/m 3,6 C 5,3 C 19,3 km/h (3 Bft) 97,62 %
15.05.2016 10:51 9,9 C 64 % 1015,4 hPa 0,0 l/m 16,4 km/h (3 Bft) W-SW 244 1 min 0,000 mm 3,3 UV-I 790 W/m 3,4 C 4,4 C 22,5 km/h (4 Bft) 100,00 %
15.05.2016 10:52 9,9 C 64 % 1015,4 hPa 0,0 l/m 9,0 km/h (2 Bft) SW 223 1 min 0,000 mm 3,5 UV-I 802 W/m 3,4 C 8,1 C 14,5 km/h (3 Bft) 98,76 %
15.05.2016 10:53 10,1 C 66 % 1015,4 hPa 0,0 l/m 13,8 km/h (3 Bft) W-SW 248 1 min 0,000 mm 3,5 UV-I 815 W/m 4,0 C 5,8 C 24,1 km/h (4 Bft) 97,56 %
15.05.2016 10:54 10,2 C 65 % 1015,4 hPa 0,0 l/m 20,6 km/h (4 Bft) W-SW 254 1 min 0,000 mm 3,2 UV-I 805 W/m 3,9 C 3,4 C 29,0 km/h (5 Bft) 96,30 %
15.05.2016 10:55 10,2 C 64 % 1015,4 hPa 0,0 l/m 19,0 km/h (3 Bft) W-SW 248 1 min 0,000 mm 3,3 UV-I 792 W/m 3,7 C 3,9 C 29,0 km/h (5 Bft) 100,00 %
15.05.2016 10:56 10,3 C 64 % 1015,3 hPa 0,0 l/m 18,7 km/h (3 Bft) W-NW 295 1 min 0,000 mm 3,5 UV-I 838 W/m 3,8 C 4,1 C 29,0 km/h (5 Bft) 96,30 %
15.05.2016 10:57 10,4 C 65 % 1015,4 hPa 0,0 l/m 10,3 km/h (2 Bft) SW 234 1 min 0,000 mm 3,4 UV-I 844 W/m 4,1 C 7,9 C 16,1 km/h (3 Bft) 95,65 %
15.05.2016 10:58 10,4 C 63 % 1015,3 hPa 0,0 l/m 9,3 km/h (2 Bft) W 277 1 min 0,000 mm 3,4 UV-I 843 W/m 3,7 C 8,4 C 16,1 km/h (3 Bft) 100,00 %
15.05.2016 10:59 10,5 C 66 % 1015,4 hPa 0,0 l/m 14,1 km/h (3 Bft) SW 232 1 min 0,000 mm 3,6 UV-I 835 W/m 4,4 C 6,1 C 22,5 km/h (4 Bft) 95,65 %
15.05.2016 11:00 10,6 C 64 % 1015,3 hPa 0,0 l/m 16,8 km/h (3 Bft) W-NW 292 1 min 0,254 mm 3,6 UV-I 856 W/m 4,1 C 5,2 C 24,1 km/h (4 Bft) 95,83 %
15.05.2016 11:01 10,7 C 62 % 1015,4 hPa 0,0 l/m 22,9 km/h (4 Bft) W-SW 246 1 min 0,000 mm 3,6 UV-I 871 W/m 3,7 C 3,3 C 32,2 km/h (5 Bft) 91,67 %
15.05.2016 11:02 10,7 C 60 % 1015,3 hPa 0,0 l/m 17,8 km/h (3 Bft) W-SW 250 1 min 0,000 mm 3,6 UV-I 874 W/m 3,3 C 4,9 C 35,4 km/h (5 Bft) 100,00 %
15.05.2016 11:03 10,7 C 60 % 1015,3 hPa 0,0 l/m 22,3 km/h (4 Bft) W 276 1 min 0,000 mm 3,6 UV-I 856 W/m 3,3 C 3,5 C 35,4 km/h (5 Bft) 96,55 %
15.05.2016 11:04 10,8 C 60 % 1015,3 hPa 0,0 l/m 19,6 km/h (3 Bft) W 267 1 min 0,000 mm 3,7 UV-I 881 W/m 3,4 C 4,4 C 25,7 km/h (4 Bft) 88,89 %
15.05.2016 11:05 10,8 C 58 % 1015,3 hPa 0,0 l/m 13,4 km/h (3 Bft) W-SW 238 1 min 0,000 mm 3,7 UV-I 903 W/m 2,9 C 6,8 C 24,1 km/h (4 Bft) 100,00 %
15.05.2016 11:06 10,8 C 59 % 1015,3 hPa 0,0 l/m 17,8 km/h (3 Bft) W 262 1 min 0,000 mm 3,7 UV-I 896 W/m 3,1 C 5,0 C 24,1 km/h (4 Bft) 96,30 %
15.05.2016 11:07 10,9 C 61 % 1015,2 hPa 0,0 l/m 19,3 km/h (3 Bft) W-SW 240 1 min 0,000 mm 3,7 UV-I 904 W/m 3,7 C 4,7 C 24,1 km/h (4 Bft) 100,00 %
15.05.2016 11:08 10,9 C 60 % 1015,3 hPa 0,0 l/m 23,8 km/h (4 Bft) W-SW 246 1 min 0,000 mm 3,7 UV-I 911 W/m 3,4 C 3,4 C 30,6 km/h (5 Bft) 93,33 %
15.05.2016 11:09 11,0 C 57 % 1015,3 hPa 0,0 l/m 16,7 km/h (3 Bft) W-SW 252 1 min 0,000 mm 3,8 UV-I 911 W/m 2,8 C 5,7 C 20,9 km/h (4 Bft) 100,00 %
15.05.2016 11:10 11,0 C 58 % 1015,3 hPa 0,0 l/m 19,8 km/h (3 Bft) W-SW 243 1 min 0,000 mm 3,2 UV-I 911 W/m 3,1 C 4,6 C 27,4 km/h (4 Bft) 96,15 %
15.05.2016 11:11 11,1 C 57 % 1015,3 hPa 0,0 l/m 26,4 km/h (4 Bft) SW 235 1 min 0,000 mm 2,7 UV-I 911 W/m 2,9 C 3,0 C 37,0 km/h (5 Bft) 100,00 %
15.05.2016 11:12 11,0 C 56 % 1015,3 hPa 0,0 l/m 19,9 km/h (4 Bft) SW 236 1 min 0,000 mm 2,6 UV-I 901 W/m 2,6 C 4,6 C 27,4 km/h (4 Bft) 92,31 %
15.05.2016 11:13 10,9 C 55 % 1015,2 hPa 0,0 l/m 23,4 km/h (4 Bft) W-NW 290 1 min 0,000 mm 3,7 UV-I 715 W/m 2,2 C 3,5 C 29,0 km/h (5 Bft) 96,30 %
15.05.2016 11:14 10,9 C 55 % 1015,3 hPa 0,0 l/m 15,3 km/h (3 Bft) W-SW 251 1 min 0,000 mm 3,6 UV-I 715 W/m 2,2 C 6,1 C 24,1 km/h (4 Bft) 100,00 %
15.05.2016 11:15 11,0 C 56 % 1015,3 hPa 0,0 l/m 22,6 km/h (4 Bft) W-SW 248 1 min 0,000 mm 3,5 UV-I 715 W/m 2,6 C 3,8 C 33,8 km/h (5 Bft) 95,83 %
15.05.2016 11:16 11,1 C 56 % 1015,3 hPa 0,0 l/m 19,1 km/h (3 Bft) W-SW 257 1 min 0,000 mm 3,5 UV-I 715 W/m 2,7 C 5,0 C 24,1 km/h (4 Bft) 94,12 %
15.05.2016 11:17 11,2 C 57 % 1015,2 hPa 0,0 l/m 15,5 km/h (3 Bft) W 266 1 min 0,000 mm 3,6 UV-I 907 W/m 3,0 C 6,4 C 29,0 km/h (5 Bft) 100,00 %
15.05.2016 11:18 11,2 C 57 % 1015,3 hPa 0,0 l/m 15,9 km/h (3 Bft) W 267 1 min 0,000 mm 3,9 UV-I 946 W/m 3,0 C 6,2 C 20,9 km/h (4 Bft) 100,00 %
15.05.2016 11:19 11,2 C 56 % 1015,3 hPa 0,0 l/m 19,6 km/h (3 Bft) W 267 1 min 0,000 mm 4,0 UV-I 979 W/m 2,8 C 5,0 C 24,1 km/h (4 Bft) 100,00 %
15.05.2016 11:20 11,3 C 57 % 1015,3 hPa 0,0 l/m 16,5 km/h (3 Bft) W 268 1 min 0,000 mm 3,6 UV-I 979 W/m 3,1 C 6,1 C 24,1 km/h (4 Bft) 100,00 %
15.05.2016 11:21 11,3 C 57 % 1015,3 hPa 0,0 l/m 13,8 km/h (3 Bft) W-SW 250 1 min 0,000 mm 3,2 UV-I 979 W/m 3,1 C 7,2 C 22,5 km/h (4 Bft) 100,00 %
15.05.2016 11:22 11,3 C 57 % 1015,3 hPa 0,0 l/m 17,5 km/h (3 Bft) W-SW 254 1 min 0,000 mm 3,0 UV-I 979 W/m 3,1 C 5,8 C 27,4 km/h (4 Bft) 100,00 %
15.05.2016 11:23 11,2 C 55 % 1015,3 hPa 0,0 l/m 18,9 km/h (3 Bft) W 270 0 min 0,000 mm 2,0 UV-I 370 W/m 2,5 C 5,2 C 24,1 km/h (4 Bft) 100,00 %
15.05.2016 11:24 11,0 C 55 % 1015,3 hPa 0,0 l/m 9,6 km/h (2 Bft) W 274 0 min 0,000 mm 1,5 UV-I 278 W/m 2,3 C 8,9 C 17,7 km/h (3 Bft) 83,33 %
15.05.2016 11:25 10,8 C 56 % 1015,3 hPa 0,0 l/m 13,8 km/h (3 Bft) W 264 0 min 0,000 mm 1,3 UV-I 239 W/m 2,4 C 6,6 C 22,5 km/h (4 Bft) 96,88 %
15.05.2016 11:26 10,7 C 58 % 1015,3 hPa 0,0 l/m 14,5 km/h (3 Bft) W-SW 242 0 min 0,000 mm 1,1 UV-I 212 W/m 2,8 C 6,2 C 19,3 km/h (3 Bft) 100,00 %
15.05.2016 11:27 10,6 C 59 % 1015,3 hPa 0,0 l/m 11,8 km/h (2 Bft) S-SW 195 0 min 0,000 mm 0,9 UV-I 185 W/m 2,9 C 7,3 C 14,5 km/h (3 Bft) 100,00 %
15.05.2016 11:28 10,5 C 59 % 1015,3 hPa 0,0 l/m 15,0 km/h (3 Bft) W-SW 255 0 min 0,000 mm 0,8 UV-I 162 W/m 2,8 C 5,7 C 19,3 km/h (3 Bft) 100,00 %
15.05.2016 11:29 10,4 C 61 % 1015,4 hPa 0,0 l/m 15,8 km/h (3 Bft) W-SW 251 0 min 0,000 mm 0,7 UV-I 150 W/m 3,2 C 5,3 C 22,5 km/h (4 Bft) 100,00 %
15.05.2016 11:30 10,3 C 59 % 1015,4 hPa 0,0 l/m 19,1 km/h (3 Bft) W-SW 254 0 min 0,000 mm 0,8 UV-I 164 W/m 2,6 C 4,0 C 25,7 km/h (4 Bft) 98,66 %
15.05.2016 11:31 10,2 C 58 % 1015,4 hPa 0,0 l/m 17,1 km/h (3 Bft) W-NW 290 0 min 0,000 mm 1,2 UV-I 214 W/m 2,3 C 4,5 C 22,5 km/h (4 Bft) 100,00 %
15.05.2016 11:32 10,2 C 58 % 1015,4 hPa 0,0 l/m 18,3 km/h (3 Bft) NW 308 0 min 0,000 mm 1,4 UV-I 248 W/m 2,3 C 4,1 C 24,1 km/h (4 Bft) 100,00 %
15.05.2016 11:33 10,1 C 60 % 1015,4 hPa 0,0 l/m 15,5 km/h (3 Bft) W-SW 250 0 min 0,000 mm 1,6 UV-I 273 W/m 2,7 C 5,0 C 20,9 km/h (4 Bft) 100,00 %
15.05.2016 11:34 10,1 C 60 % 1015,4 hPa 0,0 l/m 14,0 km/h (3 Bft) W 262 0 min 0,000 mm 1,8 UV-I 305 W/m 2,7 C 5,7 C 19,3 km/h (3 Bft) 100,00 %
15.05.2016 11:35 10,1 C 60 % 1015,4 hPa 0,0 l/m 13,5 km/h (3 Bft) W 265 0 min 0,000 mm 1,9 UV-I 339 W/m 2,7 C 5,9 C 20,9 km/h (4 Bft) 100,00 %
15.05.2016 11:36 10,1 C 61 % 1015,4 hPa 0,0 l/m 13,3 km/h (3 Bft) W 264 0 min 0,000 mm 1,9 UV-I 365 W/m 2,9 C 6,0 C 22,5 km/h (4 Bft) 100,00 %
15.05.2016 11:37 10,2 C 61 % 1015,4 hPa 0,0 l/m 6,8 km/h (2 Bft) W-SW 248 0 min 0,000 mm 1,9 UV-I 370 W/m 3,0 C 9,9 C 9,7 km/h (2 Bft) 100,00 %
15.05.2016 11:38 10,2 C 60 % 1015,5 hPa 0,0 l/m 16,2 km/h (3 Bft) W 261 0 min 0,000 mm 1,9 UV-I 352 W/m 2,8 C 4,9 C 22,5 km/h (4 Bft) 94,44 %
15.05.2016 11:39 10,2 C 60 % 1015,4 hPa 0,0 l/m 22,3 km/h (4 Bft) W 260 0 min 0,000 mm 1,9 UV-I 362 W/m 2,8 C 2,8 C 32,2 km/h (5 Bft) 100,00 %
15.05.2016 11:40 10,2 C 58 % 1015,4 hPa 0,0 l/m 25,0 km/h (4 Bft) W-SW 253 0 min 0,000 mm 1,8 UV-I 336 W/m 2,3 C 2,1 C 33,8 km/h (5 Bft) 100,00 %
15.05.2016 11:41 10,2 C 58 % 1015,4 hPa 0,0 l/m 16,0 km/h (3 Bft) W-NW 293 0 min 0,000 mm 1,9 UV-I 336 W/m 2,3 C 5,0 C 27,4 km/h (4 Bft) 100,00 %
15.05.2016 11:42 10,2 C 59 % 1015,4 hPa 0,0 l/m 13,0 km/h (3 Bft) W-SW 238 0 min 0,000 mm 2,0 UV-I 345 W/m 2,6 C 6,3 C 19,3 km/h (3 Bft) 100,00 %
15.05.2016 11:43 10,2 C 59 % 1015,4 hPa 0,0 l/m 20,4 km/h (4 Bft) W 267 0 min 0,000 mm 2,0 UV-I 352 W/m 2,6 C 3,4 C 29,0 km/h (5 Bft) 100,00 %
15.05.2016 11:44 10,2 C 58 % 1015,5 hPa 0,0 l/m 12,6 km/h (3 Bft) W-SW 244 0 min 0,000 mm 2,0 UV-I 341 W/m 2,3 C 6,5 C 22,5 km/h (4 Bft) 100,00 %
15.05.2016 11:45 10,2 C 58 % 1015,5 hPa 0,0 l/m 14,7 km/h (3 Bft) W 269 0 min 0,000 mm 1,8 UV-I 316 W/m 2,3 C 5,5 C 20,9 km/h (4 Bft) 100,00 %
15.05.2016 11:46 10,2 C 58 % 1015,5 hPa 0,0 l/m 9,8 km/h (2 Bft) W-NW 296 0 min 0,000 mm 1,6 UV-I 289 W/m 2,3 C 7,9 C 17,7 km/h (3 Bft) 100,00 %
15.05.2016 11:47 10,2 C 58 % 1015,5 hPa 0,0 l/m 19,8 km/h (3 Bft) W-SW 255 0 min 0,000 mm 1,6 UV-I 285 W/m 2,3 C 3,6 C 27,4 km/h (4 Bft) 100,00 %
15.05.2016 11:48 10,2 C 58 % 1015,4 hPa 0,0 l/m 15,1 km/h (3 Bft) W-SW 257 0 min 0,000 mm 1,5 UV-I 253 W/m 2,3 C 5,3 C 19,3 km/h (3 Bft) 100,00 %
15.05.2016 11:49 10,1 C 58 % 1015,5 hPa 0,0 l/m 17,9 km/h (3 Bft) W-SW 244 0 min 0,000 mm 1,5 UV-I 253 W/m 2,2 C 4,1 C 22,5 km/h (4 Bft) 100,00 %
15.05.2016 11:50 10,1 C 58 % 1015,5 hPa 0,0 l/m 20,4 km/h (4 Bft) W-SW 250 0 min 0,000 mm 1,7 UV-I 268 W/m 2,2 C 3,3 C 30,6 km/h (5 Bft) 100,00 %
15.05.2016 11:51 10,1 C 57 % 1015,5 hPa 0,0 l/m 14,3 km/h (3 Bft) W 259 0 min 0,000 mm 2,1 UV-I 317 W/m 2,0 C 5,6 C 20,9 km/h (4 Bft) 100,00 %
15.05.2016 11:52 10,1 C 60 % 1015,5 hPa 0,0 l/m 11,9 km/h (2 Bft) W-SW 249 0 min 0,000 mm 2,6 UV-I 420 W/m 2,7 C 6,7 C 22,5 km/h (4 Bft) 100,00 %
15.05.2016 11:53 10,1 C 60 % 1015,5 hPa 0,0 l/m 10,8 km/h (2 Bft) W 259 1 min 0,000 mm 3,9 UV-I 596 W/m 2,7 C 7,3 C 16,1 km/h (3 Bft) 100,00 %
15.05.2016 11:54 10,3 C 61 % 1015,5 hPa 0,0 l/m 8,5 km/h (2 Bft) W-SW 248 1 min 0,000 mm 4,3 UV-I 1004 W/m 3,1 C 8,8 C 14,5 km/h (3 Bft) 100,00 %
15.05.2016 11:55 10,5 C 61 % 1015,5 hPa 0,0 l/m 15,3 km/h (3 Bft) SW 227 1 min 0,000 mm 4,4 UV-I 1020 W/m 3,3 C 5,6 C 20,9 km/h (4 Bft) 100,00 %
15.05.2016 11:56 10,8 C 62 % 1015,5 hPa 0,0 l/m 17,8 km/h (3 Bft) W-SW 237 1 min 0,000 mm 3,3 UV-I 1022 W/m 3,8 C 5,0 C 25,7 km/h (4 Bft) 100,00 %
15.05.2016 11:57 11,0 C 60 % 1015,5 hPa 0,0 l/m 22,0 km/h (4 Bft) W 263 1 min 0,000 mm 3,8 UV-I 1015 W/m 3,5 C 4,0 C 29,0 km/h (5 Bft) 100,00 %
15.05.2016 11:58 11,1 C 59 % 1015,5 hPa 0,0 l/m 24,8 km/h (4 Bft) W-SW 256 1 min 0,000 mm 4,4 UV-I 1065 W/m 3,4 C 3,4 C 35,4 km/h (5 Bft) 100,00 %
15.05.2016 11:59 11,2 C 57 % 1015,4 hPa 0,0 l/m 23,4 km/h (4 Bft) SW 218 1 min 0,000 mm 3,8 UV-I 1090 W/m 3,0 C 3,9 C 30,6 km/h (5 Bft) 100,00 %
15.05.2016 12:00 11,2 C 60 % 1015,4 hPa 0,0 l/m 17,4 km/h (3 Bft) W-SW 256 1 min 0,330 mm 3,4 UV-I 1090 W/m 3,7 C 5,7 C 20,9 km/h (4 Bft) 100,00 %
15.05.2016 12:01 11,3 C 56 % 1015,5 hPa 0,0 l/m 21,5 km/h (4 Bft) W-SW 242 1 min 0,000 mm 2,7 UV-I 741 W/m 2,8 C 4,5 C 33,8 km/h (5 Bft) 100,00 %
15.05.2016 12:02 11,2 C 54 % 1015,5 hPa 0,0 l/m 22,9 km/h (4 Bft) W-SW 241 0 min 0,000 mm 2,5 UV-I 425 W/m 2,2 C 4,0 C 35,4 km/h (5 Bft) 100,00 %
15.05.2016 12:03 11,1 C 55 % 1015,5 hPa 0,0 l/m 15,1 km/h (3 Bft) W-NW 299 0 min 0,000 mm 2,3 UV-I 399 W/m 2,4 C 6,4 C 24,1 km/h (4 Bft) 96,30 %
15.05.2016 12:04 11,0 C 56 % 1015,6 hPa 0,0 l/m 19,2 km/h (3 Bft) SW 229 0 min 0,000 mm 2,3 UV-I 394 W/m 2,6 C 4,8 C 24,1 km/h (4 Bft) 100,00 %
15.05.2016 12:05 10,9 C 56 % 1015,6 hPa 0,0 l/m 13,9 km/h (3 Bft) S 181 0 min 0,000 mm 2,2 UV-I 397 W/m 2,5 C 6,7 C 20,9 km/h (4 Bft) 100,00 %
15.05.2016 12:06 10,8 C 56 % 1015,6 hPa 0,0 l/m 13,5 km/h (3 Bft) W-SW 258 0 min 0,000 mm 2,2 UV-I 394 W/m 2,4 C 6,7 C 17,7 km/h (3 Bft) 100,00 %
15.05.2016 12:07 10,7 C 55 % 1015,6 hPa 0,0 l/m 15,3 km/h (3 Bft) SW 236 0 min 0,000 mm 2,2 UV-I 395 W/m 2,0 C 5,9 C 25,7 km/h (4 Bft) 100,00 %
15.05.2016 12:08 10,7 C 56 % 1015,6 hPa 0,0 l/m 16,0 km/h (3 Bft) SW 227 0 min 0,000 mm 2,2 UV-I 463 W/m 2,3 C 5,6 C 22,5 km/h (4 Bft) 100,00 %
15.05.2016 12:09 10,7 C 54 % 1015,6 hPa 0,0 l/m 22,2 km/h (4 Bft) SW 234 0 min 0,000 mm 2,1 UV-I 415 W/m 1,8 C 3,5 C 30,6 km/h (5 Bft) 100,00 %
15.05.2016 12:10 10,6 C 54 % 1015,6 hPa 0,0 l/m 16,7 km/h (3 Bft) W-SW 258 0 min 0,000 mm 2,0 UV-I 392 W/m 1,7 C 5,2 C 20,9 km/h (4 Bft) 100,00 %
15.05.2016 12:11 10,6 C 55 % 1015,7 hPa 0,0 l/m 13,8 km/h (3 Bft) W-SW 244 0 min 0,000 mm 1,9 UV-I 346 W/m 1,9 C 6,4 C 20,9 km/h (4 Bft) 100,00 %
15.05.2016 12:12 10,4 C 54 % 1015,6 hPa 0,0 l/m 15,6 km/h (3 Bft) NW 309 0 min 0,000 mm 1,8 UV-I 320 W/m 1,5 C 5,4 C 19,3 km/h (3 Bft) 100,00 %
15.05.2016 12:13 10,4 C 56 % 1015,6 hPa 0,0 l/m 14,5 km/h (3 Bft) W-SW 254 0 min 0,000 mm 1,7 UV-I 301 W/m 2,0 C 5,8 C 25,7 km/h (4 Bft) 100,00 %
15.05.2016 12:14 10,3 C 54 % 1015,7 hPa 0,0 l/m 15,6 km/h (3 Bft) W-SW 255 0 min 0,000 mm 1,6 UV-I 295 W/m 1,4 C 5,3 C 27,4 km/h (4 Bft) 100,00 %
15.05.2016 12:15 10,3 C 55 % 1015,7 hPa 0,0 l/m 14,4 km/h (3 Bft) W-SW 240 0 min 0,000 mm 1,7 UV-I 295 W/m 1,7 C 5,8 C 20,9 km/h (4 Bft) 100,00 %
15.05.2016 12:16 10,2 C 55 % 1015,7 hPa 0,0 l/m 13,0 km/h (3 Bft) W 259 0 min 0,000 mm 1,8 UV-I 299 W/m 1,6 C 6,3 C 22,5 km/h (4 Bft) 100,00 %
15.05.2016 12:17 10,2 C 54 % 1015,7 hPa 0,0 l/m 12,5 km/h (3 Bft) W-NW 296 0 min 0,000 mm 1,8 UV-I 300 W/m 1,3 C 6,5 C 19,3 km/h (3 Bft) 100,00 %
15.05.2016 12:18 10,2 C 55 % 1015,6 hPa 0,0 l/m 10,4 km/h (2 Bft) W-SW 257 0 min 0,000 mm 1,8 UV-I 297 W/m 1,6 C 7,6 C 14,5 km/h (3 Bft) 100,00 %
15.05.2016 12:19 10,1 C 56 % 1015,7 hPa 0,0 l/m 12,5 km/h (3 Bft) W-NW 299 0 min 0,000 mm 1,8 UV-I 297 W/m 1,7 C 6,4 C 19,3 km/h (3 Bft) 100,00 %
15.05.2016 12:20 10,1 C 57 % 1015,6 hPa 0,0 l/m 16,0 km/h (3 Bft) W 264 0 min 0,000 mm 1,8 UV-I 297 W/m 2,0 C 4,8 C 22,5 km/h (4 Bft) 100,00 %
15.05.2016 12:21 10,2 C 58 % 1015,6 hPa 0,0 l/m 8,7 km/h (2 Bft) SW 233 0 min 0,000 mm 1,9 UV-I 297 W/m 2,3 C 8,6 C 14,5 km/h (3 Bft) 100,00 %
15.05.2016 12:22 10,2 C 58 % 1015,6 hPa 0,0 l/m 20,0 km/h (4 Bft) W 279 0 min 0,000 mm 1,8 UV-I 295 W/m 2,3 C 3,5 C 29,0 km/h (5 Bft) 100,00 %
15.05.2016 12:23 10,2 C 56 % 1015,6 hPa 0,0 l/m 20,8 km/h (4 Bft) W-SW 242 0 min 0,000 mm 1,8 UV-I 287 W/m 1,8 C 3,3 C 37,0 km/h (5 Bft) 96,15 %
15.05.2016 12:24 10,1 C 56 % 1015,6 hPa 0,0 l/m 15,1 km/h (3 Bft) W-SW 255 0 min 0,000 mm 1,7 UV-I 286 W/m 1,7 C 5,2 C 27,4 km/h (4 Bft) 100,00 %
15.05.2016 12:25 10,1 C 58 % 1015,7 hPa 0,0 l/m 18,7 km/h (3 Bft) W 280 0 min 0,000 mm 1,7 UV-I 291 W/m 2,2 C 3,9 C 27,4 km/h (4 Bft) 100,00 %
15.05.2016 12:26 10,1 C 57 % 1015,7 hPa 0,0 l/m 11,0 km/h (2 Bft) NW 319 0 min 0,000 mm 1,9 UV-I 306 W/m 2,0 C 7,1 C 24,1 km/h (4 Bft) 96,88 %
15.05.2016 12:27 10,1 C 57 % 1015,7 hPa 0,0 l/m 13,2 km/h (3 Bft) W-SW 242 0 min 0,000 mm 2,0 UV-I 321 W/m 2,0 C 6,0 C 19,3 km/h (3 Bft) 100,00 %
15.05.2016 12:28 10,1 C 58 % 1015,8 hPa 0,0 l/m 16,7 km/h (3 Bft) W-SW 247 0 min 0,000 mm 2,1 UV-I 339 W/m 2,2 C 4,6 C 24,1 km/h (4 Bft) 100,00 %
15.05.2016 12:29 10,1 C 59 % 1015,8 hPa 0,0 l/m 13,1 km/h (3 Bft) SW 218 0 min 0,000 mm 2,2 UV-I 356 W/m 2,5 C 6,1 C 32,2 km/h (5 Bft) 100,00 %
15.05.2016 12:30 10,1 C 58 % 1015,8 hPa 0,0 l/m 20,1 km/h (4 Bft) W 274 0 min 0,000 mm 2,2 UV-I 386 W/m 2,2 C 3,4 C 29,0 km/h (5 Bft) 100,00 %
15.05.2016 12:31 10,2 C 57 % 1015,9 hPa 0,0 l/m 16,9 km/h (3 Bft) SW 233 0 min 0,000 mm 2,2 UV-I 396 W/m 2,1 C 4,6 C 29,0 km/h (5 Bft) 100,00 %
15.05.2016 12:32 10,2 C 58 % 1015,7 hPa 0,0 l/m 11,7 km/h (2 Bft) W 263 0 min 0,000 mm 2,1 UV-I 385 W/m 2,3 C 6,9 C 19,3 km/h (3 Bft) 100,00 %
15.05.2016 12:33 10,2 C 58 % 1015,7 hPa 0,0 l/m 14,2 km/h (3 Bft) SW 223 0 min 0,000 mm 2,0 UV-I 354 W/m 2,3 C 5,7 C 22,5 km/h (4 Bft) 100,00 %
15.05.2016 12:34 10,2 C 58 % 1015,7 hPa 0,0 l/m 12,0 km/h (2 Bft) W 272 0 min 0,000 mm 1,9 UV-I 332 W/m 2,3 C 6,7 C 16,1 km/h (3 Bft) 96,15 %
15.05.2016 12:35 10,2 C 58 % 1015,7 hPa 0,0 l/m 10,5 km/h (2 Bft) W-SW 250 0 min 0,000 mm 1,8 UV-I 313 W/m 2,3 C 7,5 C 16,1 km/h (3 Bft) 100,00 %
15.05.2016 12:36 10,2 C 57 % 1015,7 hPa 0,0 l/m 8,4 km/h (2 Bft) SW 236 0 min 0,000 mm 1,7 UV-I 300 W/m 2,1 C 8,8 C 14,5 km/h (3 Bft) 92,86 %
15.05.2016 12:37 10,2 C 59 % 1015,8 hPa 0,0 l/m 18,9 km/h (3 Bft) W-SW 248 0 min 0,000 mm 1,6 UV-I 289 W/m 2,6 C 3,9 C 25,7 km/h (4 Bft) 100,00 %
15.05.2016 12:38 10,2 C 58 % 1015,7 hPa 0,0 l/m 14,7 km/h (3 Bft) W 271 0 min 0,000 mm 1,5 UV-I 271 W/m 2,3 C 5,5 C 17,7 km/h (3 Bft) 93,33 %
15.05.2016 12:39 10,2 C 59 % 1015,8 hPa 0,0 l/m 13,4 km/h (3 Bft) W-NW 293 0 min 0,000 mm 1,5 UV-I 272 W/m 2,6 C 6,1 C 17,7 km/h (3 Bft) 100,00 %
15.05.2016 12:40 10,2 C 58 % 1015,8 hPa 0,0 l/m 9,3 km/h (2 Bft) SW 234 0 min 0,000 mm 1,4 UV-I 259 W/m 2,3 C 8,2 C 16,1 km/h (3 Bft) 96,15 %
15.05.2016 12:41 10,2 C 62 % 1015,8 hPa 0,0 l/m 6,9 km/h (2 Bft) W-SW 249 0 min 0,000 mm 1,3 UV-I 239 W/m 3,3 C 9,8 C 12,9 km/h (3 Bft) 96,30 %
15.05.2016 12:42 10,2 C 59 % 1015,8 hPa 0,0 l/m 8,0 km/h (2 Bft) W 279 0 min 0,000 mm 1,4 UV-I 247 W/m 2,6 C 9,1 C 14,5 km/h (3 Bft) 100,00 %
15.05.2016 12:43 10,2 C 60 % 1015,8 hPa 0,0 l/m 3,1 km/h (1 Bft) W-NW 283 0 min 0,000 mm 1,7 UV-I 299 W/m 2,8 C 10,2 C 4,8 km/h (1 Bft) 96,55 %
15.05.2016 12:44 10,2 C 58 % 1015,8 hPa 0,0 l/m 7,3 km/h (2 Bft) NW 323 0 min 0,000 mm 1,9 UV-I 330 W/m 2,3 C 9,6 C 14,5 km/h (3 Bft) 100,00 %
15.05.2016 12:45 10,1 C 57 % 1015,8 hPa 0,0 l/m 9,5 km/h (2 Bft) SW 232 0 min 0,000 mm 2,0 UV-I 346 W/m 2,0 C 8,0 C 16,1 km/h (3 Bft) 96,67 %
15.05.2016 12:46 10,1 C 58 % 1015,8 hPa 0,0 l/m 10,5 km/h (2 Bft) W-NW 300 0 min 0,000 mm 2,0 UV-I 358 W/m 2,2 C 7,4 C 16,1 km/h (3 Bft) 100,00 %
15.05.2016 12:47 10,1 C 57 % 1015,8 hPa 0,0 l/m 8,9 km/h (2 Bft) W 268 0 min 0,000 mm 2,2 UV-I 376 W/m 2,0 C 8,4 C 12,9 km/h (3 Bft) 92,31 %
15.05.2016 12:48 10,1 C 57 % 1015,8 hPa 0,0 l/m 11,2 km/h (2 Bft) NW 315 0 min 0,000 mm 2,6 UV-I 399 W/m 2,0 C 7,0 C 20,9 km/h (4 Bft) 96,67 %
15.05.2016 12:49 10,1 C 55 % 1015,8 hPa 0,0 l/m 19,1 km/h (3 Bft) W 265 0 min 0,000 mm 3,4 UV-I 399 W/m 1,5 C 3,7 C 30,6 km/h (5 Bft) 100,00 %
15.05.2016 12:50 10,2 C 58 % 1015,7 hPa 0,0 l/m 12,5 km/h (3 Bft) O-SO 106 0 min 0,000 mm 4,0 UV-I 399 W/m 2,3 C 6,5 C 20,9 km/h (4 Bft) 100,00 %
15.05.2016 12:51 10,3 C 56 % 1015,7 hPa 0,0 l/m 8,5 km/h (2 Bft) W 267 0 min 0,000 mm 3,2 UV-I 399 W/m 1,9 C 8,8 C 14,5 km/h (3 Bft) 97,56 %
15.05.2016 12:52 10,3 C 56 % 1015,7 hPa 0,0 l/m 5,1 km/h (1 Bft) W-SW 257 0 min 0,000 mm 3,0 UV-I 440 W/m 1,9 C 10,3 C 14,5 km/h (3 Bft) 91,67 %
15.05.2016 12:53 10,4 C 56 % 1015,8 hPa 0,0 l/m 12,5 km/h (3 Bft) W-SW 254 1 min 0,000 mm 2,9 UV-I 534 W/m 2,0 C 6,7 C 19,3 km/h (3 Bft) 100,00 %
15.05.2016 12:54 10,4 C 56 % 1015,7 hPa 0,0 l/m 4,9 km/h (1 Bft) W-SW 242 0 min 0,000 mm 2,9 UV-I 447 W/m 2,0 C 10,4 C 8,0 km/h (2 Bft) 95,83 %
15.05.2016 12:55 10,4 C 58 % 1015,8 hPa 0,0 l/m 11,3 km/h (2 Bft) W 272 0 min 0,000 mm 2,6 UV-I 385 W/m 2,5 C 7,3 C 22,5 km/h (4 Bft) 100,00 %
15.05.2016 12:56 10,4 C 56 % 1015,7 hPa 0,0 l/m 14,7 km/h (3 Bft) SW 227 0 min 0,000 mm 3,0 UV-I 440 W/m 2,0 C 5,7 C 27,4 km/h (4 Bft) 96,67 %
15.05.2016 12:57 10,4 C 55 % 1015,7 hPa 0,0 l/m 10,8 km/h (2 Bft) NW 325 0 min 0,000 mm 2,5 UV-I 370 W/m 1,8 C 7,6 C 27,4 km/h (4 Bft) 91,30 %
15.05.2016 12:58 10,3 C 56 % 1015,8 hPa 0,0 l/m 13,0 km/h (3 Bft) W-NW 292 0 min 0,000 mm 2,6 UV-I 405 W/m 1,9 C 6,4 C 22,5 km/h (4 Bft) 100,00 %
15.05.2016 12:59 10,3 C 54 % 1015,7 hPa 0,0 l/m 9,1 km/h (2 Bft) W-NW 303 0 min 0,000 mm 2,4 UV-I 396 W/m 1,4 C 8,5 C 19,3 km/h (3 Bft) 95,00 %
15.05.2016 13:00 10,2 C 54 % 1015,7 hPa 0,0 l/m 8,9 km/h (2 Bft) W-NW 290 0 min 0,000 mm 2,3 UV-I 361 W/m 1,3 C 8,5 C 20,9 km/h (4 Bft) 100,00 %
15.05.2016 13:02 10,2 C 56 % 1015,8 hPa 0,0 l/m 8,5 km/h (2 Bft) S-SW 197 0 min 0,229 mm 2,2 UV-I 335 W/m 1,8 C 8,7 C 20,9 km/h (4 Bft) 98,00 %
15.05.2016 13:03 10,1 C 57 % 1015,8 hPa 0,0 l/m 4,6 km/h (1 Bft) W-SW 239 0 min 0,000 mm 2,2 UV-I 334 W/m 2,0 C 10,1 C 6,4 km/h (2 Bft) 95,83 %
15.05.2016 13:04 10,1 C 57 % 1015,8 hPa 0,0 l/m 11,0 km/h (2 Bft) W 273 0 min 0,000 mm 2,2 UV-I 348 W/m 2,0 C 7,1 C 17,7 km/h (3 Bft) 96,15 %
15.05.2016 13:05 10,1 C 56 % 1015,9 hPa 0,0 l/m 9,3 km/h (2 Bft) W-SW 246 0 min 0,000 mm 2,2 UV-I 360 W/m 1,7 C 8,1 C 14,5 km/h (3 Bft) 100,00 %
15.05.2016 13:06 10,1 C 57 % 1015,8 hPa 0,0 l/m 13,6 km/h (3 Bft) SW 225 0 min 0,000 mm 2,3 UV-I 371 W/m 2,0 C 5,9 C 20,9 km/h (4 Bft) 100,00 %
15.05.2016 13:07 10,1 C 57 % 1015,8 hPa 0,0 l/m 13,0 km/h (3 Bft) W-NW 290 0 min 0,000 mm 2,3 UV-I 373 W/m 2,0 C 6,1 C 19,3 km/h (3 Bft) 100,00 %
15.05.2016 13:08 10,1 C 57 % 1015,9 hPa 0,0 l/m 9,7 km/h (2 Bft) W-SW 248 0 min 0,000 mm 2,4 UV-I 376 W/m 2,0 C 7,9 C 20,9 km/h (4 Bft) 100,00 %
15.05.2016 13:09 10,1 C 55 % 1015,8 hPa 0,0 l/m 11,0 km/h (2 Bft) N-NW 330 0 min 0,000 mm 2,5 UV-I 420 W/m 1,5 C 7,1 C 22,5 km/h (4 Bft) 100,00 %
15.05.2016 13:10 10,2 C 56 % 1015,8 hPa 0,0 l/m 7,2 km/h (2 Bft) SW 234 0 min 0,000 mm 2,3 UV-I 395 W/m 1,8 C 9,6 C 14,5 km/h (3 Bft) 100,00 %
15.05.2016 13:11 10,2 C 56 % 1015,8 hPa 0,0 l/m 12,1 km/h (2 Bft) W-SW 258 0 min 0,000 mm 2,2 UV-I 384 W/m 1,8 C 6,7 C 16,1 km/h (3 Bft) 100,00 %
15.05.2016 13:12 10,2 C 57 % 1015,8 hPa 0,0 l/m 13,7 km/h (3 Bft) W-SW 247 0 min 0,000 mm 2,2 UV-I 387 W/m 2,1 C 5,9 C 19,3 km/h (3 Bft) 95,65 %
15.05.2016 13:13 10,2 C 56 % 1015,8 hPa 0,0 l/m 15,8 km/h (3 Bft) W 271 0 min 0,000 mm 2,2 UV-I 387 W/m 1,8 C 5,1 C 24,1 km/h (4 Bft) 100,00 %
15.05.2016 13:14 10,3 C 55 % 1015,8 hPa 0,0 l/m 13,8 km/h (3 Bft) W-SW 243 0 min 0,000 mm 2,2 UV-I 372 W/m 1,7 C 6,0 C 19,3 km/h (3 Bft) 100,00 %
15.05.2016 13:15 10,3 C 56 % 1015,8 hPa 0,0 l/m 13,9 km/h (3 Bft) W 261 0 min 0,000 mm 2,1 UV-I 357 W/m 1,9 C 6,0 C 20,9 km/h (4 Bft) 100,00 %
15.05.2016 13:16 10,3 C 57 % 1015,8 hPa 0,0 l/m 9,7 km/h (2 Bft) W-SW 240 0 min 0,000 mm 1,9 UV-I 335 W/m 2,2 C 8,1 C 14,5 km/h (3 Bft) 100,00 %
15.05.2016 13:17 10,3 C 58 % 1015,9 hPa 0,0 l/m 10,3 km/h (2 Bft) NW 321 0 min 0,000 mm 1,7 UV-I 297 W/m 2,4 C 7,8 C 16,1 km/h (3 Bft) 98,73 %
15.05.2016 13:18 10,3 C 58 % 1015,8 hPa 0,0 l/m 13,8 km/h (3 Bft) W-NW 284 0 min 0,000 mm 1,7 UV-I 294 W/m 2,4 C 6,0 C 25,7 km/h (4 Bft) 100,00 %
15.05.2016 13:19 10,3 C 56 % 1015,8 hPa 0,0 l/m 11,9 km/h (2 Bft) SW 219 0 min 0,000 mm 1,9 UV-I 314 W/m 1,9 C 6,9 C 20,9 km/h (4 Bft) 100,00 %
15.05.2016 13:20 10,3 C 56 % 1015,8 hPa 0,0 l/m 11,0 km/h (2 Bft) W-SW 257 0 min 0,000 mm 2,0 UV-I 336 W/m 1,9 C 7,4 C 24,1 km/h (4 Bft) 93,33 %
15.05.2016 13:21 10,3 C 56 % 1015,8 hPa 0,0 l/m 14,2 km/h (3 Bft) SW 229 0 min 0,000 mm 2,1 UV-I 348 W/m 1,9 C 5,8 C 22,5 km/h (4 Bft) 100,00 %
15.05.2016 13:22 10,3 C 55 % 1015,8 hPa 0,0 l/m 15,4 km/h (3 Bft) W 264 0 min 0,000 mm 2,0 UV-I 331 W/m 1,7 C 5,3 C 20,9 km/h (4 Bft) 98,73 %
15.05.2016 13:23 10,3 C 57 % 1015,8 hPa 0,0 l/m 13,7 km/h (3 Bft) SW 224 0 min 0,000 mm 1,8 UV-I 308 W/m 2,2 C 6,1 C 19,3 km/h (3 Bft) 100,00 %
15.05.2016 13:24 10,3 C 58 % 1015,8 hPa 0,0 l/m 7,6 km/h (2 Bft) W-SW 244 0 min 0,000 mm 1,7 UV-I 292 W/m 2,4 C 9,4 C 14,5 km/h (3 Bft) 96,15 %
15.05.2016 13:25 10,3 C 58 % 1015,8 hPa 0,0 l/m 9,7 km/h (2 Bft) W-SW 257 0 min 0,000 mm 1,7 UV-I 288 W/m 2,4 C 8,1 C 17,7 km/h (3 Bft) 100,00 %
15.05.2016 13:26 10,3 C 56 % 1015,8 hPa 0,0 l/m 8,6 km/h (2 Bft) NW 315 0 min 0,000 mm 1,6 UV-I 272 W/m 1,9 C 8,8 C 17,7 km/h (3 Bft) 100,00 %
15.05.2016 13:27 10,3 C 57 % 1015,8 hPa 0,0 l/m 15,7 km/h (3 Bft) W-SW 243 0 min 0,000 mm 1,5 UV-I 272 W/m 2,2 C 5,2 C 25,7 km/h (4 Bft) 100,00 %
15.05.2016 13:28 10,3 C 56 % 1015,8 hPa 0,0 l/m 17,7 km/h (3 Bft) W 268 0 min 0,000 mm 1,3 UV-I 248 W/m 1,9 C 4,5 C 25,7 km/h (4 Bft) 100,00 %
15.05.2016 13:29 10,3 C 56 % 1015,8 hPa 0,0 l/m 17,0 km/h (3 Bft) W 267 0 min 0,000 mm 1,2 UV-I 204 W/m 1,9 C 4,7 C 24,1 km/h (4 Bft) 100,00 %
15.05.2016 13:30 10,2 C 56 % 1015,7 hPa 0,0 l/m 15,5 km/h (3 Bft) W 262 0 min 0,000 mm 1,1 UV-I 195 W/m 1,8 C 5,2 C 20,9 km/h (4 Bft) 100,00 %
15.05.2016 13:31 10,2 C 55 % 1015,8 hPa 0,0 l/m 16,5 km/h (3 Bft) W-SW 237 0 min 0,000 mm 1,1 UV-I 199 W/m 1,6 C 4,8 C 27,4 km/h (4 Bft) 96,15 %
15.05.2016 13:32 10,2 C 56 % 1015,7 hPa 0,0 l/m 16,1 km/h (3 Bft) SW 227 0 min 0,000 mm 1,2 UV-I 219 W/m 1,8 C 4,9 C 22,5 km/h (4 Bft) 100,00 %
15.05.2016 13:33 10,1 C 56 % 1015,8 hPa 0,0 l/m 15,8 km/h (3 Bft) W 275 0 min 0,000 mm 1,2 UV-I 220 W/m 1,7 C 4,9 C 20,9 km/h (4 Bft) 100,00 %
15.05.2016 13:34 10,1 C 56 % 1015,9 hPa 0,0 l/m 13,6 km/h (3 Bft) W 259 0 min 0,000 mm 1,1 UV-I 205 W/m 1,7 C 5,9 C 19,3 km/h (3 Bft) 100,00 %
15.05.2016 13:35 10,1 C 57 % 1015,8 hPa 0,0 l/m 13,3 km/h (3 Bft) W-SW 244 0 min 0,000 mm 1,1 UV-I 195 W/m 2,0 C 6,0 C 17,7 km/h (3 Bft) 100,00 %
15.05.2016 13:36 10,1 C 57 % 1015,9 hPa 0,0 l/m 14,2 km/h (3 Bft) W 259 0 min 0,000 mm 1,1 UV-I 192 W/m 2,0 C 5,6 C 17,7 km/h (3 Bft) 100,00 %
15.05.2016 13:37 10,1 C 58 % 1015,9 hPa 0,0 l/m 8,4 km/h (2 Bft) W-SW 239 0 min 0,000 mm 1,2 UV-I 202 W/m 2,2 C 8,7 C 14,5 km/h (3 Bft) 100,00 %
15.05.2016 13:38 10,1 C 57 % 1015,9 hPa 0,0 l/m 8,5 km/h (2 Bft) W 265 0 min 0,000 mm 1,3 UV-I 222 W/m 2,0 C 8,6 C 14,5 km/h (3 Bft) 100,00 %
15.05.2016 13:39 10,1 C 58 % 1015,9 hPa 0,0 l/m 8,1 km/h (2 Bft) W-NW 283 0 min 0,000 mm 1,4 UV-I 240 W/m 2,2 C 8,9 C 19,3 km/h (3 Bft) 100,00 %
15.05.2016 13:40 10,1 C 57 % 1015,8 hPa 0,0 l/m 10,9 km/h (2 Bft) SW 224 0 min 0,000 mm 1,5 UV-I 252 W/m 2,0 C 7,2 C 17,7 km/h (3 Bft) 100,00 %
15.05.2016 13:41 10,1 C 58 % 1015,9 hPa 0,0 l/m 9,1 km/h (2 Bft) W 281 0 min 0,000 mm 1,5 UV-I 263 W/m 2,2 C 8,2 C 14,5 km/h (3 Bft) 100,00 %
15.05.2016 13:42 10,1 C 59 % 1015,9 hPa 0,0 l/m 18,0 km/h (3 Bft) W-SW 246 0 min 0,000 mm 1,7 UV-I 287 W/m 2,5 C 4,1 C 33,8 km/h (5 Bft) 100,00 %
15.05.2016 13:43 10,1 C 56 % 1015,9 hPa 0,0 l/m 19,5 km/h (3 Bft) W 275 0 min 0,000 mm 1,9 UV-I 327 W/m 1,7 C 3,6 C 27,4 km/h (4 Bft) 100,00 %
15.05.2016 13:44 10,1 C 56 % 1015,9 hPa 0,0 l/m 13,4 km/h (3 Bft) W-SW 242 0 min 0,000 mm 2,3 UV-I 393 W/m 1,7 C 6,0 C 24,1 km/h (4 Bft) 100,00 %
15.05.2016 13:45 10,2 C 57 % 1015,9 hPa 0,0 l/m 18,8 km/h (3 Bft) W-SW 252 0 min 0,000 mm 2,4 UV-I 439 W/m 2,1 C 3,9 C 30,6 km/h (5 Bft) 100,00 %
15.05.2016 13:46 10,2 C 56 % 1015,9 hPa 0,0 l/m 17,1 km/h (3 Bft) W-SW 258 0 min 0,000 mm 2,5 UV-I 453 W/m 1,8 C 4,5 C 24,1 km/h (4 Bft) 100,00 %
15.05.2016 13:47 10,2 C 55 % 1016,0 hPa 0,0 l/m 16,4 km/h (3 Bft) W 259 0 min 0,000 mm 2,6 UV-I 449 W/m 1,6 C 4,8 C 24,1 km/h (4 Bft) 100,00 %
15.05.2016 13:48 10,3 C 56 % 1015,9 hPa 0,0 l/m 10,8 km/h (2 Bft) W-NW 282 0 min 0,000 mm 2,5 UV-I 435 W/m 1,9 C 7,5 C 12,9 km/h (3 Bft) 100,00 %
15.05.2016 13:49 10,3 C 56 % 1015,9 hPa 0,0 l/m 11,9 km/h (2 Bft) W 263 0 min 0,000 mm 2,3 UV-I 417 W/m 1,9 C 6,9 C 17,7 km/h (3 Bft) 100,00 %
15.05.2016 13:50 10,3 C 57 % 1015,9 hPa 0,0 l/m 13,0 km/h (3 Bft) W-SW 244 1 min 0,000 mm 2,9 UV-I 526 W/m 2,2 C 6,4 C 19,3 km/h (3 Bft) 100,00 %
15.05.2016 13:51 10,4 C 57 % 1015,8 hPa 0,0 l/m 13,7 km/h (3 Bft) W-SW 237 1 min 0,000 mm 2,8 UV-I 601 W/m 2,3 C 6,2 C 19,3 km/h (3 Bft) 100,00 %
15.05.2016 13:52 10,6 C 57 % 1015,9 hPa 0,0 l/m 19,1 km/h (3 Bft) W 263 1 min 0,000 mm 2,4 UV-I 523 W/m 2,4 C 4,4 C 27,4 km/h (4 Bft) 100,00 %
15.05.2016 13:53 10,6 C 56 % 1015,9 hPa 0,0 l/m 13,0 km/h (3 Bft) W-SW 239 0 min 0,000 mm 2,1 UV-I 367 W/m 2,2 C 6,7 C 17,7 km/h (3 Bft) 100,00 %
15.05.2016 13:54 10,6 C 56 % 1015,9 hPa 0,0 l/m 15,0 km/h (3 Bft) W 275 0 min 0,000 mm 1,8 UV-I 320 W/m 2,2 C 5,9 C 25,7 km/h (4 Bft) 100,00 %
15.05.2016 13:55 10,6 C 55 % 1015,9 hPa 0,0 l/m 10,8 km/h (2 Bft) W-NW 287 0 min 0,000 mm 1,5 UV-I 251 W/m 1,9 C 7,8 C 24,1 km/h (4 Bft) 100,00 %
15.05.2016 13:56 10,5 C 56 % 1015,9 hPa 0,0 l/m 18,3 km/h (3 Bft) W-NW 288 0 min 0,000 mm 1,2 UV-I 208 W/m 2,1 C 4,5 C 32,2 km/h (5 Bft) 85,71 %
15.05.2016 13:57 10,4 C 56 % 1016,0 hPa 0,0 l/m 11,3 km/h (2 Bft) W-SW 256 0 min 0,000 mm 1,1 UV-I 198 W/m 2,0 C 7,3 C 17,7 km/h (3 Bft) 100,00 %
15.05.2016 13:58 10,4 C 56 % 1016,1 hPa 0,0 l/m 14,2 km/h (3 Bft) NW 315 0 min 0,000 mm 1,2 UV-I 219 W/m 2,0 C 6,0 C 24,1 km/h (4 Bft) 100,00 %
15.05.2016 13:59 10,3 C 57 % 1016,1 hPa 0,0 l/m 17,8 km/h (3 Bft) W-SW 257 0 min 0,000 mm 2,3 UV-I 236 W/m 2,2 C 4,4 C 24,1 km/h (4 Bft) 100,00 %
15.05.2016 14:00 10,3 C 58 % 1015,9 hPa 0,0 l/m 13,5 km/h (3 Bft) W 271 0 min 0,203 mm 2,5 UV-I 236 W/m 2,4 C 6,1 C 24,1 km/h (4 Bft) 91,30 %
15.05.2016 14:02 10,3 C 59 % 1016,0 hPa 0,0 l/m 12,1 km/h (2 Bft) W-NW 286 0 min 0,000 mm 2,6 UV-I 258 W/m 2,6 C 6,8 C 25,7 km/h (4 Bft) 100,00 %
15.05.2016 14:03 10,4 C 58 % 1016,2 hPa 0,0 l/m 18,1 km/h (3 Bft) W-SW 257 0 min 0,000 mm 2,5 UV-I 444 W/m 2,5 C 4,4 C 37,0 km/h (5 Bft) 100,00 %
15.05.2016 14:04 10,3 C 57 % 1016,1 hPa 0,0 l/m 9,5 km/h (2 Bft) W 270 0 min 0,000 mm 3,1 UV-I 459 W/m 2,2 C 8,2 C 19,3 km/h (3 Bft) 100,00 %
15.05.2016 14:05 10,3 C 56 % 1016,1 hPa 0,0 l/m 12,6 km/h (3 Bft) W 275 1 min 0,000 mm 3,5 UV-I 654 W/m 1,9 C 6,6 C 20,9 km/h (4 Bft) 86,67 %
15.05.2016 14:06 10,2 C 57 % 1016,1 hPa 0,0 l/m 14,1 km/h (3 Bft) S-SW 192 1 min 0,000 mm 3,9 UV-I 719 W/m 2,1 C 5,8 C 20,9 km/h (4 Bft) 100,00 %
15.05.2016 14:07 10,3 C 60 % 1016,1 hPa 0,0 l/m 16,7 km/h (3 Bft) W 259 1 min 0,000 mm 3,5 UV-I 712 W/m 2,9 C 4,8 C 32,2 km/h (5 Bft) 100,00 %
15.05.2016 14:08 10,3 C 58 % 1016,1 hPa 0,0 l/m 17,2 km/h (3 Bft) W 277 1 min 0,000 mm 3,5 UV-I 675 W/m 2,4 C 4,6 C 27,4 km/h (4 Bft) 100,00 %
15.05.2016 14:09 10,3 C 58 % 1016,1 hPa 0,0 l/m 17,9 km/h (3 Bft) W-SW 255 1 min 0,000 mm 4,0 UV-I 781 W/m 2,4 C 4,4 C 30,6 km/h (5 Bft) 100,00 %
15.05.2016 14:10 10,3 C 58 % 1016,1 hPa 0,0 l/m 19,1 km/h (3 Bft) W-SW 250 1 min 0,000 mm 3,8 UV-I 919 W/m 2,4 C 4,0 C 29,0 km/h (5 Bft) 100,00 %
15.05.2016 14:11 10,3 C 56 % 1016,0 hPa 0,0 l/m 12,8 km/h (3 Bft) W-SW 255 1 min 0,000 mm 3,2 UV-I 919 W/m 1,9 C 6,5 C 19,3 km/h (3 Bft) 100,00 %
15.05.2016 14:12 10,3 C 57 % 1016,1 hPa 0,0 l/m 11,1 km/h (2 Bft) W 263 1 min 0,000 mm 3,3 UV-I 919 W/m 2,2 C 7,3 C 14,5 km/h (3 Bft) 96,67 %
15.05.2016 14:13 10,3 C 59 % 1016,1 hPa 0,0 l/m 7,6 km/h (2 Bft) W-SW 254 1 min 0,000 mm 3,1 UV-I 919 W/m 2,6 C 9,4 C 12,9 km/h (3 Bft) 94,12 %
15.05.2016 14:14 10,4 C 59 % 1016,1 hPa 0,0 l/m 11,5 km/h (2 Bft) S-SW 209 1 min 0,000 mm 3,4 UV-I 919 W/m 2,7 C 7,2 C 14,5 km/h (3 Bft) 96,30 %
15.05.2016 14:15 10,4 C 59 % 1016,1 hPa 0,0 l/m 12,1 km/h (2 Bft) W-NW 287 1 min 0,000 mm 3,7 UV-I 919 W/m 2,7 C 6,9 C 16,1 km/h (3 Bft) 100,00 %
15.05.2016 14:16 10,4 C 57 % 1016,1 hPa 0,0 l/m 12,9 km/h (3 Bft) W-NW 296 1 min 0,000 mm 3,1 UV-I 698 W/m 2,3 C 6,5 C 17,7 km/h (3 Bft) 100,00 %
15.05.2016 14:17 10,4 C 58 % 1016,0 hPa 0,0 l/m 17,5 km/h (3 Bft) SW 223 1 min 0,000 mm 2,9 UV-I 499 W/m 2,5 C 4,7 C 22,5 km/h (4 Bft) 100,00 %
15.05.2016 14:18 10,4 C 57 % 1016,0 hPa 0,0 l/m 14,2 km/h (3 Bft) W 267 1 min 0,000 mm 3,0 UV-I 502 W/m 2,3 C 6,0 C 19,3 km/h (3 Bft) 100,00 %
15.05.2016 14:19 10,4 C 58 % 1016,0 hPa 0,0 l/m 17,7 km/h (3 Bft) W-SW 240 1 min 0,000 mm 3,7 UV-I 564 W/m 2,5 C 4,6 C 24,1 km/h (4 Bft) 100,00 %
15.05.2016 14:20 10,4 C 57 % 1015,8 hPa 0,0 l/m 21,8 km/h (4 Bft) W-SW 240 1 min 0,000 mm 4,2 UV-I 624 W/m 2,3 C 3,3 C 27,4 km/h (4 Bft) 100,00 %
15.05.2016 14:21 10,4 C 57 % 1015,9 hPa 0,0 l/m 18,9 km/h (3 Bft) SW 236 1 min 0,000 mm 4,1 UV-I 882 W/m 2,3 C 4,2 C 25,7 km/h (4 Bft) 96,55 %
15.05.2016 14:22 10,4 C 59 % 1015,9 hPa 0,0 l/m 17,0 km/h (3 Bft) W 281 1 min 0,000 mm 4,1 UV-I 872 W/m 2,7 C 4,8 C 24,1 km/h (4 Bft) 96,30 %
15.05.2016 14:23 10,6 C 59 % 1016,0 hPa 0,0 l/m 14,6 km/h (3 Bft) W 270 1 min 0,000 mm 3,9 UV-I 833 W/m 2,9 C 6,0 C 22,5 km/h (4 Bft) 100,00 %
15.05.2016 14:24 10,7 C 59 % 1015,9 hPa 0,0 l/m 15,6 km/h (3 Bft) W-NW 283 1 min 0,000 mm 4,0 UV-I 824 W/m 3,0 C 5,7 C 25,7 km/h (4 Bft) 100,00 %
15.05.2016 14:25 10,8 C 58 % 1015,9 hPa 0,0 l/m 17,8 km/h (3 Bft) SW 225 1 min 0,000 mm 4,0 UV-I 843 W/m 2,9 C 5,0 C 25,7 km/h (4 Bft) 100,00 %
15.05.2016 14:26 10,8 C 57 % 1015,8 hPa 0,0 l/m 16,4 km/h (3 Bft) W-SW 238 1 min 0,000 mm 4,0 UV-I 854 W/m 2,6 C 5,6 C 20,9 km/h (4 Bft) 100,00 %
15.05.2016 14:27 10,9 C 60 % 1015,8 hPa 0,0 l/m 19,5 km/h (3 Bft) W 279 1 min 0,000 mm 4,0 UV-I 854 W/m 3,4 C 4,6 C 29,0 km/h (5 Bft) 95,83 %
15.05.2016 14:28 11,0 C 55 % 1016,1 hPa 0,0 l/m 16,6 km/h (3 Bft) W-SW 240 1 min 0,000 mm 4,0 UV-I 863 W/m 2,3 C 5,7 C 22,5 km/h (4 Bft) 100,00 %
15.05.2016 14:29 11,1 C 59 % 1015,8 hPa 0,0 l/m 12,3 km/h (3 Bft) SW 220 1 min 0,000 mm 3,4 UV-I 861 W/m 3,4 C 7,6 C 22,5 km/h (4 Bft) 95,83 %
15.05.2016 14:30 11,2 C 58 % 1015,8 hPa 0,0 l/m 23,0 km/h (4 Bft) SW 217 1 min 0,000 mm 3,7 UV-I 868 W/m 3,2 C 4,0 C 32,2 km/h (5 Bft) 100,00 %
15.05.2016 14:31 11,2 C 56 % 1015,7 hPa 0,0 l/m 19,6 km/h (3 Bft) W-SW 252 1 min 0,000 mm 3,9 UV-I 851 W/m 2,8 C 5,0 C 29,0 km/h (5 Bft) 95,83 %
15.05.2016 14:32 11,2 C 57 % 1015,7 hPa 0,0 l/m 13,0 km/h (3 Bft) SW 233 1 min 0,000 mm 3,9 UV-I 811 W/m 3,0 C 7,4 C 19,3 km/h (3 Bft) 96,15 %
15.05.2016 14:33 11,3 C 58 % 1015,8 hPa 0,0 l/m 22,8 km/h (4 Bft) W-SW 258 1 min 0,000 mm 3,9 UV-I 751 W/m 3,3 C 4,2 C 32,2 km/h (5 Bft) 100,00 %
15.05.2016 14:34 11,4 C 57 % 1015,8 hPa 0,0 l/m 15,9 km/h (3 Bft) SW 232 1 min 0,000 mm 4,0 UV-I 751 W/m 3,2 C 6,5 C 24,1 km/h (4 Bft) 95,65 %
15.05.2016 14:35 11,5 C 58 % 1015,7 hPa 0,0 l/m 10,8 km/h (2 Bft) W 261 1 min 0,000 mm 3,9 UV-I 912 W/m 3,5 C 8,8 C 14,5 km/h (3 Bft) 100,00 %
15.05.2016 14:36 11,7 C 59 % 1015,8 hPa 0,0 l/m 21,6 km/h (4 Bft) W 275 1 min 0,000 mm 3,9 UV-I 965 W/m 4,0 C 5,0 C 32,2 km/h (5 Bft) 96,15 %
15.05.2016 14:37 11,7 C 57 % 1015,7 hPa 0,0 l/m 15,8 km/h (3 Bft) W-SW 244 1 min 0,000 mm 2,9 UV-I 859 W/m 3,5 C 6,9 C 24,1 km/h (4 Bft) 100,00 %
15.05.2016 14:38 11,7 C 56 % 1015,7 hPa 0,0 l/m 10,7 km/h (2 Bft) SW 225 0 min 0,000 mm 2,7 UV-I 341 W/m 3,2 C 9,1 C 12,9 km/h (3 Bft) 92,86 %
15.05.2016 14:39 11,7 C 56 % 1015,6 hPa 0,0 l/m 13,4 km/h (3 Bft) W-NW 290 0 min 0,000 mm 2,1 UV-I 295 W/m 3,2 C 7,8 C 19,3 km/h (3 Bft) 93,33 %
15.05.2016 14:40 11,6 C 54 % 1015,7 hPa 0,0 l/m 12,6 km/h (3 Bft) W 277 0 min 0,000 mm 2,0 UV-I 300 W/m 2,6 C 8,1 C 19,3 km/h (3 Bft) 100,00 %
15.05.2016 14:41 11,4 C 53 % 1015,7 hPa 0,0 l/m 7,6 km/h (2 Bft) SW 226 0 min 0,000 mm 2,0 UV-I 323 W/m 2,2 C 10,6 C 17,7 km/h (3 Bft) 96,55 %
15.05.2016 14:42 11,3 C 57 % 1015,7 hPa 0,0 l/m 13,3 km/h (3 Bft) SW 231 0 min 0,000 mm 2,2 UV-I 333 W/m 3,1 C 7,4 C 24,1 km/h (4 Bft) 100,00 %
15.05.2016 14:43 11,3 C 53 % 1015,8 hPa 0,0 l/m 9,7 km/h (2 Bft) S-SW 213 0 min 0,000 mm 2,0 UV-I 360 W/m 2,1 C 9,2 C 19,3 km/h (3 Bft) 96,15 %
15.05.2016 14:44 11,3 C 53 % 1015,7 hPa 0,0 l/m 7,3 km/h (2 Bft) W-SW 244 0 min 0,000 mm 1,9 UV-I 350 W/m 2,1 C 10,7 C 19,3 km/h (3 Bft) 100,00 %
15.05.2016 14:45 11,2 C 54 % 1015,8 hPa 0,0 l/m 14,6 km/h (3 Bft) S-SW 198 0 min 0,000 mm 1,8 UV-I 339 W/m 2,2 C 6,7 C 29,0 km/h (5 Bft) 95,83 %
15.05.2016 14:46 11,2 C 53 % 1015,8 hPa 0,0 l/m 14,6 km/h (3 Bft) W-NW 287 0 min 0,000 mm 1,6 UV-I 309 W/m 2,0 C 6,7 C 19,3 km/h (3 Bft) 100,00 %
15.05.2016 14:47 11,1 C 54 % 1015,8 hPa 0,0 l/m 10,4 km/h (2 Bft) W-SW 245 0 min 0,000 mm 1,5 UV-I 296 W/m 2,2 C 8,6 C 19,3 km/h (3 Bft) 95,65 %
15.05.2016 14:48 10,9 C 53 % 1015,7 hPa 0,0 l/m 11,9 km/h (2 Bft) W 265 0 min 0,000 mm 1,5 UV-I 279 W/m 1,7 C 7,6 C 22,5 km/h (4 Bft) 100,00 %
15.05.2016 14:49 10,9 C 54 % 1015,8 hPa 0,0 l/m 12,6 km/h (3 Bft) W-SW 256 0 min 0,000 mm 1,4 UV-I 274 W/m 2,0 C 7,3 C 25,7 km/h (4 Bft) 92,86 %
15.05.2016 14:50 10,8 C 53 % 1015,8 hPa 0,0 l/m 10,7 km/h (2 Bft) W-NW 293 0 min 0,000 mm 1,5 UV-I 284 W/m 1,6 C 8,1 C 19,3 km/h (3 Bft) 100,00 %
15.05.2016 14:51 10,7 C 57 % 1015,8 hPa 0,0 l/m 10,3 km/h (2 Bft) W-SW 243 0 min 0,000 mm 1,5 UV-I 280 W/m 2,5 C 8,2 C 14,5 km/h (3 Bft) 96,15 %
15.05.2016 14:52 10,7 C 55 % 1015,8 hPa 0,0 l/m 12,7 km/h (3 Bft) W-SW 238 0 min 0,000 mm 1,4 UV-I 271 W/m 2,0 C 7,0 C 16,1 km/h (3 Bft) 100,00 %
15.05.2016 14:53 10,7 C 56 % 1015,8 hPa 0,0 l/m 8,2 km/h (2 Bft) W 277 0 min 0,000 mm 1,2 UV-I 226 W/m 2,3 C 9,5 C 12,9 km/h (3 Bft) 97,37 %
15.05.2016 14:54 10,6 C 56 % 1015,8 hPa 0,0 l/m 11,5 km/h (2 Bft) W-SW 246 0 min 0,000 mm 1,0 UV-I 191 W/m 2,2 C 7,5 C 17,7 km/h (3 Bft) 100,00 %
15.05.2016 14:55 10,6 C 56 % 1015,8 hPa 0,0 l/m 14,8 km/h (3 Bft) W-SW 246 0 min 0,000 mm 0,9 UV-I 177 W/m 2,2 C 5,9 C 20,9 km/h (4 Bft) 100,00 %
15.05.2016 14:56 10,6 C 57 % 1015,9 hPa 0,0 l/m 15,5 km/h (3 Bft) W-SW 257 0 min 0,000 mm 0,9 UV-I 165 W/m 2,4 C 5,7 C 20,9 km/h (4 Bft) 100,00 %
15.05.2016 14:57 10,6 C 58 % 1015,9 hPa 0,0 l/m 13,6 km/h (3 Bft) SW 227 0 min 0,000 mm 0,7 UV-I 139 W/m 2,7 C 6,5 C 17,7 km/h (3 Bft) 96,15 %
15.05.2016 14:58 10,5 C 56 % 1015,9 hPa 0,0 l/m 18,6 km/h (3 Bft) SW 223 0 min 0,000 mm 0,6 UV-I 122 W/m 2,1 C 4,4 C 32,2 km/h (5 Bft) 100,00 %
15.05.2016 14:59 10,4 C 56 % 1015,9 hPa 0,0 l/m 15,1 km/h (3 Bft) SW 230 0 min 0,000 mm 0,6 UV-I 114 W/m 2,0 C 5,6 C 24,1 km/h (4 Bft) 95,65 %
15.05.2016 15:00 10,3 C 56 % 1015,9 hPa 0,0 l/m 13,0 km/h (3 Bft) W 272 0 min 0,330 mm 0,6 UV-I 114 W/m 1,9 C 6,4 C 17,7 km/h (3 Bft) 98,72 %
15.05.2016 15:01 10,3 C 59 % 1016,0 hPa 0,0 l/m 10,6 km/h (2 Bft) W-SW 239 0 min 0,000 mm 0,6 UV-I 119 W/m 2,6 C 7,6 C 17,7 km/h (3 Bft) 100,00 %
15.05.2016 15:02 10,3 C 58 % 1016,0 hPa 0,0 l/m 10,8 km/h (2 Bft) W 279 0 min 0,000 mm 0,6 UV-I 129 W/m 2,4 C 7,5 C 19,3 km/h (3 Bft) 100,00 %
15.05.2016 15:03 10,2 C 59 % 1015,9 hPa 0,0 l/m 11,5 km/h (2 Bft) W 265 0 min 0,000 mm 0,7 UV-I 137 W/m 2,6 C 7,0 C 17,7 km/h (3 Bft) 100,00 %
15.05.2016 15:04 10,2 C 57 % 1016,1 hPa 0,0 l/m 9,9 km/h (2 Bft) W-SW 247 0 min 0,000 mm 0,7 UV-I 139 W/m 2,1 C 7,9 C 14,5 km/h (3 Bft) 93,33 %
15.05.2016 15:05 10,2 C 58 % 1016,1 hPa 0,0 l/m 13,4 km/h (3 Bft) W 262 0 min 0,000 mm 0,7 UV-I 144 W/m 2,3 C 6,1 C 17,7 km/h (3 Bft) 100,00 %
15.05.2016 15:06 10,1 C 58 % 1016,1 hPa 0,0 l/m 12,8 km/h (3 Bft) W-SW 248 0 min 0,000 mm 0,7 UV-I 143 W/m 2,2 C 6,2 C 22,5 km/h (4 Bft) 100,00 %
15.05.2016 15:07 10,1 C 58 % 1016,1 hPa 0,0 l/m 14,0 km/h (3 Bft) SW 230 0 min 0,000 mm 0,6 UV-I 125 W/m 2,2 C 5,7 C 17,7 km/h (3 Bft) 100,00 %
15.05.2016 15:08 10,1 C 59 % 1016,1 hPa 0,0 l/m 10,1 km/h (2 Bft) NW 309 0 min 0,000 mm 0,5 UV-I 110 W/m 2,5 C 7,6 C 14,5 km/h (3 Bft) 100,00 %
15.05.2016 15:09 10,0 C 60 % 1016,1 hPa 0,0 l/m 6,6 km/h (2 Bft) SW 219 0 min 0,000 mm 0,5 UV-I 110 W/m 2,6 C 9,9 C 11,3 km/h (2 Bft) 100,00 %
15.05.2016 15:10 10,0 C 60 % 1016,1 hPa 0,0 l/m 9,3 km/h (2 Bft) W-SW 246 0 min 0,000 mm 0,6 UV-I 120 W/m 2,6 C 8,0 C 14,5 km/h (3 Bft) 100,00 %
15.05.2016 15:11 10,0 C 60 % 1016,1 hPa 0,0 l/m 8,4 km/h (2 Bft) W-SW 248 0 min 0,000 mm 0,6 UV-I 130 W/m 2,6 C 8,6 C 12,9 km/h (3 Bft) 100,00 %
15.05.2016 15:12 10,0 C 60 % 1016,1 hPa 0,0 l/m 8,0 km/h (2 Bft) W-SW 240 0 min 0,000 mm 0,6 UV-I 133 W/m 2,6 C 8,9 C 12,9 km/h (3 Bft) 100,00 %
15.05.2016 15:13 9,9 C 60 % 1016,1 hPa 0,0 l/m 15,8 km/h (3 Bft) W 259 0 min 0,000 mm 0,6 UV-I 138 W/m 2,5 C 4,7 C 22,5 km/h (4 Bft) 100,00 %
15.05.2016 15:14 10,0 C 61 % 1016,2 hPa 0,0 l/m 15,5 km/h (3 Bft) W 271 0 min 0,000 mm 0,7 UV-I 150 W/m 2,8 C 4,9 C 20,9 km/h (4 Bft) 100,00 %
15.05.2016 15:15 10,0 C 60 % 1016,1 hPa 0,0 l/m 11,2 km/h (2 Bft) W 268 0 min 0,000 mm 0,8 UV-I 170 W/m 2,6 C 6,9 C 14,5 km/h (3 Bft) 96,30 %
15.05.2016 15:16 10,0 C 60 % 1016,1 hPa 0,0 l/m 14,8 km/h (3 Bft) W-NW 285 0 min 0,000 mm 0,9 UV-I 202 W/m 2,6 C 5,2 C 20,9 km/h (4 Bft) 100,00 %
15.05.2016 15:17 10,0 C 60 % 1016,1 hPa 0,0 l/m 13,4 km/h (3 Bft) N-NW 334 0 min 0,000 mm 1,2 UV-I 243 W/m 2,6 C 5,8 C 22,5 km/h (4 Bft) 100,00 %
15.05.2016 15:18 10,0 C 57 % 1016,1 hPa 0,0 l/m 16,3 km/h (3 Bft) W-SW 241 0 min 0,000 mm 1,3 UV-I 281 W/m 1,9 C 4,6 C 22,5 km/h (4 Bft) 100,00 %
15.05.2016 15:19 10,0 C 58 % 1016,1 hPa 0,0 l/m 14,4 km/h (3 Bft) W-SW 248 0 min 0,000 mm 1,5 UV-I 322 W/m 2,1 C 5,4 C 17,7 km/h (3 Bft) 100,00 %
15.05.2016 15:20 10,0 C 58 % 1016,1 hPa 0,0 l/m 9,7 km/h (2 Bft) SO 142 0 min 0,000 mm 1,6 UV-I 353 W/m 2,1 C 7,8 C 16,1 km/h (3 Bft) 100,00 %
15.05.2016 15:21 10,1 C 60 % 1016,1 hPa 0,0 l/m 12,2 km/h (2 Bft) W 278 0 min 0,000 mm 1,7 UV-I 377 W/m 2,7 C 6,5 C 20,9 km/h (4 Bft) 100,00 %
15.05.2016 15:22 10,1 C 58 % 1016,2 hPa 0,0 l/m 11,6 km/h (2 Bft) SW 224 0 min 0,000 mm 1,8 UV-I 396 W/m 2,2 C 6,8 C 16,1 km/h (3 Bft) 100,00 %
15.05.2016 15:23 10,2 C 59 % 1016,1 hPa 0,0 l/m 16,5 km/h (3 Bft) W 265 1 min 0,000 mm 1,9 UV-I 422 W/m 2,6 C 4,8 C 24,1 km/h (4 Bft) 100,00 %
15.05.2016 15:24 10,3 C 57 % 1016,0 hPa 0,0 l/m 20,7 km/h (4 Bft) W-SW 252 0 min 0,000 mm 1,9 UV-I 408 W/m 2,2 C 3,5 C 32,2 km/h (5 Bft) 100,00 %
15.05.2016 15:25 10,3 C 57 % 1016,1 hPa 0,0 l/m 16,4 km/h (3 Bft) W-SW 248 0 min 0,000 mm 1,0 UV-I 407 W/m 2,2 C 4,9 C 27,4 km/h (4 Bft) 96,15 %
15.05.2016 15:26 10,3 C 56 % 1016,1 hPa 0,0 l/m 13,8 km/h (3 Bft) W-SW 248 0 min 0,000 mm 1,9 UV-I 394 W/m 1,9 C 6,0 C 20,9 km/h (4 Bft) 100,00 %
15.05.2016 15:27 10,4 C 57 % 1016,2 hPa 0,0 l/m 15,0 km/h (3 Bft) W-SW 257 0 min 0,000 mm 1,8 UV-I 386 W/m 2,3 C 5,6 C 19,3 km/h (3 Bft) 100,00 %
15.05.2016 15:28 10,4 C 55 % 1016,2 hPa 0,0 l/m 14,8 km/h (3 Bft) W-SW 252 0 min 0,000 mm 1,8 UV-I 389 W/m 1,8 C 5,7 C 22,5 km/h (4 Bft) 100,00 %
15.05.2016 15:29 10,4 C 56 % 1016,1 hPa 0,0 l/m 13,6 km/h (3 Bft) W 279 0 min 0,000 mm 1,8 UV-I 392 W/m 2,0 C 6,2 C 19,3 km/h (3 Bft) 100,00 %
15.05.2016 15:30 10,4 C 56 % 1016,2 hPa 0,0 l/m 12,7 km/h (3 Bft) W 263 0 min 0,000 mm 1,8 UV-I 394 W/m 2,0 C 6,6 C 16,1 km/h (3 Bft) 100,00 %
15.05.2016 15:31 10,4 C 56 % 1016,1 hPa 0,0 l/m 12,6 km/h (3 Bft) W-SW 252 1 min 0,000 mm 1,8 UV-I 421 W/m 2,0 C 6,7 C 17,7 km/h (3 Bft) 96,15 %
15.05.2016 15:32 10,4 C 58 % 1016,1 hPa 0,0 l/m 10,1 km/h (2 Bft) SW 235 1 min 0,000 mm 1,8 UV-I 415 W/m 2,5 C 8,0 C 14,5 km/h (3 Bft) 100,00 %
15.05.2016 15:33 10,4 C 58 % 1016,0 hPa 0,0 l/m 16,1 km/h (3 Bft) W-SW 242 0 min 0,000 mm 1,5 UV-I 346 W/m 2,5 C 5,2 C 19,3 km/h (3 Bft) 100,00 %
15.05.2016 15:34 10,5 C 56 % 1016,1 hPa 0,0 l/m 14,6 km/h (3 Bft) W-SW 238 0 min 0,000 mm 1,4 UV-I 306 W/m 2,1 C 5,9 C 25,7 km/h (4 Bft) 100,00 %
15.05.2016 15:35 10,4 C 57 % 1016,1 hPa 0,0 l/m 10,6 km/h (2 Bft) W 271 0 min 0,000 mm 1,2 UV-I 258 W/m 2,3 C 7,7 C 14,5 km/h (3 Bft) 100,00 %
15.05.2016 15:36 10,4 C 57 % 1016,1 hPa 0,0 l/m 14,7 km/h (3 Bft) W-SW 253 0 min 0,000 mm 1,0 UV-I 211 W/m 2,3 C 5,7 C 22,5 km/h (4 Bft) 100,00 %
15.05.2016 15:37 10,4 C 57 % 1016,1 hPa 0,0 l/m 16,6 km/h (3 Bft) W-NW 285 0 min 0,000 mm 0,7 UV-I 171 W/m 2,3 C 5,0 C 25,7 km/h (4 Bft) 100,00 %
15.05.2016 15:38 10,3 C 56 % 1016,1 hPa 0,0 l/m 15,4 km/h (3 Bft) W 277 0 min 0,000 mm 0,6 UV-I 145 W/m 1,9 C 5,3 C 27,4 km/h (4 Bft) 100,00 %
15.05.2016 15:39 10,3 C 57 % 1016,1 hPa 0,0 l/m 14,2 km/h (3 Bft) W 272 0 min 0,000 mm 0,5 UV-I 129 W/m 2,2 C 5,8 C 22,5 km/h (4 Bft) 100,00 %
15.05.2016 15:40 10,2 C 56 % 1016,2 hPa 0,0 l/m 13,2 km/h (3 Bft) SW 217 0 min 0,000 mm 0,1 UV-I 115 W/m 1,8 C 6,2 C 27,4 km/h (4 Bft) 100,00 %
15.05.2016 15:41 10,2 C 56 % 1016,2 hPa 0,0 l/m 10,3 km/h (2 Bft) SW 227 0 min 0,000 mm 0,0 UV-I 102 W/m 1,8 C 7,6 C 16,1 km/h (3 Bft) 100,00 %
15.05.2016 15:42 10,1 C 57 % 1016,3 hPa 0,0 l/m 4,9 km/h (1 Bft) SW 229 0 min 0,000 mm 0,0 UV-I 91 W/m 2,0 C 10,1 C 11,3 km/h (2 Bft) 100,00 %
15.05.2016 15:43 10,0 C 58 % 1016,2 hPa 0,0 l/m 9,0 km/h (2 Bft) W 267 0 min 0,000 mm 0,0 UV-I 87 W/m 2,1 C 8,2 C 22,5 km/h (4 Bft) 100,00 %
15.05.2016 15:44 9,9 C 59 % 1016,2 hPa 0,0 l/m 8,1 km/h (2 Bft) W-NW 282 0 min 0,000 mm 0,0 UV-I 92 W/m 2,3 C 8,7 C 14,5 km/h (3 Bft) 96,15 %
15.05.2016 15:45 9,8 C 59 % 1016,2 hPa 0,0 l/m 6,9 km/h (2 Bft) SW 223 0 min 0,000 mm 0,0 UV-I 88 W/m 2,2 C 9,4 C 9,7 km/h (2 Bft) 100,00 %
15.05.2016 15:46 9,8 C 59 % 1016,2 hPa 0,0 l/m 9,4 km/h (2 Bft) W 272 0 min 0,000 mm 0,0 UV-I 74 W/m 2,2 C 7,7 C 14,5 km/h (3 Bft) 100,00 %
15.05.2016 15:47 9,7 C 58 % 1016,3 hPa 0,0 l/m 15,3 km/h (3 Bft) W-SW 253 0 min 0,000 mm 0,0 UV-I 57 W/m 1,8 C 4,6 C 30,6 km/h (5 Bft) 100,00 %
15.05.2016 15:48 9,7 C 58 % 1016,3 hPa 0,0 l/m 6,7 km/h (2 Bft) SW 234 0 min 0,000 mm 0,0 UV-I 53 W/m 1,8 C 9,5 C 11,3 km/h (2 Bft) 96,15 %
15.05.2016 15:49 9,6 C 58 % 1016,3 hPa 0,0 l/m 7,0 km/h (2 Bft) W-SW 244 0 min 0,000 mm 0,0 UV-I 57 W/m 1,8 C 9,2 C 11,3 km/h (2 Bft) 100,00 %
15.05.2016 15:50 9,5 C 59 % 1016,4 hPa 0,0 l/m 6,4 km/h (2 Bft) SW 218 0 min 0,000 mm 0,0 UV-I 69 W/m 1,9 C 9,5 C 14,5 km/h (3 Bft) 100,00 %
15.05.2016 15:51 9,4 C 59 % 1016,3 hPa 0,0 l/m 2,3 km/h (1 Bft) W 276 0 min 0,000 mm 0,0 UV-I 90 W/m 1,8 C 9,4 C 14,5 km/h (3 Bft) 100,00 %
15.05.2016 15:52 9,4 C 58 % 1016,3 hPa 0,0 l/m 6,9 km/h (2 Bft) N-NW 337 0 min 0,000 mm 0,3 UV-I 120 W/m 1,6 C 9,0 C 12,9 km/h (3 Bft) 100,00 %
15.05.2016 15:53 9,3 C 59 % 1016,2 hPa 0,0 l/m 12,9 km/h (3 Bft) W 277 0 min 0,000 mm 0,6 UV-I 168 W/m 1,7 C 5,3 C 25,7 km/h (4 Bft) 100,00 %
15.05.2016 15:54 9,3 C 59 % 1016,3 hPa 0,0 l/m 7,6 km/h (2 Bft) W-NW 290 0 min 0,000 mm 0,7 UV-I 185 W/m 1,7 C 8,4 C 12,9 km/h (3 Bft) 100,00 %
15.05.2016 15:55 9,3 C 59 % 1016,2 hPa 0,0 l/m 5,8 km/h (2 Bft) W-NW 292 0 min 0,000 mm 0,8 UV-I 203 W/m 1,7 C 9,3 C 12,9 km/h (3 Bft) 100,00 %
15.05.2016 15:56 9,4 C 60 % 1016,3 hPa 0,0 l/m 10,5 km/h (2 Bft) W 265 0 min 0,000 mm 1,0 UV-I 221 W/m 2,0 C 6,6 C 20,9 km/h (4 Bft) 100,00 %
15.05.2016 15:57 9,4 C 58 % 1016,3 hPa 0,0 l/m 17,0 km/h (3 Bft) W-SW 255 0 min 0,000 mm 1,1 UV-I 251 W/m 1,6 C 3,6 C 24,1 km/h (4 Bft) 100,00 %
15.05.2016 15:58 9,4 C 56 % 1016,3 hPa 0,0 l/m 18,0 km/h (3 Bft) W 265 0 min 0,000 mm 0,7 UV-I 306 W/m 1,1 C 3,2 C 24,1 km/h (4 Bft) 100,00 %
15.05.2016 15:59 9,6 C 58 % 1016,4 hPa 0,0 l/m 9,3 km/h (2 Bft) W-NW 283 0 min 0,000 mm 1,7 UV-I 348 W/m 1,8 C 7,6 C 16,1 km/h (3 Bft) 100,00 %
15.05.2016 16:00 9,7 C 58 % 1016,4 hPa 0,0 l/m 8,2 km/h (2 Bft) SW 236 1 min 0,000 mm 1,9 UV-I 444 W/m 1,8 C 8,4 C 12,9 km/h (3 Bft) 100,00 %
15.05.2016 16:01 9,9 C 59 % 1016,4 hPa 0,0 l/m 5,5 km/h (1 Bft) W 265 1 min 0,153 mm 1,7 UV-I 378 W/m 2,3 C 9,9 C 11,3 km/h (2 Bft) 100,00 %
15.05.2016 16:02 10,1 C 58 % 1016,4 hPa 0,0 l/m 7,6 km/h (2 Bft) W-NW 295 1 min 0,000 mm 1,8 UV-I 378 W/m 2,2 C 9,2 C 12,9 km/h (3 Bft) 100,00 %
15.05.2016 16:03 10,2 C 57 % 1016,4 hPa 0,0 l/m 10,9 km/h (2 Bft) W-NW 293 0 min 0,000 mm 1,4 UV-I 324 W/m 2,1 C 7,3 C 16,1 km/h (3 Bft) 96,15 %
15.05.2016 16:04 10,3 C 57 % 1016,3 hPa 0,0 l/m 10,4 km/h (2 Bft) W 264 0 min 0,000 mm 1,4 UV-I 280 W/m 2,2 C 7,7 C 16,1 km/h (3 Bft) 100,00 %
15.05.2016 16:05 10,3 C 55 % 1016,4 hPa 0,0 l/m 13,8 km/h (3 Bft) W 273 0 min 0,000 mm 1,3 UV-I 247 W/m 1,7 C 6,0 C 19,3 km/h (3 Bft) 100,00 %
15.05.2016 16:06 10,3 C 54 % 1016,4 hPa 0,0 l/m 14,5 km/h (3 Bft) W-SW 242 0 min 0,000 mm 1,2 UV-I 230 W/m 1,4 C 5,7 C 17,7 km/h (3 Bft) 100,00 %
15.05.2016 16:07 10,3 C 53 % 1016,3 hPa 0,0 l/m 9,0 km/h (2 Bft) SW 225 0 min 0,000 mm 1,1 UV-I 213 W/m 1,1 C 8,5 C 14,5 km/h (3 Bft) 100,00 %
15.05.2016 16:08 10,2 C 53 % 1016,4 hPa 0,0 l/m 12,7 km/h (3 Bft) W 273 0 min 0,000 mm 0,9 UV-I 199 W/m 1,1 C 6,4 C 17,7 km/h (3 Bft) 100,00 %
15.05.2016 16:09 10,2 C 52 % 1016,4 hPa 0,0 l/m 18,0 km/h (3 Bft) W-SW 257 0 min 0,000 mm 0,8 UV-I 188 W/m 0,8 C 4,2 C 24,1 km/h (4 Bft) 100,00 %
15.05.2016 16:10 10,1 C 52 % 1016,4 hPa 0,0 l/m 15,8 km/h (3 Bft) SW 221 0 min 0,000 mm 0,8 UV-I 187 W/m 0,7 C 4,9 C 24,1 km/h (4 Bft) 100,00 %
15.05.2016 16:11 10,0 C 52 % 1016,4 hPa 0,0 l/m 14,7 km/h (3 Bft) W-NW 301 0 min 0,000 mm 0,8 UV-I 196 W/m 0,6 C 5,3 C 22,5 km/h (4 Bft) 100,00 %
15.05.2016 16:12 9,9 C 52 % 1016,4 hPa 0,0 l/m 12,7 km/h (3 Bft) W 270 0 min 0,000 mm 0,8 UV-I 215 W/m 0,5 C 6,1 C 19,3 km/h (3 Bft) 100,00 %
15.05.2016 16:13 9,9 C 52 % 1016,4 hPa 0,0 l/m 14,1 km/h (3 Bft) W-NW 296 0 min 0,000 mm 0,9 UV-I 235 W/m 0,5 C 5,4 C 19,3 km/h (3 Bft) 100,00 %
15.05.2016 16:14 9,9 C 52 % 1016,4 hPa 0,0 l/m 11,0 km/h (2 Bft) W-SW 241 0 min 0,000 mm 1,0 UV-I 243 W/m 0,5 C 6,9 C 14,5 km/h (3 Bft) 100,00 %
15.05.2016 16:15 9,9 C 52 % 1016,4 hPa 0,0 l/m 9,9 km/h (2 Bft) W-NW 283 0 min 0,000 mm 1,0 UV-I 244 W/m 0,5 C 7,5 C 14,5 km/h (3 Bft) 100,00 %
15.05.2016 16:16 9,8 C 53 % 1016,4 hPa 0,0 l/m 9,6 km/h (2 Bft) W 275 0 min 0,000 mm 1,0 UV-I 122 W/m 0,7 C 7,6 C 14,5 km/h (3 Bft) 96,30 %
15.05.2016 16:17 9,9 C 54 % 1016,4 hPa 0,0 l/m 15,7 km/h (3 Bft) W 277 0 min 0,000 mm 1,1 UV-I 164 W/m 1,0 C 4,7 C 25,7 km/h (4 Bft) 100,00 %
15.05.2016 16:18 9,9 C 54 % 1016,4 hPa 0,0 l/m 13,0 km/h (3 Bft) W-SW 243 0 min 0,000 mm 1,1 UV-I 295 W/m 1,0 C 5,9 C 20,9 km/h (4 Bft) 96,30 %
15.05.2016 16:19 9,9 C 54 % 1016,4 hPa 0,0 l/m 20,4 km/h (4 Bft) W 270 0 min 0,000 mm 1,2 UV-I 320 W/m 1,0 C 3,0 C 32,2 km/h (5 Bft) 100,00 %
15.05.2016 16:20 9,9 C 52 % 1016,5 hPa 0,0 l/m 20,2 km/h (4 Bft) W-SW 240 0 min 0,000 mm 1,4 UV-I 338 W/m 0,5 C 3,1 C 27,4 km/h (4 Bft) 93,10 %
15.05.2016 16:21 10,1 C 53 % 1016,4 hPa 0,0 l/m 11,6 km/h (2 Bft) W-SW 252 0 min 0,000 mm 1,7 UV-I 338 W/m 1,0 C 6,8 C 19,3 km/h (3 Bft) 96,55 %
15.05.2016 16:22 10,2 C 52 % 1016,4 hPa 0,0 l/m 13,8 km/h (3 Bft) S-SW 202 0 min 0,000 mm 1,6 UV-I 348 W/m 0,8 C 5,9 C 20,9 km/h (4 Bft) 95,83 %
15.05.2016 16:23 10,2 C 52 % 1016,4 hPa 0,0 l/m 7,0 km/h (2 Bft) W-SW 247 1 min 0,000 mm 1,5 UV-I 386 W/m 0,8 C 9,8 C 11,3 km/h (2 Bft) 95,65 %
15.05.2016 16:24 10,3 C 56 % 1016,4 hPa 0,0 l/m 8,0 km/h (2 Bft) SW 234 1 min 0,000 mm 1,3 UV-I 366 W/m 1,9 C 9,2 C 12,9 km/h (3 Bft) 100,00 %
15.05.2016 16:25 10,4 C 53 % 1016,4 hPa 0,0 l/m 10,6 km/h (2 Bft) N-NW 338 0 min 0,000 mm 1,2 UV-I 277 W/m 1,2 C 7,7 C 16,1 km/h (3 Bft) 100,00 %
15.05.2016 16:26 10,3 C 54 % 1016,4 hPa 0,0 l/m 8,5 km/h (2 Bft) S-SW 211 0 min 0,000 mm 1,0 UV-I 195 W/m 1,4 C 8,8 C 14,5 km/h (3 Bft) 96,43 %
15.05.2016 16:27 10,3 C 53 % 1016,4 hPa 0,0 l/m 13,4 km/h (3 Bft) W 276 0 min 0,000 mm 0,9 UV-I 184 W/m 1,1 C 6,2 C 24,1 km/h (4 Bft) 91,67 %
15.05.2016 16:28 10,3 C 53 % 1016,4 hPa 0,0 l/m 17,1 km/h (3 Bft) W-SW 248 0 min 0,000 mm 0,9 UV-I 97 W/m 1,1 C 4,7 C 24,1 km/h (4 Bft) 100,00 %
15.05.2016 16:29 10,3 C 53 % 1016,4 hPa 0,0 l/m 10,9 km/h (2 Bft) W 261 0 min 0,000 mm 0,9 UV-I 139 W/m 1,1 C 7,4 C 17,7 km/h (3 Bft) 91,67 %
15.05.2016 16:30 10,2 C 53 % 1016,4 hPa 0,0 l/m 15,4 km/h (3 Bft) W-SW 246 0 min 0,000 mm 0,9 UV-I 244 W/m 1,1 C 5,2 C 19,3 km/h (3 Bft) 100,00 %
15.05.2016 16:31 10,2 C 54 % 1016,4 hPa 0,0 l/m 13,6 km/h (3 Bft) W-NW 300 0 min 0,000 mm 1,0 UV-I 266 W/m 1,3 C 6,0 C 22,5 km/h (4 Bft) 96,67 %
15.05.2016 16:32 10,2 C 54 % 1016,3 hPa 0,0 l/m 16,5 km/h (3 Bft) W 259 0 min 0,000 mm 1,0 UV-I 282 W/m 1,3 C 4,8 C 29,0 km/h (5 Bft) 100,00 %
15.05.2016 16:33 10,2 C 53 % 1016,3 hPa 0,0 l/m 17,2 km/h (3 Bft) W 279 0 min 0,000 mm 1,1 UV-I 320 W/m 1,1 C 4,5 C 24,1 km/h (4 Bft) 93,33 %
15.05.2016 16:34 10,2 C 53 % 1016,4 hPa 0,0 l/m 15,9 km/h (3 Bft) W 263 0 min 0,000 mm 1,1 UV-I 310 W/m 1,1 C 5,0 C 20,9 km/h (4 Bft) 92,31 %
15.05.2016 16:35 10,2 C 53 % 1016,4 hPa 0,0 l/m 11,3 km/h (2 Bft) W-NW 291 0 min 0,000 mm 1,1 UV-I 290 W/m 1,1 C 7,1 C 16,1 km/h (3 Bft) 100,00 %
15.05.2016 16:36 10,2 C 55 % 1016,4 hPa 0,0 l/m 17,1 km/h (3 Bft) W-SW 257 0 min 0,000 mm 1,0 UV-I 255 W/m 1,6 C 4,5 C 25,7 km/h (4 Bft) 92,86 %
15.05.2016 16:37 10,2 C 54 % 1016,4 hPa 0,0 l/m 18,1 km/h (3 Bft) W-SW 248 0 min 0,000 mm 0,8 UV-I 214 W/m 1,3 C 4,2 C 25,7 km/h (4 Bft) 100,00 %
15.05.2016 16:38 10,2 C 55 % 1016,4 hPa 0,0 l/m 15,4 km/h (3 Bft) W-SW 246 0 min 0,000 mm 0,6 UV-I 170 W/m 1,6 C 5,2 C 20,9 km/h (4 Bft) 95,83 %
15.05.2016 16:39 10,2 C 54 % 1016,4 hPa 0,0 l/m 13,1 km/h (3 Bft) W-SW 249 0 min 0,000 mm 0,5 UV-I 138 W/m 1,3 C 6,2 C 17,7 km/h (3 Bft) 100,00 %
15.05.2016 16:40 10,2 C 55 % 1016,5 hPa 0,0 l/m 15,4 km/h (3 Bft) W-NW 294 0 min 0,000 mm 0,0 UV-I 119 W/m 1,6 C 5,2 C 20,9 km/h (4 Bft) 95,83 %
15.05.2016 16:41 10,1 C 54 % 1016,4 hPa 0,0 l/m 13,2 km/h (3 Bft) W-SW 247 0 min 0,000 mm 0,0 UV-I 116 W/m 1,2 C 6,0 C 17,7 km/h (3 Bft) 92,59 %
15.05.2016 16:42 10,1 C 54 % 1016,5 hPa 0,0 l/m 14,1 km/h (3 Bft) W 266 0 min 0,000 mm 0,2 UV-I 124 W/m 1,2 C 5,6 C 17,7 km/h (3 Bft) 96,15 %
15.05.2016 16:43 10,1 C 55 % 1016,4 hPa 0,0 l/m 14,6 km/h (3 Bft) W 259 0 min 0,000 mm 0,5 UV-I 138 W/m 1,5 C 5,4 C 20,9 km/h (4 Bft) 96,30 %
15.05.2016 16:44 10,0 C 55 % 1016,5 hPa 0,0 l/m 14,2 km/h (3 Bft) W 273 0 min 0,000 mm 0,5 UV-I 154 W/m 1,4 C 5,5 C 19,3 km/h (3 Bft) 100,00 %
15.05.2016 16:45 10,0 C 56 % 1016,4 hPa 0,0 l/m 9,9 km/h (2 Bft) W-SW 253 0 min 0,000 mm 0,6 UV-I 166 W/m 1,6 C 7,7 C 16,1 km/h (3 Bft) 96,15 %
15.05.2016 16:46 10,0 C 56 % 1016,5 hPa 0,0 l/m 14,4 km/h (3 Bft) W-SW 246 0 min 0,000 mm 0,6 UV-I 184 W/m 1,6 C 5,4 C 20,9 km/h (4 Bft) 100,00 %
15.05.2016 16:47 10,0 C 57 % 1016,5 hPa 0,0 l/m 11,7 km/h (2 Bft) W-SW 245 0 min 0,000 mm 0,7 UV-I 228 W/m 1,9 C 6,7 C 17,7 km/h (3 Bft) 95,65 %
15.05.2016 16:48 10,0 C 56 % 1016,5 hPa 0,0 l/m 14,5 km/h (3 Bft) W-NW 284 0 min 0,000 mm 0,8 UV-I 265 W/m 1,6 C 5,3 C 19,3 km/h (3 Bft) 100,00 %
15.05.2016 16:49 10,0 C 55 % 1016,5 hPa 0,0 l/m 18,5 km/h (3 Bft) W-SW 254 0 min 0,000 mm 0,8 UV-I 247 W/m 1,4 C 3,8 C 25,7 km/h (4 Bft) 100,00 %
15.05.2016 16:50 10,0 C 55 % 1016,6 hPa 0,0 l/m 19,1 km/h (3 Bft) W-SW 251 0 min 0,000 mm 0,9 UV-I 238 W/m 1,4 C 3,6 C 25,7 km/h (4 Bft) 100,00 %
15.05.2016 16:51 10,0 C 56 % 1016,5 hPa 0,0 l/m 12,7 km/h (3 Bft) W-NW 285 0 min 0,000 mm 0,9 UV-I 248 W/m 1,6 C 6,2 C 17,7 km/h (3 Bft) 100,00 %
15.05.2016 16:52 10,0 C 55 % 1016,5 hPa 0,0 l/m 10,0 km/h (2 Bft) W-SW 254 0 min 0,000 mm 0,9 UV-I 248 W/m 1,4 C 7,6 C 16,1 km/h (3 Bft) 100,00 %
15.05.2016 16:53 10,0 C 55 % 1016,5 hPa 0,0 l/m 10,6 km/h (2 Bft) SW 231 0 min 0,000 mm 0,9 UV-I 245 W/m 1,4 C 7,3 C 19,3 km/h (3 Bft) 95,65 %
15.05.2016 16:54 10,0 C 54 % 1016,5 hPa 0,0 l/m 10,2 km/h (2 Bft) SW 234 0 min 0,000 mm 0,9 UV-I 236 W/m 1,1 C 7,5 C 14,5 km/h (3 Bft) 100,00 %
15.05.2016 16:55 10,0 C 55 % 1016,5 hPa 0,0 l/m 11,8 km/h (2 Bft) W 271 0 min 0,000 mm 0,9 UV-I 221 W/m 1,4 C 6,6 C 14,5 km/h (3 Bft) 100,00 %
15.05.2016 16:56 10,1 C 55 % 1016,5 hPa 0,0 l/m 14,7 km/h (3 Bft) SW 227 0 min 0,000 mm 0,8 UV-I 203 W/m 1,5 C 5,4 C 20,9 km/h (4 Bft) 91,67 %
15.05.2016 16:57 10,0 C 54 % 1016,5 hPa 0,0 l/m 12,9 km/h (3 Bft) W 270 0 min 0,000 mm 0,7 UV-I 187 W/m 1,1 C 6,1 C 17,7 km/h (3 Bft) 96,30 %
15.05.2016 16:58 10,0 C 55 % 1016,5 hPa 0,0 l/m 12,2 km/h (2 Bft) W-SW 258 0 min 0,000 mm 0,6 UV-I 177 W/m 1,4 C 6,4 C 17,7 km/h (3 Bft) 100,00 %
15.05.2016 16:59 10,0 C 55 % 1016,5 hPa 0,0 l/m 17,7 km/h (3 Bft) W 261 0 min 0,000 mm 0,6 UV-I 170 W/m 1,4 C 4,1 C 22,5 km/h (4 Bft) 100,00 %
15.05.2016 17:00 10,0 C 55 % 1016,5 hPa 0,0 l/m 13,1 km/h (3 Bft) W-SW 251 0 min 0,000 mm 0,6 UV-I 168 W/m 1,4 C 6,0 C 19,3 km/h (3 Bft) 100,00 %
15.05.2016 17:02 9,9 C 54 % 1016,5 hPa 0,0 l/m 16,5 km/h (3 Bft) SW 228 0 min 0,178 mm 0,6 UV-I 171 W/m 1,0 C 4,4 C 27,4 km/h (4 Bft) 100,00 %
15.05.2016 17:03 9,9 C 54 % 1016,5 hPa 0,0 l/m 15,2 km/h (3 Bft) W-SW 254 0 min 0,000 mm 0,6 UV-I 168 W/m 1,0 C 4,9 C 22,5 km/h (4 Bft) 100,00 %
15.05.2016 17:04 9,9 C 54 % 1016,6 hPa 0,0 l/m 16,7 km/h (3 Bft) W 269 0 min 0,000 mm 0,6 UV-I 160 W/m 1,0 C 4,3 C 24,1 km/h (4 Bft) 100,00 %
15.05.2016 17:05 9,9 C 55 % 1016,5 hPa 0,0 l/m 12,7 km/h (3 Bft) W-SW 252 0 min 0,000 mm 0,5 UV-I 150 W/m 1,3 C 6,1 C 19,3 km/h (3 Bft) 100,00 %
15.05.2016 17:06 9,9 C 56 % 1016,6 hPa 0,0 l/m 18,7 km/h (3 Bft) W-SW 257 0 min 0,000 mm 0,5 UV-I 143 W/m 1,5 C 3,6 C 25,7 km/h (4 Bft) 96,15 %
15.05.2016 17:07 9,8 C 57 % 1016,5 hPa 0,0 l/m 16,8 km/h (3 Bft) W-SW 251 0 min 0,000 mm 0,5 UV-I 142 W/m 1,7 C 4,2 C 20,9 km/h (4 Bft) 100,00 %
15.05.2016 17:08 9,8 C 56 % 1016,6 hPa 0,0 l/m 14,5 km/h (3 Bft) SW 229 0 min 0,000 mm 0,5 UV-I 147 W/m 1,4 C 5,1 C 20,9 km/h (4 Bft) 94,12 %
15.05.2016 17:09 9,8 C 57 % 1016,5 hPa 0,0 l/m 11,6 km/h (2 Bft) SW 234 0 min 0,000 mm 0,5 UV-I 161 W/m 1,7 C 6,5 C 20,9 km/h (4 Bft) 100,00 %
15.05.2016 17:10 9,8 C 56 % 1016,5 hPa 0,0 l/m 13,0 km/h (3 Bft) W-SW 254 0 min 0,000 mm 0,5 UV-I 175 W/m 1,4 C 5,8 C 20,9 km/h (4 Bft) 100,00 %
15.05.2016 17:11 9,8 C 57 % 1016,6 hPa 0,0 l/m 16,8 km/h (3 Bft) W-SW 244 0 min 0,000 mm 0,6 UV-I 186 W/m 1,7 C 4,2 C 19,3 km/h (3 Bft) 100,00 %
15.05.2016 17:12 9,8 C 56 % 1016,5 hPa 0,0 l/m 15,0 km/h (3 Bft) SW 235 0 min 0,000 mm 0,6 UV-I 193 W/m 1,4 C 4,9 C 19,3 km/h (3 Bft) 100,00 %
15.05.2016 17:13 9,8 C 56 % 1016,6 hPa 0,0 l/m 16,4 km/h (3 Bft) SW 236 0 min 0,000 mm 0,6 UV-I 204 W/m 1,4 C 4,3 C 22,5 km/h (4 Bft) 100,00 %
15.05.2016 17:14 9,9 C 56 % 1016,5 hPa 0,0 l/m 9,0 km/h (2 Bft) W 263 0 min 0,000 mm 0,7 UV-I 229 W/m 1,5 C 8,1 C 14,5 km/h (3 Bft) 100,00 %
15.05.2016 17:15 9,9 C 57 % 1016,6 hPa 0,0 l/m 14,9 km/h (3 Bft) SW 233 0 min 0,000 mm 0,8 UV-I 281 W/m 1,8 C 5,1 C 19,3 km/h (3 Bft) 100,00 %
15.05.2016 17:16 9,9 C 58 % 1016,5 hPa 0,0 l/m 12,0 km/h (2 Bft) W 263 1 min 0,000 mm 0,9 UV-I 323 W/m 2,0 C 6,4 C 19,3 km/h (3 Bft) 100,00 %
15.05.2016 17:17 10,0 C 58 % 1016,5 hPa 0,0 l/m 9,0 km/h (2 Bft) SW 217 1 min 0,000 mm 1,0 UV-I 323 W/m 2,1 C 8,2 C 12,9 km/h (3 Bft) 100,00 %
15.05.2016 17:18 10,1 C 57 % 1016,5 hPa 0,0 l/m 14,0 km/h (3 Bft) W-SW 241 0 min 0,000 mm 0,8 UV-I 253 W/m 2,0 C 5,7 C 17,7 km/h (3 Bft) 100,00 %
15.05.2016 17:19 10,1 C 57 % 1016,5 hPa 0,0 l/m 9,9 km/h (2 Bft) W-SW 238 0 min 0,000 mm 0,8 UV-I 204 W/m 2,0 C 7,8 C 14,5 km/h (3 Bft) 100,00 %
15.05.2016 17:20 10,1 C 58 % 1016,5 hPa 0,0 l/m 12,4 km/h (3 Bft) W-SW 252 0 min 0,000 mm 0,7 UV-I 179 W/m 2,2 C 6,4 C 20,9 km/h (4 Bft) 100,00 %
15.05.2016 17:21 10,1 C 57 % 1016,5 hPa 0,0 l/m 15,5 km/h (3 Bft) W-SW 244 0 min 0,000 mm 0,7 UV-I 179 W/m 2,0 C 5,0 C 19,3 km/h (3 Bft) 100,00 %
15.05.2016 17:22 10,2 C 56 % 1016,5 hPa 0,0 l/m 10,9 km/h (2 Bft) W 262 0 min 0,000 mm 0,7 UV-I 223 W/m 1,8 C 7,3 C 16,1 km/h (3 Bft) 100,00 %
15.05.2016 17:23 10,2 C 58 % 1016,5 hPa 0,0 l/m 16,2 km/h (3 Bft) W 270 1 min 0,000 mm 0,8 UV-I 277 W/m 2,3 C 4,9 C 20,9 km/h (4 Bft) 100,00 %
15.05.2016 17:24 10,2 C 56 % 1016,5 hPa 0,0 l/m 9,6 km/h (2 Bft) SW 226 1 min 0,000 mm 0,8 UV-I 280 W/m 1,8 C 8,0 C 16,1 km/h (3 Bft) 100,00 %
15.05.2016 17:25 10,2 C 57 % 1016,5 hPa 0,0 l/m 12,3 km/h (3 Bft) NW 304 0 min 0,000 mm 0,8 UV-I 238 W/m 2,1 C 6,6 C 22,5 km/h (4 Bft) 100,00 %
15.05.2016 17:26 10,2 C 57 % 1016,5 hPa 0,0 l/m 14,0 km/h (3 Bft) W 265 0 min 0,000 mm 0,7 UV-I 206 W/m 2,1 C 5,8 C 19,3 km/h (3 Bft) 100,00 %
15.05.2016 17:27 10,2 C 58 % 1016,5 hPa 0,0 l/m 12,4 km/h (3 Bft) W-SW 248 0 min 0,000 mm 0,7 UV-I 207 W/m 2,3 C 6,5 C 17,7 km/h (3 Bft) 95,65 %
15.05.2016 17:28 10,2 C 59 % 1016,5 hPa 0,0 l/m 13,0 km/h (3 Bft) SW 220 0 min 0,000 mm 0,7 UV-I 205 W/m 2,6 C 6,3 C 17,7 km/h (3 Bft) 100,00 %
15.05.2016 17:29 10,2 C 58 % 1016,5 hPa 0,0 l/m 11,6 km/h (2 Bft) W-SW 251 0 min 0,000 mm 0,7 UV-I 194 W/m 2,3 C 6,9 C 22,5 km/h (4 Bft) 100,00 %
15.05.2016 17:30 10,2 C 58 % 1016,5 hPa 0,0 l/m 11,9 km/h (2 Bft) W-SW 258 0 min 0,000 mm 0,6 UV-I 196 W/m 2,3 C 6,8 C 19,3 km/h (3 Bft) 100,00 %
15.05.2016 17:31 10,2 C 58 % 1016,5 hPa 0,0 l/m 13,1 km/h (3 Bft) W 273 0 min 0,000 mm 0,6 UV-I 207 W/m 2,3 C 6,2 C 17,7 km/h (3 Bft) 100,00 %
15.05.2016 17:32 10,1 C 57 % 1016,5 hPa 0,0 l/m 9,5 km/h (2 Bft) W-SW 257 0 min 0,000 mm 0,6 UV-I 255 W/m 2,0 C 8,0 C 12,9 km/h (3 Bft) 100,00 %
15.05.2016 17:33 10,2 C 59 % 1016,5 hPa 0,0 l/m 7,6 km/h (2 Bft) W 267 1 min 0,000 mm 0,7 UV-I 293 W/m 2,6 C 9,3 C 11,3 km/h (2 Bft) 100,00 %
15.05.2016 17:34 10,2 C 60 % 1016,5 hPa 0,0 l/m 12,7 km/h (3 Bft) W-SW 250 1 min 0,000 mm 0,7 UV-I 303 W/m 2,8 C 6,4 C 16,1 km/h (3 Bft) 96,30 %
15.05.2016 17:35 10,2 C 60 % 1016,5 hPa 0,0 l/m 9,1 km/h (2 Bft) W-SW 248 1 min 0,000 mm 0,7 UV-I 275 W/m 2,8 C 8,4 C 12,9 km/h (3 Bft) 100,00 %
15.05.2016 17:36 10,3 C 61 % 1016,5 hPa 0,0 l/m 10,9 km/h (2 Bft) W-SW 237 1 min 0,000 mm 0,8 UV-I 320 W/m 3,1 C 7,4 C 16,1 km/h (3 Bft) 100,00 %
15.05.2016 17:37 10,3 C 61 % 1016,5 hPa 0,0 l/m 10,5 km/h (2 Bft) W-SW 255 1 min 0,000 mm 0,8 UV-I 407 W/m 3,1 C 7,6 C 14,5 km/h (3 Bft) 95,83 %
15.05.2016 17:38 10,4 C 62 % 1016,5 hPa 0,0 l/m 13,7 km/h (3 Bft) W 272 1 min 0,000 mm 0,8 UV-I 446 W/m 3,4 C 6,2 C 19,3 km/h (3 Bft) 100,00 %
15.05.2016 17:39 10,5 C 59 % 1016,4 hPa 0,0 l/m 12,9 km/h (3 Bft) W-SW 254 1 min 0,000 mm 0,8 UV-I 432 W/m 2,8 C 6,7 C 19,3 km/h (3 Bft) 100,00 %
15.05.2016 17:40 10,5 C 58 % 1016,4 hPa 0,0 l/m 11,5 km/h (2 Bft) W 259 1 min 0,000 mm 0,9 UV-I 438 W/m 2,6 C 7,3 C 19,3 km/h (3 Bft) 100,00 %
15.05.2016 17:41 10,6 C 58 % 1016,5 hPa 0,0 l/m 15,4 km/h (3 Bft) SW 227 1 min 0,000 mm 0,8 UV-I 424 W/m 2,7 C 5,7 C 20,9 km/h (4 Bft) 100,00 %
15.05.2016 17:42 10,7 C 58 % 1016,5 hPa 0,0 l/m 11,3 km/h (2 Bft) W 266 1 min 0,000 mm 0,7 UV-I 432 W/m 2,8 C 7,7 C 20,9 km/h (4 Bft) 100,00 %
15.05.2016 17:43 10,7 C 58 % 1016,5 hPa 0,0 l/m 14,2 km/h (3 Bft) W-SW 247 0 min 0,000 mm 0,7 UV-I 223 W/m 2,8 C 6,3 C 22,5 km/h (4 Bft) 100,00 %
15.05.2016 17:44 10,7 C 60 % 1016,5 hPa 0,0 l/m 16,2 km/h (3 Bft) W-SW 245 0 min 0,000 mm 0,6 UV-I 164 W/m 3,3 C 5,5 C 22,5 km/h (4 Bft) 100,00 %
15.05.2016 17:45 10,6 C 58 % 1016,4 hPa 0,0 l/m 12,2 km/h (2 Bft) SW 218 0 min 0,000 mm 0,6 UV-I 152 W/m 2,7 C 7,1 C 19,3 km/h (3 Bft) 100,00 %
15.05.2016 17:46 10,4 C 58 % 1016,5 hPa 0,0 l/m 12,7 km/h (3 Bft) SW 235 0 min 0,000 mm 0,6 UV-I 153 W/m 2,5 C 6,6 C 17,7 km/h (3 Bft) 100,00 %
15.05.2016 17:47 10,4 C 59 % 1016,5 hPa 0,0 l/m 7,6 km/h (2 Bft) W-SW 248 0 min 0,000 mm 0,6 UV-I 182 W/m 2,7 C 9,5 C 9,7 km/h (2 Bft) 100,00 %
15.05.2016 17:48 10,3 C 60 % 1016,5 hPa 0,0 l/m 12,7 km/h (3 Bft) S-SW 209 0 min 0,000 mm 0,6 UV-I 177 W/m 2,9 C 6,5 C 17,7 km/h (3 Bft) 96,15 %
15.05.2016 17:49 10,3 C 60 % 1016,5 hPa 0,0 l/m 16,0 km/h (3 Bft) W 259 0 min 0,000 mm 0,5 UV-I 185 W/m 2,9 C 5,1 C 19,3 km/h (3 Bft) 100,00 %
15.05.2016 17:50 10,2 C 61 % 1016,5 hPa 0,0 l/m 11,4 km/h (2 Bft) S-SW 197 0 min 0,000 mm 0,5 UV-I 182 W/m 3,0 C 7,1 C 17,7 km/h (3 Bft) 100,00 %
15.05.2016 17:51 10,2 C 62 % 1016,5 hPa 0,0 l/m 12,7 km/h (3 Bft) SW 231 0 min 0,000 mm 0,4 UV-I 157 W/m 3,3 C 6,4 C 20,9 km/h (4 Bft) 100,00 %
15.05.2016 17:52 10,1 C 62 % 1016,5 hPa 0,0 l/m 12,3 km/h (3 Bft) SW 215 0 min 0,000 mm 0,0 UV-I 137 W/m 3,2 C 6,5 C 17,7 km/h (3 Bft) 100,00 %
15.05.2016 17:53 10,1 C 62 % 1016,5 hPa 0,0 l/m 12,4 km/h (3 Bft) S-SW 203 0 min 0,000 mm 0,0 UV-I 136 W/m 3,2 C 6,4 C 16,1 km/h (3 Bft) 100,00 %
15.05.2016 17:54 10,0 C 61 % 1016,6 hPa 0,0 l/m 10,8 km/h (2 Bft) W-SW 240 0 min 0,000 mm 0,0 UV-I 148 W/m 2,8 C 7,1 C 14,5 km/h (3 Bft) 100,00 %
15.05.2016 17:55 9,9 C 62 % 1016,5 hPa 0,0 l/m 13,1 km/h (3 Bft) SW 217 0 min 0,000 mm 0,0 UV-I 163 W/m 3,0 C 5,9 C 16,1 km/h (3 Bft) 100,00 %
15.05.2016 17:56 9,8 C 63 % 1016,5 hPa 0,0 l/m 14,6 km/h (3 Bft) W-SW 247 0 min 0,000 mm 0,0 UV-I 162 W/m 3,1 C 5,1 C 20,9 km/h (4 Bft) 100,00 %
15.05.2016 17:57 9,8 C 63 % 1016,5 hPa 0,0 l/m 13,7 km/h (3 Bft) SW 217 0 min 0,000 mm 0,0 UV-I 141 W/m 3,1 C 5,5 C 16,1 km/h (3 Bft) 100,00 %
15.05.2016 17:58 9,8 C 63 % 1016,5 hPa 0,0 l/m 12,6 km/h (3 Bft) W 264 0 min 0,000 mm 0,0 UV-I 115 W/m 3,1 C 6,0 C 16,1 km/h (3 Bft) 100,00 %
15.05.2016 17:59 9,8 C 63 % 1016,6 hPa 0,0 l/m 12,1 km/h (2 Bft) W-SW 242 0 min 0,000 mm 0,0 UV-I 101 W/m 3,1 C 6,2 C 14,5 km/h (3 Bft) 100,00 %
15.05.2016 18:00 9,8 C 63 % 1016,6 hPa 0,0 l/m 13,4 km/h (3 Bft) SW 220 0 min 0,000 mm 0,0 UV-I 92 W/m 3,1 C 5,6 C 20,9 km/h (4 Bft) 100,00 %
15.05.2016 18:02 9,8 C 60 % 1016,5 hPa 0,0 l/m 16,5 km/h (3 Bft) W-SW 258 0 min 0,152 mm 0,0 UV-I 101 W/m 2,4 C 4,3 C 29,0 km/h (5 Bft) 100,00 %
15.05.2016 18:03 9,8 C 61 % 1016,6 hPa 0,0 l/m 10,7 km/h (2 Bft) W 281 0 min 0,000 mm 0,0 UV-I 132 W/m 2,6 C 7,0 C 16,1 km/h (3 Bft) 96,15 %
15.05.2016 18:04 9,8 C 61 % 1016,6 hPa 0,0 l/m 14,7 km/h (3 Bft) SW 234 0 min 0,000 mm 0,0 UV-I 193 W/m 2,6 C 5,0 C 20,9 km/h (4 Bft) 100,00 %
15.05.2016 18:05 9,8 C 61 % 1016,5 hPa 0,0 l/m 18,4 km/h (3 Bft) SW 221 1 min 0,000 mm 0,0 UV-I 270 W/m 2,6 C 3,6 C 22,5 km/h (4 Bft) 100,00 %
15.05.2016 18:06 9,9 C 61 % 1016,5 hPa 0,0 l/m 14,8 km/h (3 Bft) W-SW 244 1 min 0,000 mm 0,3 UV-I 279 W/m 2,7 C 5,1 C 25,7 km/h (4 Bft) 100,00 %
15.05.2016 18:07 10,1 C 58 % 1016,5 hPa 0,0 l/m 14,6 km/h (3 Bft) W-SW 253 1 min 0,000 mm 0,5 UV-I 421 W/m 2,2 C 5,4 C 24,1 km/h (4 Bft) 100,00 %
15.05.2016 18:08 10,2 C 58 % 1016,5 hPa 0,0 l/m 13,3 km/h (3 Bft) W-NW 290 1 min 0,000 mm 0,6 UV-I 451 W/m 2,3 C 6,1 C 19,3 km/h (3 Bft) 100,00 %
15.05.2016 18:09 10,3 C 58 % 1016,5 hPa 0,0 l/m 17,9 km/h (3 Bft) W 269 1 min 0,000 mm 0,6 UV-I 435 W/m 2,4 C 4,4 C 30,6 km/h (5 Bft) 91,67 %
15.05.2016 18:10 10,4 C 52 % 1016,4 hPa 0,0 l/m 12,8 km/h (3 Bft) W 281 1 min 0,000 mm 0,6 UV-I 404 W/m 1,0 C 6,6 C 17,7 km/h (3 Bft) 97,73 %
15.05.2016 18:11 10,6 C 53 % 1016,4 hPa 0,0 l/m 10,9 km/h (2 Bft) W 260 1 min 0,000 mm 0,6 UV-I 394 W/m 1,4 C 7,8 C 20,9 km/h (4 Bft) 95,65 %
15.05.2016 18:12 10,6 C 52 % 1016,4 hPa 0,0 l/m 10,9 km/h (2 Bft) W 279 1 min 0,000 mm 0,6 UV-I 361 W/m 1,2 C 7,8 C 22,5 km/h (4 Bft) 100,00 %
15.05.2016 18:13 10,7 C 54 % 1016,4 hPa 0,0 l/m 8,2 km/h (2 Bft) W 274 1 min 0,000 mm 0,6 UV-I 337 W/m 1,8 C 9,5 C 14,5 km/h (3 Bft) 96,55 %
15.05.2016 18:14 10,7 C 54 % 1016,4 hPa 0,0 l/m 12,2 km/h (2 Bft) W-SW 238 1 min 0,000 mm 0,5 UV-I 323 W/m 1,8 C 7,2 C 17,7 km/h (3 Bft) 96,30 %
15.05.2016 18:15 10,7 C 54 % 1016,5 hPa 0,0 l/m 18,9 km/h (3 Bft) W-SW 258 1 min 0,000 mm 0,5 UV-I 312 W/m 1,8 C 4,5 C 29,0 km/h (5 Bft) 100,00 %
15.05.2016 18:16 10,7 C 52 % 1016,5 hPa 0,0 l/m 16,7 km/h (3 Bft) NW 311 1 min 0,000 mm 0,5 UV-I 306 W/m 1,3 C 5,3 C 29,0 km/h (5 Bft) 100,00 %
15.05.2016 18:17 10,7 C 51 % 1016,5 hPa 0,0 l/m 15,9 km/h (3 Bft) W 259 1 min 0,000 mm 0,5 UV-I 273 W/m 1,0 C 5,6 C 22,5 km/h (4 Bft) 96,43 %
15.05.2016 18:18 10,7 C 51 % 1016,5 hPa 0,0 l/m 13,3 km/h (3 Bft) W-SW 256 1 min 0,000 mm 0,5 UV-I 251 W/m 1,0 C 6,7 C 17,7 km/h (3 Bft) 96,30 %
15.05.2016 18:19 10,7 C 51 % 1016,5 hPa 0,0 l/m 11,3 km/h (2 Bft) SW 236 1 min 0,000 mm 0,5 UV-I 272 W/m 1,0 C 7,7 C 19,3 km/h (3 Bft) 100,00 %
15.05.2016 18:20 10,7 C 51 % 1016,6 hPa 0,0 l/m 12,1 km/h (2 Bft) W-SW 244 1 min 0,000 mm 0,4 UV-I 234 W/m 1,0 C 7,3 C 17,7 km/h (3 Bft) 96,15 %
15.05.2016 18:21 10,7 C 51 % 1016,5 hPa 0,0 l/m 14,0 km/h (3 Bft) W 270 0 min 0,000 mm 0,0 UV-I 179 W/m 1,0 C 6,4 C 19,3 km/h (3 Bft) 100,00 %
15.05.2016 18:22 10,6 C 52 % 1016,5 hPa 0,0 l/m 12,6 km/h (3 Bft) W-NW 289 0 min 0,000 mm 0,0 UV-I 128 W/m 1,2 C 6,9 C 22,5 km/h (4 Bft) 95,65 %
15.05.2016 18:23 10,5 C 53 % 1016,6 hPa 0,0 l/m 17,5 km/h (3 Bft) W-SW 257 0 min 0,000 mm 0,0 UV-I 111 W/m 1,3 C 4,8 C 22,5 km/h (4 Bft) 100,00 %
15.05.2016 18:24 10,4 C 52 % 1016,5 hPa 0,0 l/m 19,5 km/h (3 Bft) W 259 0 min 0,000 mm 0,0 UV-I 104 W/m 1,0 C 4,0 C 32,2 km/h (5 Bft) 92,86 %
15.05.2016 18:25 10,4 C 52 % 1016,5 hPa 0,0 l/m 14,0 km/h (3 Bft) W-SW 246 0 min 0,000 mm 0,0 UV-I 107 W/m 1,0 C 6,0 C 19,3 km/h (3 Bft) 100,00 %
15.05.2016 18:26 10,3 C 53 % 1016,6 hPa 0,0 l/m 13,6 km/h (3 Bft) W 259 0 min 0,000 mm 0,0 UV-I 108 W/m 1,1 C 6,1 C 17,7 km/h (3 Bft) 96,88 %
15.05.2016 18:27 10,3 C 53 % 1016,6 hPa 0,0 l/m 13,3 km/h (3 Bft) W 273 0 min 0,000 mm 0,0 UV-I 128 W/m 1,1 C 6,2 C 19,3 km/h (3 Bft) 91,67 %
15.05.2016 18:28 10,2 C 53 % 1016,5 hPa 0,0 l/m 16,3 km/h (3 Bft) W 267 0 min 0,000 mm 0,0 UV-I 143 W/m 1,1 C 4,9 C 20,9 km/h (4 Bft) 98,76 %
15.05.2016 18:29 10,2 C 53 % 1016,6 hPa 0,0 l/m 18,1 km/h (3 Bft) W 281 0 min 0,000 mm 0,0 UV-I 135 W/m 1,1 C 4,2 C 25,7 km/h (4 Bft) 96,61 %
15.05.2016 18:30 10,2 C 53 % 1016,6 hPa 0,0 l/m 15,1 km/h (3 Bft) W-SW 257 0 min 0,000 mm 0,0 UV-I 170 W/m 1,1 C 5,3 C 20,9 km/h (4 Bft) 100,00 %
15.05.2016 18:31 10,2 C 53 % 1016,5 hPa 0,0 l/m 10,6 km/h (2 Bft) SW 236 1 min 0,000 mm 0,0 UV-I 205 W/m 1,1 C 7,5 C 17,7 km/h (3 Bft) 96,67 %
15.05.2016 18:32 10,2 C 54 % 1016,6 hPa 0,0 l/m 12,8 km/h (3 Bft) W-SW 256 1 min 0,000 mm 0,0 UV-I 199 W/m 1,3 C 6,4 C 16,1 km/h (3 Bft) 100,00 %
15.05.2016 18:33 10,2 C 54 % 1016,6 hPa 0,0 l/m 15,7 km/h (3 Bft) W-SW 251 1 min 0,000 mm 0,0 UV-I 194 W/m 1,3 C 5,1 C 19,3 km/h (3 Bft) 96,67 %
15.05.2016 18:34 10,2 C 53 % 1016,6 hPa 0,0 l/m 13,5 km/h (3 Bft) W 279 1 min 0,000 mm 0,0 UV-I 172 W/m 1,1 C 6,0 C 19,3 km/h (3 Bft) 92,31 %
15.05.2016 18:35 10,2 C 53 % 1016,5 hPa 0,0 l/m 14,8 km/h (3 Bft) W 265 0 min 0,000 mm 0,0 UV-I 138 W/m 1,1 C 5,5 C 19,3 km/h (3 Bft) 100,00 %
15.05.2016 18:36 10,2 C 53 % 1016,6 hPa 0,0 l/m 12,6 km/h (3 Bft) W 267 0 min 0,000 mm 0,0 UV-I 128 W/m 1,1 C 6,5 C 17,7 km/h (3 Bft) 100,00 %
15.05.2016 18:37 10,2 C 53 % 1016,5 hPa 0,0 l/m 12,2 km/h (2 Bft) W-SW 252 0 min 0,000 mm 0,0 UV-I 118 W/m 1,1 C 6,6 C 19,3 km/h (3 Bft) 97,56 %
15.05.2016 18:38 10,2 C 53 % 1016,5 hPa 0,0 l/m 12,7 km/h (3 Bft) W-SW 257 0 min 0,000 mm 0,0 UV-I 113 W/m 1,1 C 6,4 C 20,9 km/h (4 Bft) 91,67 %
15.05.2016 18:39 10,2 C 54 % 1016,5 hPa 0,0 l/m 8,1 km/h (2 Bft) W 259 0 min 0,000 mm 0,0 UV-I 128 W/m 1,3 C 9,0 C 11,3 km/h (2 Bft) 100,00 %
15.05.2016 18:40 10,1 C 53 % 1016,6 hPa 0,0 l/m 11,5 km/h (2 Bft) W-SW 249 0 min 0,000 mm 0,0 UV-I 124 W/m 1,0 C 6,9 C 20,9 km/h (4 Bft) 92,59 %
15.05.2016 18:41 10,1 C 53 % 1016,5 hPa 0,0 l/m 13,8 km/h (3 Bft) W-SW 245 0 min 0,000 mm 0,0 UV-I 109 W/m 1,0 C 5,8 C 20,9 km/h (4 Bft) 100,00 %
15.05.2016 18:42 10,1 C 54 % 1016,6 hPa 0,0 l/m 11,1 km/h (2 Bft) W-SW 240 0 min 0,000 mm 0,0 UV-I 125 W/m 1,2 C 7,1 C 17,7 km/h (3 Bft) 95,83 %
15.05.2016 18:43 10,1 C 54 % 1016,6 hPa 0,0 l/m 10,5 km/h (2 Bft) W-SW 255 0 min 0,000 mm 0,0 UV-I 117 W/m 1,2 C 7,4 C 16,1 km/h (3 Bft) 96,15 %
15.05.2016 18:44 10,1 C 55 % 1016,6 hPa 0,0 l/m 12,2 km/h (2 Bft) W-SW 257 0 min 0,000 mm 0,0 UV-I 120 W/m 1,5 C 6,5 C 16,1 km/h (3 Bft) 100,00 %
15.05.2016 18:45 10,1 C 53 % 1016,6 hPa 0,0 l/m 14,0 km/h (3 Bft) W 259 0 min 0,000 mm 0,0 UV-I 120 W/m 1,0 C 5,7 C 17,7 km/h (3 Bft) 96,15 %
15.05.2016 18:46 10,1 C 53 % 1016,6 hPa 0,0 l/m 15,4 km/h (3 Bft) W-SW 245 0 min 0,000 mm 0,0 UV-I 118 W/m 1,0 C 5,1 C 20,9 km/h (4 Bft) 100,00 %
15.05.2016 18:47 10,1 C 54 % 1016,5 hPa 0,0 l/m 15,0 km/h (3 Bft) W-SW 257 0 min 0,000 mm 0,0 UV-I 118 W/m 1,2 C 5,3 C 20,9 km/h (4 Bft) 100,00 %
15.05.2016 18:48 10,1 C 54 % 1016,6 hPa 0,0 l/m 12,4 km/h (3 Bft) W 268 0 min 0,000 mm 0,0 UV-I 116 W/m 1,2 C 6,4 C 19,3 km/h (3 Bft) 100,00 %
15.05.2016 18:49 10,1 C 54 % 1016,6 hPa 0,0 l/m 11,9 km/h (2 Bft) SW 229 0 min 0,000 mm 0,0 UV-I 117 W/m 1,2 C 6,7 C 17,7 km/h (3 Bft) 100,00 %
15.05.2016 18:50 10,1 C 53 % 1016,6 hPa 0,0 l/m 10,7 km/h (2 Bft) W 278 0 min 0,000 mm 0,0 UV-I 119 W/m 1,0 C 7,3 C 19,3 km/h (3 Bft) 100,00 %
15.05.2016 18:51 10,1 C 53 % 1016,6 hPa 0,0 l/m 9,4 km/h (2 Bft) W-SW 256 0 min 0,000 mm 0,0 UV-I 130 W/m 1,0 C 8,1 C 14,5 km/h (3 Bft) 95,65 %
15.05.2016 18:52 10,1 C 55 % 1016,6 hPa 0,0 l/m 7,5 km/h (2 Bft) W-SW 248 0 min 0,000 mm 0,0 UV-I 143 W/m 1,5 C 9,3 C 12,9 km/h (3 Bft) 95,83 %
15.05.2016 18:53 10,1 C 55 % 1016,6 hPa 0,0 l/m 8,4 km/h (2 Bft) W-SW 255 1 min 0,000 mm 0,0 UV-I 153 W/m 1,5 C 8,7 C 12,9 km/h (3 Bft) 98,72 %
15.05.2016 18:54 10,1 C 55 % 1016,6 hPa 0,0 l/m 10,4 km/h (2 Bft) W-SW 249 1 min 0,000 mm 0,0 UV-I 153 W/m 1,5 C 7,5 C 12,9 km/h (3 Bft) 100,00 %
15.05.2016 18:55 10,1 C 56 % 1016,6 hPa 0,0 l/m 14,5 km/h (3 Bft) SW 234 1 min 0,000 mm 0,0 UV-I 156 W/m 1,7 C 5,5 C 20,9 km/h (4 Bft) 100,00 %
15.05.2016 18:56 10,1 C 54 % 1016,6 hPa 0,0 l/m 11,8 km/h (2 Bft) W 265 1 min 0,000 mm 0,0 UV-I 161 W/m 1,2 C 6,7 C 16,1 km/h (3 Bft) 100,00 %
15.05.2016 18:57 10,1 C 53 % 1016,6 hPa 0,0 l/m 7,1 km/h (2 Bft) W-SW 257 1 min 0,000 mm 0,0 UV-I 162 W/m 1,0 C 9,6 C 11,3 km/h (2 Bft) 96,15 %
15.05.2016 18:58 10,2 C 55 % 1016,7 hPa 0,0 l/m 12,5 km/h (3 Bft) W 269 1 min 0,000 mm 0,0 UV-I 186 W/m 1,6 C 6,5 C 16,1 km/h (3 Bft) 91,67 %
15.05.2016 18:59 10,2 C 55 % 1016,6 hPa 0,0 l/m 8,1 km/h (2 Bft) W-SW 244 1 min 0,000 mm 0,0 UV-I 175 W/m 1,6 C 9,0 C 14,5 km/h (3 Bft) 100,00 %
15.05.2016 19:00 10,2 C 55 % 1016,7 hPa 0,0 l/m 11,2 km/h (2 Bft) W-SW 245 1 min 0,000 mm 0,0 UV-I 170 W/m 1,6 C 7,2 C 14,5 km/h (3 Bft) 100,00 %
15.05.2016 19:02 10,3 C 56 % 1016,7 hPa 0,0 l/m 10,5 km/h (2 Bft) SW 229 2 min 0,152 mm 0,0 UV-I 168 W/m 1,9 C 7,6 C 16,1 km/h (3 Bft) 100,00 %
15.05.2016 19:03 10,3 C 55 % 1016,7 hPa 0,0 l/m 7,7 km/h (2 Bft) W-SW 244 1 min 0,000 mm 0,0 UV-I 175 W/m 1,7 C 9,4 C 11,3 km/h (2 Bft) 100,00 %
15.05.2016 19:04 10,3 C 56 % 1016,7 hPa 0,0 l/m 8,1 km/h (2 Bft) W 260 1 min 0,000 mm 0,0 UV-I 174 W/m 1,9 C 9,1 C 14,5 km/h (3 Bft) 95,65 %
15.05.2016 19:05 10,3 C 56 % 1016,7 hPa 0,0 l/m 6,7 km/h (2 Bft) S-SW 198 1 min 0,000 mm 0,0 UV-I 175 W/m 1,9 C 10,1 C 8,0 km/h (2 Bft) 100,00 %
15.05.2016 19:06 10,3 C 58 % 1016,7 hPa 0,0 l/m 12,2 km/h (2 Bft) W 269 1 min 0,000 mm 0,0 UV-I 169 W/m 2,4 C 6,8 C 17,7 km/h (3 Bft) 100,00 %
15.05.2016 19:07 10,3 C 57 % 1016,7 hPa 0,0 l/m 10,4 km/h (2 Bft) S-SW 210 1 min 0,000 mm 0,0 UV-I 165 W/m 2,2 C 7,7 C 16,1 km/h (3 Bft) 95,83 %
15.05.2016 19:08 10,3 C 58 % 1016,7 hPa 0,0 l/m 8,9 km/h (2 Bft) W-SW 244 1 min 0,000 mm 0,0 UV-I 156 W/m 2,4 C 8,6 C 12,9 km/h (3 Bft) 100,00 %
15.05.2016 19:09 10,3 C 64 % 1016,7 hPa 0,0 l/m 11,8 km/h (2 Bft) S-SW 199 1 min 0,000 mm 0,0 UV-I 151 W/m 3,8 C 7,0 C 17,7 km/h (3 Bft) 100,00 %
15.05.2016 19:10 10,3 C 66 % 1016,7 hPa 0,0 l/m 10,9 km/h (2 Bft) W-SW 243 0 min 0,000 mm 0,0 UV-I 95 W/m 4,2 C 7,4 C 16,1 km/h (3 Bft) 96,55 %
15.05.2016 19:11 10,2 C 67 % 1016,7 hPa 0,0 l/m 10,9 km/h (2 Bft) SW 215 0 min 0,000 mm 0,0 UV-I 68 W/m 4,4 C 7,3 C 14,5 km/h (3 Bft) 100,00 %
15.05.2016 19:12 10,1 C 68 % 1016,8 hPa 0,0 l/m 12,8 km/h (3 Bft) SW 224 0 min 0,000 mm 0,0 UV-I 108 W/m 4,5 C 6,2 C 17,7 km/h (3 Bft) 100,00 %
15.05.2016 19:13 9,9 C 68 % 1016,7 hPa 0,0 l/m 14,5 km/h (3 Bft) W-SW 238 0 min 0,000 mm 0,0 UV-I 94 W/m 4,3 C 5,2 C 22,5 km/h (4 Bft) 100,00 %
15.05.2016 19:14 9,8 C 69 % 1016,8 hPa 0,0 l/m 11,2 km/h (2 Bft) S-SW 198 0 min 0,000 mm 0,0 UV-I 76 W/m 4,4 C 6,7 C 14,5 km/h (3 Bft) 100,00 %
15.05.2016 19:15 9,7 C 70 % 1016,7 hPa 0,0 l/m 14,1 km/h (3 Bft) W-SW 250 0 min 0,000 mm 0,0 UV-I 67 W/m 4,5 C 5,2 C 16,1 km/h (3 Bft) 100,00 %
15.05.2016 19:16 9,7 C 70 % 1016,7 hPa 0,0 l/m 10,2 km/h (2 Bft) W-SW 242 0 min 0,000 mm 0,0 UV-I 80 W/m 4,5 C 7,1 C 14,5 km/h (3 Bft) 100,00 %
15.05.2016 19:17 9,6 C 71 % 1016,8 hPa 0,0 l/m 10,1 km/h (2 Bft) W-SW 254 0 min 0,000 mm 0,0 UV-I 71 W/m 4,6 C 7,1 C 14,5 km/h (3 Bft) 100,00 %
15.05.2016 19:18 9,5 C 71 % 1016,8 hPa 0,0 l/m 12,8 km/h (3 Bft) SW 233 0 min 0,000 mm 0,0 UV-I 92 W/m 4,5 C 5,5 C 16,1 km/h (3 Bft) 100,00 %
15.05.2016 19:19 9,4 C 72 % 1016,8 hPa 0,0 l/m 10,8 km/h (2 Bft) S-SW 209 0 min 0,000 mm 0,0 UV-I 100 W/m 4,6 C 6,5 C 14,5 km/h (3 Bft) 100,00 %
15.05.2016 19:20 9,4 C 73 % 1016,8 hPa 0,0 l/m 10,7 km/h (2 Bft) SW 227 1 min 0,000 mm 0,0 UV-I 106 W/m 4,8 C 6,5 C 16,1 km/h (3 Bft) 100,00 %
15.05.2016 19:21 9,4 C 73 % 1016,8 hPa 0,0 l/m 11,6 km/h (2 Bft) SW 234 1 min 0,000 mm 0,0 UV-I 125 W/m 4,8 C 6,0 C 14,5 km/h (3 Bft) 100,00 %
15.05.2016 19:22 9,4 C 73 % 1016,8 hPa 0,0 l/m 11,7 km/h (2 Bft) W-SW 248 1 min 0,000 mm 0,0 UV-I 139 W/m 4,8 C 6,0 C 16,1 km/h (3 Bft) 100,00 %
15.05.2016 19:23 9,4 C 73 % 1016,8 hPa 0,0 l/m 8,5 km/h (2 Bft) SW 216 1 min 0,000 mm 0,0 UV-I 141 W/m 4,8 C 7,9 C 14,5 km/h (3 Bft) 100,00 %
15.05.2016 19:24 9,4 C 73 % 1016,8 hPa 0,0 l/m 9,2 km/h (2 Bft) W-SW 252 1 min 0,000 mm 0,0 UV-I 136 W/m 4,8 C 7,4 C 14,5 km/h (3 Bft) 100,00 %
15.05.2016 19:25 9,4 C 73 % 1016,8 hPa 0,0 l/m 9,2 km/h (2 Bft) SW 221 1 min 0,000 mm 0,0 UV-I 128 W/m 4,8 C 7,4 C 14,5 km/h (3 Bft) 100,00 %
15.05.2016 19:26 9,4 C 74 % 1016,8 hPa 0,0 l/m 9,8 km/h (2 Bft) W-SW 257 1 min 0,000 mm 0,0 UV-I 123 W/m 5,0 C 7,1 C 14,5 km/h (3 Bft) 100,00 %
15.05.2016 19:27 9,4 C 73 % 1016,9 hPa 0,0 l/m 11,6 km/h (2 Bft) W-SW 239 1 min 0,000 mm 0,0 UV-I 120 W/m 4,8 C 6,0 C 14,5 km/h (3 Bft) 100,00 %
15.05.2016 19:28 9,4 C 73 % 1016,8 hPa 0,0 l/m 10,1 km/h (2 Bft) SW 235 1 min 0,000 mm 0,0 UV-I 98 W/m 4,8 C 6,9 C 16,1 km/h (3 Bft) 100,00 %
15.05.2016 19:29 9,4 C 73 % 1016,9 hPa 0,0 l/m 7,5 km/h (2 Bft) W-SW 250 0 min 0,000 mm 0,0 UV-I 70 W/m 4,8 C 8,6 C 14,5 km/h (3 Bft) 100,00 %
15.05.2016 19:30 9,4 C 73 % 1016,9 hPa 0,0 l/m 6,6 km/h (2 Bft) W 261 0 min 0,000 mm 0,0 UV-I 80 W/m 4,8 C 9,3 C 11,3 km/h (2 Bft) 100,00 %
15.05.2016 19:31 9,4 C 73 % 1016,9 hPa 0,0 l/m 9,1 km/h (2 Bft) W-SW 244 1 min 0,000 mm 0,0 UV-I 90 W/m 4,8 C 7,5 C 12,9 km/h (3 Bft) 100,00 %
15.05.2016 19:32 9,4 C 73 % 1016,9 hPa 0,0 l/m 10,4 km/h (2 Bft) W-SW 251 0 min 0,000 mm 0,0 UV-I 78 W/m 4,8 C 6,7 C 12,9 km/h (3 Bft) 100,00 %
15.05.2016 19:33 9,4 C 73 % 1016,9 hPa 0,0 l/m 7,2 km/h (2 Bft) W-SW 244 0 min 0,000 mm 0,0 UV-I 76 W/m 4,8 C 8,8 C 11,3 km/h (2 Bft) 100,00 %
15.05.2016 19:34 9,3 C 74 % 1016,8 hPa 0,0 l/m 8,4 km/h (2 Bft) W-SW 240 0 min 0,000 mm 0,0 UV-I 80 W/m 4,9 C 7,8 C 12,9 km/h (3 Bft) 100,00 %
15.05.2016 19:35 9,3 C 73 % 1016,8 hPa 0,0 l/m 5,4 km/h (1 Bft) SW 221 1 min 0,000 mm 0,0 UV-I 83 W/m 4,7 C 9,3 C 8,0 km/h (2 Bft) 100,00 %
15.05.2016 19:36 9,3 C 74 % 1016,8 hPa 0,0 l/m 7,8 km/h (2 Bft) SW 226 1 min 0,000 mm 0,0 UV-I 82 W/m 4,9 C 8,3 C 11,3 km/h (2 Bft) 100,00 %
15.05.2016 19:37 9,3 C 74 % 1016,9 hPa 0,0 l/m 6,5 km/h (2 Bft) S-SW 197 1 min 0,000 mm 0,0 UV-I 80 W/m 4,9 C 9,3 C 9,7 km/h (2 Bft) 100,00 %
15.05.2016 19:38 9,3 C 74 % 1016,8 hPa 0,0 l/m 7,0 km/h (2 Bft) SW 221 1 min 0,000 mm 0,0 UV-I 76 W/m 4,9 C 8,9 C 9,7 km/h (2 Bft) 100,00 %
15.05.2016 19:39 9,3 C 74 % 1016,9 hPa 0,0 l/m 8,8 km/h (2 Bft) W-SW 240 0 min 0,000 mm 0,0 UV-I 73 W/m 4,9 C 7,6 C 11,3 km/h (2 Bft) 100,00 %
15.05.2016 19:40 9,3 C 74 % 1016,8 hPa 0,0 l/m 8,0 km/h (2 Bft) SW 226 0 min 0,000 mm 0,0 UV-I 70 W/m 4,9 C 8,1 C 9,7 km/h (2 Bft) 98,76 %
15.05.2016 19:41 9,3 C 74 % 1016,9 hPa 0,0 l/m 10,9 km/h (2 Bft) SW 218 0 min 0,000 mm 0,0 UV-I 70 W/m 4,9 C 6,3 C 16,1 km/h (3 Bft) 100,00 %
15.05.2016 19:42 9,3 C 75 % 1016,9 hPa 0,0 l/m 9,3 km/h (2 Bft) SW 235 0 min 0,000 mm 0,0 UV-I 68 W/m 5,1 C 7,3 C 12,9 km/h (3 Bft) 100,00 %
15.05.2016 19:43 9,3 C 75 % 1016,9 hPa 0,0 l/m 8,6 km/h (2 Bft) SW 224 0 min 0,000 mm 0,0 UV-I 66 W/m 5,1 C 7,7 C 12,9 km/h (3 Bft) 100,00 %
15.05.2016 19:44 9,2 C 75 % 1017,0 hPa 0,0 l/m 8,2 km/h (2 Bft) SW 228 0 min 0,000 mm 0,0 UV-I 65 W/m 5,0 C 7,9 C 11,3 km/h (2 Bft) 100,00 %
15.05.2016 19:45 9,2 C 75 % 1017,0 hPa 0,0 l/m 11,3 km/h (2 Bft) W-SW 244 0 min 0,000 mm 0,0 UV-I 64 W/m 5,0 C 6,0 C 12,9 km/h (3 Bft) 100,00 %
15.05.2016 19:46 9,2 C 74 % 1017,0 hPa 0,0 l/m 10,1 km/h (2 Bft) S-SW 206 0 min 0,000 mm 0,0 UV-I 60 W/m 4,8 C 6,7 C 12,9 km/h (3 Bft) 100,00 %
15.05.2016 19:47 9,2 C 75 % 1017,0 hPa 0,0 l/m 7,9 km/h (2 Bft) W-SW 246 0 min 0,000 mm 0,0 UV-I 58 W/m 5,0 C 8,1 C 11,3 km/h (2 Bft) 100,00 %
15.05.2016 19:48 9,2 C 75 % 1017,0 hPa 0,0 l/m 6,6 km/h (2 Bft) SW 222 0 min 0,000 mm 0,0 UV-I 55 W/m 5,0 C 9,1 C 11,3 km/h (2 Bft) 100,00 %
15.05.2016 19:49 9,2 C 75 % 1017,0 hPa 0,0 l/m 5,5 km/h (1 Bft) W-SW 246 0 min 0,000 mm 0,0 UV-I 51 W/m 5,0 C 9,2 C 9,7 km/h (2 Bft) 100,00 %
15.05.2016 19:50 9,2 C 74 % 1017,0 hPa 0,0 l/m 8,2 km/h (2 Bft) SW 234 0 min 0,000 mm 0,0 UV-I 46 W/m 4,8 C 7,9 C 14,5 km/h (3 Bft) 100,00 %
15.05.2016 19:51 9,2 C 74 % 1017,1 hPa 0,0 l/m 5,9 km/h (2 Bft) W-SW 243 0 min 0,000 mm 0,0 UV-I 40 W/m 4,8 C 9,2 C 9,7 km/h (2 Bft) 100,00 %
15.05.2016 19:52 9,2 C 73 % 1017,1 hPa 0,0 l/m 5,3 km/h (1 Bft) W-SW 245 0 min 0,000 mm 0,0 UV-I 32 W/m 4,6 C 9,2 C 11,3 km/h (2 Bft) 100,00 %
15.05.2016 19:53 9,2 C 72 % 1017,1 hPa 0,0 l/m 9,9 km/h (2 Bft) W-SW 255 0 min 0,000 mm 0,0 UV-I 28 W/m 4,4 C 6,8 C 12,9 km/h (3 Bft) 100,00 %
15.05.2016 19:54 9,2 C 72 % 1017,1 hPa 0,0 l/m 8,5 km/h (2 Bft) SW 228 0 min 0,000 mm 0,0 UV-I 28 W/m 4,4 C 7,7 C 11,3 km/h (2 Bft) 100,00 %
15.05.2016 19:55 9,2 C 71 % 1017,1 hPa 0,0 l/m 6,4 km/h (2 Bft) W-SW 244 0 min 0,000 mm 0,0 UV-I 28 W/m 4,2 C 9,2 C 9,7 km/h (2 Bft) 100,00 %
15.05.2016 19:56 9,1 C 71 % 1017,1 hPa 0,0 l/m 6,6 km/h (2 Bft) W-SW 238 0 min 0,000 mm 0,0 UV-I 27 W/m 4,1 C 9,0 C 8,0 km/h (2 Bft) 100,00 %
15.05.2016 19:57 9,1 C 72 % 1017,2 hPa 0,0 l/m 6,0 km/h (2 Bft) W-SW 239 0 min 0,000 mm 0,0 UV-I 26 W/m 4,3 C 9,1 C 11,3 km/h (2 Bft) 100,00 %
15.05.2016 19:58 9,0 C 67 % 1017,2 hPa 0,0 l/m 9,6 km/h (2 Bft) W-NW 284 0 min 0,000 mm 0,0 UV-I 25 W/m 3,2 C 6,7 C 12,9 km/h (3 Bft) 96,30 %
15.05.2016 19:59 9,0 C 65 % 1017,2 hPa 0,0 l/m 8,9 km/h (2 Bft) W-NW 286 0 min 0,000 mm 0,0 UV-I 25 W/m 2,8 C 7,2 C 14,5 km/h (3 Bft) 100,00 %
15.05.2016 20:00 9,0 C 64 % 1017,2 hPa 0,0 l/m 8,7 km/h (2 Bft) W-SW 255 0 min 0,000 mm 0,0 UV-I 25 W/m 2,6 C 7,3 C 14,5 km/h (3 Bft) 100,00 %
15.05.2016 20:02 9,0 C 62 % 1017,2 hPa 0,0 l/m 7,3 km/h (2 Bft) W-SW 244 0 min 0,077 mm 0,0 UV-I 22 W/m 2,1 C 8,3 C 11,3 km/h (2 Bft) 100,00 %
15.05.2016 20:03 9,0 C 62 % 1017,2 hPa 0,0 l/m 7,7 km/h (2 Bft) W-SW 246 0 min 0,000 mm 0,0 UV-I 21 W/m 2,1 C 8,0 C 16,1 km/h (3 Bft) 100,00 %
15.05.2016 20:04 9,0 C 60 % 1017,2 hPa 0,0 l/m 7,1 km/h (2 Bft) W-SW 257 0 min 0,000 mm 0,0 UV-I 21 W/m 1,7 C 8,5 C 11,3 km/h (2 Bft) 100,00 %
15.05.2016 20:05 9,0 C 60 % 1017,2 hPa 0,0 l/m 6,8 km/h (2 Bft) W 270 0 min 0,000 mm 0,0 UV-I 19 W/m 1,7 C 8,7 C 11,3 km/h (2 Bft) 100,00 %
15.05.2016 20:06 9,0 C 59 % 1017,2 hPa 0,0 l/m 9,2 km/h (2 Bft) W 263 0 min 0,000 mm 0,0 UV-I 19 W/m 1,4 C 7,0 C 19,3 km/h (3 Bft) 100,00 %
15.05.2016 20:07 9,0 C 59 % 1017,2 hPa 0,0 l/m 13,4 km/h (3 Bft) W-SW 237 0 min 0,000 mm 0,0 UV-I 19 W/m 1,4 C 4,7 C 19,3 km/h (3 Bft) 100,00 %
15.05.2016 20:08 8,9 C 58 % 1017,2 hPa 0,0 l/m 8,9 km/h (2 Bft) W 271 0 min 0,000 mm 0,0 UV-I 18 W/m 1,1 C 7,1 C 11,3 km/h (2 Bft) 96,67 %
15.05.2016 20:09 8,9 C 57 % 1017,3 hPa 0,0 l/m 9,3 km/h (2 Bft) W-SW 241 0 min 0,000 mm 0,0 UV-I 18 W/m 0,9 C 6,8 C 14,5 km/h (3 Bft) 96,15 %
15.05.2016 20:10 8,9 C 56 % 1017,2 hPa 0,0 l/m 11,4 km/h (2 Bft) W-SW 245 0 min 0,000 mm 0,0 UV-I 18 W/m 0,6 C 5,6 C 17,7 km/h (3 Bft) 100,00 %
15.05.2016 20:11 8,9 C 56 % 1017,3 hPa 0,0 l/m 11,9 km/h (2 Bft) W 261 0 min 0,000 mm 0,0 UV-I 16 W/m 0,6 C 5,3 C 19,3 km/h (3 Bft) 95,65 %
15.05.2016 20:12 8,9 C 55 % 1017,3 hPa 0,0 l/m 14,1 km/h (3 Bft) W-SW 254 0 min 0,000 mm 0,0 UV-I 16 W/m 0,4 C 4,2 C 17,7 km/h (3 Bft) 100,00 %
15.05.2016 20:13 8,9 C 55 % 1017,3 hPa 0,0 l/m 11,9 km/h (2 Bft) W 274 0 min 0,000 mm 0,0 UV-I 16 W/m 0,4 C 5,3 C 14,5 km/h (3 Bft) 85,71 %
15.05.2016 20:14 8,9 C 55 % 1017,3 hPa 0,0 l/m 9,2 km/h (2 Bft) W 266 0 min 0,000 mm 0,0 UV-I 15 W/m 0,4 C 6,9 C 17,7 km/h (3 Bft) 96,30 %
15.05.2016 20:15 9,0 C 55 % 1017,3 hPa 0,0 l/m 5,6 km/h (1 Bft) W-SW 248 0 min 0,000 mm 0,0 UV-I 14 W/m 0,5 C 9,0 C 6,4 km/h (2 Bft) 96,55 %
15.05.2016 20:16 8,9 C 56 % 1017,3 hPa 0,0 l/m 7,4 km/h (2 Bft) W-SW 244 0 min 0,000 mm 0,0 UV-I 14 W/m 0,6 C 8,1 C 9,7 km/h (2 Bft) 100,00 %
15.05.2016 20:17 8,9 C 56 % 1017,4 hPa 0,0 l/m 11,1 km/h (2 Bft) W-SW 255 0 min 0,000 mm 0,0 UV-I 14 W/m 0,6 C 5,7 C 16,1 km/h (3 Bft) 91,67 %
15.05.2016 20:18 8,9 C 55 % 1017,3 hPa 0,0 l/m 7,6 km/h (2 Bft) W-SW 254 0 min 0,000 mm 0,0 UV-I 12 W/m 0,4 C 8,0 C 12,9 km/h (3 Bft) 97,56 %
15.05.2016 20:19 8,9 C 56 % 1017,3 hPa 0,0 l/m 7,4 km/h (2 Bft) W-SW 257 0 min 0,000 mm 0,0 UV-I 12 W/m 0,6 C 8,1 C 8,0 km/h (2 Bft) 100,00 %
15.05.2016 20:20 8,8 C 56 % 1017,4 hPa 0,0 l/m 8,9 km/h (2 Bft) W-SW 244 0 min 0,000 mm 0,0 UV-I 12 W/m 0,5 C 7,0 C 12,9 km/h (3 Bft) 96,97 %
15.05.2016 20:21 8,8 C 56 % 1017,4 hPa 0,0 l/m 8,4 km/h (2 Bft) W-SW 258 0 min 0,000 mm 0,0 UV-I 11 W/m 0,5 C 7,3 C 12,9 km/h (3 Bft) 100,00 %
15.05.2016 20:22 8,8 C 56 % 1017,4 hPa 0,0 l/m 11,3 km/h (2 Bft) W-SW 254 0 min 0,000 mm 0,0 UV-I 11 W/m 0,5 C 5,5 C 14,5 km/h (3 Bft) 95,65 %
15.05.2016 20:23 8,8 C 55 % 1017,4 hPa 0,0 l/m 11,1 km/h (2 Bft) W 268 1 min 0,000 mm 0,0 UV-I 11 W/m 0,3 C 5,6 C 14,5 km/h (3 Bft) 100,00 %
15.05.2016 20:24 8,7 C 56 % 1017,4 hPa 0,0 l/m 8,9 km/h (2 Bft) W 259 1 min 0,000 mm 0,0 UV-I 11 W/m 0,4 C 6,9 C 12,9 km/h (3 Bft) 91,30 %
15.05.2016 20:25 8,7 C 56 % 1017,4 hPa 0,0 l/m 8,2 km/h (2 Bft) W-SW 256 1 min 0,000 mm 0,0 UV-I 10 W/m 0,4 C 7,3 C 11,3 km/h (2 Bft) 100,00 %
15.05.2016 20:26 8,7 C 57 % 1017,4 hPa 0,0 l/m 8,0 km/h (2 Bft) W-SW 256 0 min 0,000 mm 0,0 UV-I 9 W/m 0,7 C 7,5 C 11,3 km/h (2 Bft) 96,55 %
15.05.2016 20:27 8,6 C 57 % 1017,5 hPa 0,0 l/m 8,1 km/h (2 Bft) W-SW 255 0 min 0,000 mm 0,0 UV-I 9 W/m 0,6 C 7,3 C 12,9 km/h (3 Bft) 95,83 %
15.05.2016 20:28 8,6 C 57 % 1017,5 hPa 0,0 l/m 9,9 km/h (2 Bft) W-SW 245 0 min 0,000 mm 0,0 UV-I 9 W/m 0,6 C 6,1 C 12,9 km/h (3 Bft) 100,00 %
15.05.2016 20:29 8,6 C 57 % 1017,4 hPa 0,0 l/m 8,0 km/h (2 Bft) W 261 0 min 0,000 mm 0,0 UV-I 7 W/m 0,6 C 7,4 C 11,3 km/h (2 Bft) 96,30 %
15.05.2016 20:30 8,6 C 57 % 1017,4 hPa 0,0 l/m 8,0 km/h (2 Bft) W-SW 242 0 min 0,000 mm 0,0 UV-I 7 W/m 0,6 C 7,4 C 11,3 km/h (2 Bft) 100,00 %
15.05.2016 20:31 8,5 C 57 % 1017,4 hPa 0,0 l/m 9,0 km/h (2 Bft) W-SW 243 0 min 0,000 mm 0,0 UV-I 7 W/m 0,5 C 6,6 C 14,5 km/h (3 Bft) 91,67 %
15.05.2016 20:32 8,4 C 57 % 1017,4 hPa 0,0 l/m 6,6 km/h (2 Bft) W-SW 247 0 min 0,000 mm 0,0 UV-I 7 W/m 0,4 C 8,3 C 9,7 km/h (2 Bft) 100,00 %
15.05.2016 20:33 8,4 C 57 % 1017,4 hPa 0,0 l/m 7,0 km/h (2 Bft) W 259 0 min 0,000 mm 0,0 UV-I 7 W/m 0,4 C 7,9 C 11,3 km/h (2 Bft) 95,83 %
15.05.2016 20:34 8,4 C 57 % 1017,5 hPa 0,0 l/m 8,2 km/h (2 Bft) W 262 0 min 0,000 mm 0,0 UV-I 5 W/m 0,4 C 7,0 C 11,3 km/h (2 Bft) 100,00 %
15.05.2016 20:35 8,4 C 57 % 1017,5 hPa 0,0 l/m 5,8 km/h (2 Bft) W 260 0 min 0,000 mm 0,0 UV-I 5 W/m 0,4 C 8,4 C 6,4 km/h (2 Bft) 95,83 %
15.05.2016 20:36 8,3 C 58 % 1017,5 hPa 0,0 l/m 7,0 km/h (2 Bft) W-SW 258 0 min 0,000 mm 0,0 UV-I 5 W/m 0,5 C 7,8 C 9,7 km/h (2 Bft) 95,83 %
15.05.2016 20:37 8,3 C 59 % 1017,5 hPa 0,0 l/m 6,4 km/h (2 Bft) W-SW 248 0 min 0,000 mm 0,0 UV-I 5 W/m 0,8 C 8,3 C 11,3 km/h (2 Bft) 100,00 %
15.05.2016 20:38 8,3 C 58 % 1017,5 hPa 0,0 l/m 7,7 km/h (2 Bft) W 260 0 min 0,000 mm 0,0 UV-I 5 W/m 0,5 C 7,3 C 12,9 km/h (3 Bft) 96,55 %
15.05.2016 20:39 8,2 C 59 % 1017,5 hPa 0,0 l/m 7,7 km/h (2 Bft) W-SW 257 0 min 0,000 mm 0,0 UV-I 0 W/m 0,7 C 7,2 C 12,9 km/h (3 Bft) 100,00 %
15.05.2016 20:40 8,2 C 59 % 1017,5 hPa 0,0 l/m 7,4 km/h (2 Bft) SW 235 0 min 0,000 mm 0,0 UV-I 0 W/m 0,7 C 7,4 C 12,9 km/h (3 Bft) 96,30 %
15.05.2016 20:41 8,2 C 59 % 1017,5 hPa 0,0 l/m 8,1 km/h (2 Bft) W-SW 258 0 min 0,000 mm 0,0 UV-I 0 W/m 0,7 C 6,9 C 12,9 km/h (3 Bft) 100,00 %
15.05.2016 20:42 8,1 C 60 % 1017,6 hPa 0,0 l/m 8,1 km/h (2 Bft) SW 231 0 min 0,000 mm 0,0 UV-I 0 W/m 0,8 C 6,8 C 12,9 km/h (3 Bft) 96,30 %
15.05.2016 20:43 8,1 C 59 % 1017,5 hPa 0,0 l/m 6,7 km/h (2 Bft) W-SW 254 0 min 0,000 mm 0,0 UV-I 0 W/m 0,6 C 7,9 C 8,0 km/h (2 Bft) 100,00 %
15.05.2016 20:44 8,0 C 60 % 1017,5 hPa 0,0 l/m 5,2 km/h (1 Bft) W-SW 247 0 min 0,000 mm 0,0 UV-I 0 W/m 0,7 C 8,0 C 8,0 km/h (2 Bft) 100,00 %
15.05.2016 20:45 7,9 C 60 % 1017,6 hPa 0,0 l/m 5,4 km/h (1 Bft) W-SW 243 0 min 0,000 mm 0,0 UV-I 0 W/m 0,6 C 7,9 C 8,0 km/h (2 Bft) 92,86 %
15.05.2016 20:46 7,9 C 61 % 1017,6 hPa 0,0 l/m 7,4 km/h (2 Bft) SW 223 0 min 0,000 mm 0,0 UV-I 0 W/m 0,9 C 7,1 C 12,9 km/h (3 Bft) 96,30 %
15.05.2016 20:47 7,8 C 61 % 1017,6 hPa 0,0 l/m 5,3 km/h (1 Bft) SW 236 0 min 0,000 mm 0,0 UV-I 0 W/m 0,8 C 7,8 C 8,0 km/h (2 Bft) 100,00 %
15.05.2016 20:48 7,8 C 60 % 1017,6 hPa 0,0 l/m 6,9 km/h (2 Bft) W-SW 245 0 min 0,000 mm 0,0 UV-I 0 W/m 0,5 C 7,4 C 9,7 km/h (2 Bft) 95,83 %
15.05.2016 20:49 7,8 C 61 % 1017,6 hPa 0,0 l/m 6,1 km/h (2 Bft) SW 225 0 min 0,000 mm 0,0 UV-I 0 W/m 0,8 C 7,8 C 8,0 km/h (2 Bft) 92,31 %
15.05.2016 20:50 7,8 C 61 % 1017,6 hPa 0,0 l/m 6,0 km/h (2 Bft) S-SW 212 0 min 0,000 mm 0,0 UV-I 0 W/m 0,8 C 7,8 C 8,0 km/h (2 Bft) 100,00 %
15.05.2016 20:51 7,7 C 62 % 1017,6 hPa 0,0 l/m 5,6 km/h (1 Bft) SW 233 0 min 0,000 mm 0,0 UV-I 0 W/m 0,9 C 7,7 C 9,7 km/h (2 Bft) 100,00 %
15.05.2016 20:52 7,7 C 62 % 1017,6 hPa 0,0 l/m 6,7 km/h (2 Bft) SW 223 0 min 0,000 mm 0,0 UV-I 0 W/m 0,9 C 7,5 C 8,0 km/h (2 Bft) 100,00 %
15.05.2016 20:53 7,6 C 62 % 1017,6 hPa 0,0 l/m 5,6 km/h (1 Bft) SW 229 0 min 0,000 mm 0,0 UV-I 0 W/m 0,8 C 7,6 C 8,0 km/h (2 Bft) 100,00 %
15.05.2016 20:54 7,6 C 62 % 1017,6 hPa 0,0 l/m 8,1 km/h (2 Bft) W-SW 244 0 min 0,000 mm 0,0 UV-I 0 W/m 0,8 C 6,3 C 12,9 km/h (3 Bft) 96,55 %
15.05.2016 20:55 7,6 C 62 % 1017,7 hPa 0,0 l/m 5,6 km/h (1 Bft) SW 234 0 min 0,000 mm 0,0 UV-I 0 W/m 0,8 C 7,6 C 8,0 km/h (2 Bft) 100,00 %
15.05.2016 20:56 7,5 C 62 % 1017,7 hPa 0,0 l/m 6,3 km/h (2 Bft) S-SW 196 0 min 0,000 mm 0,0 UV-I 0 W/m 0,7 C 7,5 C 11,3 km/h (2 Bft) 100,00 %
15.05.2016 20:57 7,5 C 63 % 1017,8 hPa 0,0 l/m 8,0 km/h (2 Bft) S-SW 213 0 min 0,000 mm 0,0 UV-I 0 W/m 0,9 C 6,2 C 11,3 km/h (2 Bft) 100,00 %
15.05.2016 20:58 7,4 C 63 % 1017,8 hPa 0,0 l/m 9,2 km/h (2 Bft) W-SW 248 0 min 0,000 mm 0,0 UV-I 0 W/m 0,8 C 5,3 C 12,9 km/h (3 Bft) 91,30 %
15.05.2016 20:59 7,4 C 64 % 1017,8 hPa 0,0 l/m 7,1 km/h (2 Bft) S 190 0 min 0,000 mm 0,0 UV-I 0 W/m 1,0 C 6,8 C 9,7 km/h (2 Bft) 100,00 %
15.05.2016 21:00 7,4 C 64 % 1017,8 hPa 0,0 l/m 7,0 km/h (2 Bft) S-SW 205 0 min 0,000 mm 0,0 UV-I 0 W/m 1,0 C 6,9 C 11,3 km/h (2 Bft) 100,00 %
15.05.2016 21:01 7,3 C 65 % 1017,8 hPa 0,0 l/m 5,9 km/h (2 Bft) SW 217 0 min 0,050 mm 0,0 UV-I 0 W/m 1,2 C 7,3 C 9,7 km/h (2 Bft) 96,30 %
15.05.2016 21:02 7,3 C 66 % 1017,8 hPa 0,0 l/m 9,1 km/h (2 Bft) SW 220 0 min 0,000 mm 0,0 UV-I 0 W/m 1,4 C 5,2 C 16,1 km/h (3 Bft) 95,65 %
15.05.2016 21:03 7,3 C 67 % 1017,8 hPa 0,0 l/m 8,4 km/h (2 Bft) SW 223 0 min 0,000 mm 0,0 UV-I 0 W/m 1,6 C 5,7 C 12,9 km/h (3 Bft) 100,00 %
15.05.2016 21:04 7,3 C 68 % 1017,9 hPa 0,0 l/m 8,9 km/h (2 Bft) S-SW 209 0 min 0,000 mm 0,0 UV-I 0 W/m 1,8 C 5,4 C 14,5 km/h (3 Bft) 100,00 %
15.05.2016 21:05 7,3 C 70 % 1017,9 hPa 0,0 l/m 7,1 km/h (2 Bft) S-SW 208 0 min 0,000 mm 0,0 UV-I 0 W/m 2,2 C 6,7 C 9,7 km/h (2 Bft) 100,00 %
15.05.2016 21:06 7,2 C 72 % 1017,8 hPa 0,0 l/m 7,0 km/h (2 Bft) W-SW 240 0 min 0,000 mm 0,0 UV-I 0 W/m 2,5 C 6,7 C 14,5 km/h (3 Bft) 100,00 %
15.05.2016 21:07 7,2 C 73 % 1017,8 hPa 0,0 l/m 7,4 km/h (2 Bft) S-SW 199 0 min 0,000 mm 0,0 UV-I 0 W/m 2,7 C 6,4 C 11,3 km/h (2 Bft) 96,30 %
15.05.2016 21:08 7,2 C 73 % 1017,8 hPa 0,0 l/m 7,5 km/h (2 Bft) S-SW 199 0 min 0,000 mm 0,0 UV-I 0 W/m 2,7 C 6,3 C 12,9 km/h (3 Bft) 100,00 %
15.05.2016 21:09 7,2 C 74 % 1017,8 hPa 0,0 l/m 6,5 km/h (2 Bft) SW 234 0 min 0,000 mm 0,0 UV-I 0 W/m 2,9 C 7,1 C 9,7 km/h (2 Bft) 100,00 %
15.05.2016 21:10 7,2 C 75 % 1017,8 hPa 0,0 l/m 7,6 km/h (2 Bft) S-SW 211 0 min 0,000 mm 0,0 UV-I 0 W/m 3,1 C 6,2 C 9,7 km/h (2 Bft) 100,00 %
15.05.2016 21:11 7,1 C 75 % 1017,8 hPa 0,0 l/m 5,6 km/h (1 Bft) SW 218 0 min 0,000 mm 0,0 UV-I 0 W/m 3,0 C 7,1 C 8,0 km/h (2 Bft) 100,00 %
15.05.2016 21:12 7,1 C 76 % 1017,8 hPa 0,0 l/m 6,2 km/h (2 Bft) S-SW 209 0 min 0,000 mm 0,0 UV-I 0 W/m 3,2 C 7,1 C 8,0 km/h (2 Bft) 100,00 %
15.05.2016 21:13 7,1 C 77 % 1017,8 hPa 0,0 l/m 7,6 km/h (2 Bft) S-SW 201 0 min 0,000 mm 0,0 UV-I 0 W/m 3,3 C 6,1 C 12,9 km/h (3 Bft) 100,00 %
15.05.2016 21:14 7,1 C 77 % 1017,9 hPa 0,0 l/m 8,0 km/h (2 Bft) W-SW 250 0 min 0,000 mm 0,0 UV-I 0 W/m 3,3 C 5,8 C 12,9 km/h (3 Bft) 100,00 %
15.05.2016 21:15 7,1 C 77 % 1017,9 hPa 0,0 l/m 6,6 km/h (2 Bft) W-SW 244 0 min 0,000 mm 0,0 UV-I 0 W/m 3,3 C 7,0 C 11,3 km/h (2 Bft) 100,00 %
15.05.2016 21:16 7,1 C 78 % 1017,9 hPa 0,0 l/m 7,6 km/h (2 Bft) SW 228 0 min 0,000 mm 0,0 UV-I 0 W/m 3,5 C 6,1 C 11,3 km/h (2 Bft) 100,00 %
15.05.2016 21:17 7,0 C 78 % 1017,9 hPa 0,0 l/m 7,8 km/h (2 Bft) S-SW 208 0 min 0,000 mm 0,0 UV-I 0 W/m 3,4 C 5,9 C 11,3 km/h (2 Bft) 100,00 %
15.05.2016 21:18 7,0 C 78 % 1017,9 hPa 0,0 l/m 8,6 km/h (2 Bft) SW 224 0 min 0,000 mm 0,0 UV-I 0 W/m 3,4 C 5,3 C 12,9 km/h (3 Bft) 100,00 %
15.05.2016 21:19 7,0 C 79 % 1017,9 hPa 0,0 l/m 8,3 km/h (2 Bft) S-SW 207 0 min 0,000 mm 0,0 UV-I 0 W/m 3,6 C 5,5 C 14,5 km/h (3 Bft) 95,83 %
15.05.2016 21:20 6,9 C 79 % 1017,9 hPa 0,0 l/m 10,5 km/h (2 Bft) S-SW 211 0 min 0,000 mm 0,0 UV-I 0 W/m 3,5 C 3,8 C 14,5 km/h (3 Bft) 100,00 %
15.05.2016 21:21 6,9 C 79 % 1017,9 hPa 0,0 l/m 9,3 km/h (2 Bft) S-SW 213 0 min 0,000 mm 0,0 UV-I 0 W/m 3,5 C 4,6 C 12,9 km/h (3 Bft) 100,00 %
15.05.2016 21:22 6,9 C 79 % 1017,9 hPa 0,0 l/m 7,3 km/h (2 Bft) SW 218 0 min 0,000 mm 0,0 UV-I 0 W/m 3,5 C 6,2 C 11,3 km/h (2 Bft) 100,00 %
15.05.2016 21:23 6,9 C 79 % 1017,9 hPa 0,0 l/m 8,6 km/h (2 Bft) SW 228 0 min 0,000 mm 0,0 UV-I 0 W/m 3,5 C 5,1 C 14,5 km/h (3 Bft) 100,00 %
15.05.2016 21:24 6,9 C 79 % 1017,9 hPa 0,0 l/m 9,7 km/h (2 Bft) S 180 0 min 0,000 mm 0,0 UV-I 0 W/m 3,5 C 4,4 C 12,9 km/h (3 Bft) 100,00 %
15.05.2016 21:25 6,9 C 80 % 1017,8 hPa 0,0 l/m 8,0 km/h (2 Bft) S 184 0 min 0,000 mm 0,0 UV-I 0 W/m 3,7 C 5,6 C 11,3 km/h (2 Bft) 100,00 %
15.05.2016 21:26 6,9 C 80 % 1017,9 hPa 0,0 l/m 9,5 km/h (2 Bft) SW 223 0 min 0,000 mm 0,0 UV-I 0 W/m 3,7 C 4,5 C 14,5 km/h (3 Bft) 100,00 %
15.05.2016 21:27 6,9 C 80 % 1017,8 hPa 0,0 l/m 10,8 km/h (2 Bft) SW 234 0 min 0,000 mm 0,0 UV-I 0 W/m 3,7 C 3,7 C 16,1 km/h (3 Bft) 96,15 %
15.05.2016 21:28 6,9 C 80 % 1017,9 hPa 0,0 l/m 10,8 km/h (2 Bft) W-SW 239 0 min 0,000 mm 0,0 UV-I 0 W/m 3,7 C 3,7 C 14,5 km/h (3 Bft) 100,00 %
15.05.2016 21:29 6,9 C 80 % 1017,9 hPa 0,0 l/m 11,8 km/h (2 Bft) SW 232 0 min 0,000 mm 0,0 UV-I 0 W/m 3,7 C 3,1 C 14,5 km/h (3 Bft) 92,86 %
15.05.2016 21:30 6,9 C 80 % 1017,9 hPa 0,0 l/m 11,4 km/h (2 Bft) SW 233 0 min 0,000 mm 0,0 UV-I 0 W/m 3,7 C 3,3 C 16,1 km/h (3 Bft) 100,00 %
15.05.2016 21:31 7,0 C 80 % 1018,0 hPa 0,0 l/m 9,0 km/h (2 Bft) S-SW 209 0 min 0,000 mm 0,0 UV-I 0 W/m 3,8 C 5,0 C 14,5 km/h (3 Bft) 100,00 %
15.05.2016 21:32 6,9 C 80 % 1018,0 hPa 0,0 l/m 9,0 km/h (2 Bft) SW 228 0 min 0,000 mm 0,0 UV-I 0 W/m 3,7 C 4,9 C 14,5 km/h (3 Bft) 100,00 %
15.05.2016 21:33 7,0 C 80 % 1017,9 hPa 0,0 l/m 9,0 km/h (2 Bft) S-SW 200 0 min 0,000 mm 0,0 UV-I 0 W/m 3,8 C 5,0 C 14,5 km/h (3 Bft) 100,00 %
15.05.2016 21:34 6,9 C 80 % 1017,9 hPa 0,0 l/m 7,6 km/h (2 Bft) SW 234 0 min 0,000 mm 0,0 UV-I 0 W/m 3,7 C 5,9 C 14,5 km/h (3 Bft) 100,00 %
15.05.2016 21:35 6,9 C 80 % 1017,9 hPa 0,0 l/m 10,9 km/h (2 Bft) SW 225 0 min 0,000 mm 0,0 UV-I 0 W/m 3,7 C 3,6 C 16,1 km/h (3 Bft) 96,30 %
15.05.2016 21:36 6,9 C 80 % 1018,0 hPa 0,0 l/m 7,3 km/h (2 Bft) SW 214 0 min 0,000 mm 0,0 UV-I 0 W/m 3,7 C 6,2 C 11,3 km/h (2 Bft) 100,00 %
15.05.2016 21:37 6,9 C 80 % 1018,0 hPa 0,0 l/m 10,6 km/h (2 Bft) SW 230 0 min 0,000 mm 0,0 UV-I 0 W/m 3,7 C 3,8 C 14,5 km/h (3 Bft) 100,00 %
15.05.2016 21:38 6,9 C 80 % 1018,0 hPa 0,0 l/m 10,6 km/h (2 Bft) W-SW 250 0 min 0,000 mm 0,0 UV-I 0 W/m 3,7 C 3,8 C 16,1 km/h (3 Bft) 100,00 %
15.05.2016 21:39 6,9 C 80 % 1018,0 hPa 0,0 l/m 10,5 km/h (2 Bft) SW 225 0 min 0,000 mm 0,0 UV-I 0 W/m 3,7 C 3,8 C 16,1 km/h (3 Bft) 100,00 %
15.05.2016 21:40 6,9 C 80 % 1018,0 hPa 0,0 l/m 9,5 km/h (2 Bft) SW 227 0 min 0,000 mm 0,0 UV-I 0 W/m 3,7 C 4,5 C 14,5 km/h (3 Bft) 100,00 %
15.05.2016 21:41 6,9 C 80 % 1018,1 hPa 0,0 l/m 8,7 km/h (2 Bft) SW 225 0 min 0,000 mm 0,0 UV-I 0 W/m 3,7 C 5,1 C 12,9 km/h (3 Bft) 100,00 %
15.05.2016 21:42 6,9 C 80 % 1018,0 hPa 0,0 l/m 10,5 km/h (2 Bft) W-SW 242 0 min 0,000 mm 0,0 UV-I 0 W/m 3,7 C 3,8 C 16,1 km/h (3 Bft) 100,00 %
15.05.2016 21:43 6,9 C 80 % 1018,0 hPa 0,0 l/m 9,7 km/h (2 Bft) SW 227 0 min 0,000 mm 0,0 UV-I 0 W/m 3,7 C 4,4 C 14,5 km/h (3 Bft) 100,00 %
15.05.2016 21:44 6,9 C 80 % 1018,0 hPa 0,0 l/m 8,6 km/h (2 Bft) SW 217 0 min 0,000 mm 0,0 UV-I 0 W/m 3,7 C 5,1 C 12,9 km/h (3 Bft) 100,00 %
15.05.2016 21:45 6,9 C 80 % 1018,1 hPa 0,0 l/m 10,1 km/h (2 Bft) SW 232 0 min 0,000 mm 0,0 UV-I 0 W/m 3,7 C 4,1 C 14,5 km/h (3 Bft) 96,30 %
15.05.2016 21:46 6,9 C 80 % 1018,1 hPa 0,0 l/m 6,1 km/h (2 Bft) W-SW 246 0 min 0,000 mm 0,0 UV-I 0 W/m 3,7 C 6,9 C 8,0 km/h (2 Bft) 100,00 %
15.05.2016 21:47 6,9 C 80 % 1018,1 hPa 0,0 l/m 8,2 km/h (2 Bft) SW 232 0 min 0,000 mm 0,0 UV-I 0 W/m 3,7 C 5,4 C 14,5 km/h (3 Bft) 100,00 %
15.05.2016 21:48 6,9 C 80 % 1018,1 hPa 0,0 l/m 11,8 km/h (2 Bft) S-SW 211 0 min 0,000 mm 0,0 UV-I 0 W/m 3,7 C 3,1 C 16,1 km/h (3 Bft) 100,00 %
15.05.2016 21:49 6,9 C 80 % 1018,2 hPa 0,0 l/m 9,0 km/h (2 Bft) SW 225 0 min 0,000 mm 0,0 UV-I 0 W/m 3,7 C 4,9 C 14,5 km/h (3 Bft) 100,00 %
15.05.2016 21:50 6,9 C 80 % 1018,2 hPa 0,0 l/m 8,4 km/h (2 Bft) SW 232 0 min 0,000 mm 0,0 UV-I 0 W/m 3,7 C 5,3 C 9,7 km/h (2 Bft) 100,00 %
15.05.2016 21:51 6,8 C 80 % 1018,1 hPa 0,0 l/m 8,3 km/h (2 Bft) W-SW 244 0 min 0,000 mm 0,0 UV-I 0 W/m 3,6 C 5,3 C 12,9 km/h (3 Bft) 100,00 %
15.05.2016 21:52 6,8 C 80 % 1018,2 hPa 0,0 l/m 10,2 km/h (2 Bft) W-SW 240 0 min 0,000 mm 0,0 UV-I 0 W/m 3,6 C 3,9 C 12,9 km/h (3 Bft) 100,00 %
15.05.2016 21:53 6,8 C 80 % 1018,2 hPa 0,0 l/m 10,1 km/h (2 Bft) W-SW 240 0 min 0,000 mm 0,0 UV-I 0 W/m 3,6 C 4,0 C 12,9 km/h (3 Bft) 96,55 %
15.05.2016 21:54 6,8 C 81 % 1018,2 hPa 0,0 l/m 8,5 km/h (2 Bft) W-SW 242 0 min 0,000 mm 0,0 UV-I 0 W/m 3,8 C 5,1 C 12,9 km/h (3 Bft) 100,00 %
15.05.2016 21:55 6,8 C 81 % 1018,3 hPa 0,0 l/m 10,2 km/h (2 Bft) W-SW 246 0 min 0,000 mm 0,0 UV-I 0 W/m 3,8 C 3,9 C 16,1 km/h (3 Bft) 100,00 %
15.05.2016 21:56 6,8 C 81 % 1018,3 hPa 0,0 l/m 10,1 km/h (2 Bft) SW 234 0 min 0,000 mm 0,0 UV-I 0 W/m 3,8 C 4,0 C 14,5 km/h (3 Bft) 100,00 %
15.05.2016 21:57 6,8 C 81 % 1018,3 hPa 0,0 l/m 11,2 km/h (2 Bft) SW 215 0 min 0,000 mm 0,0 UV-I 0 W/m 3,8 C 3,3 C 14,5 km/h (3 Bft) 93,33 %
15.05.2016 21:58 6,7 C 81 % 1018,3 hPa 0,0 l/m 9,7 km/h (2 Bft) W-SW 238 0 min 0,000 mm 0,0 UV-I 0 W/m 3,7 C 4,2 C 14,5 km/h (3 Bft) 100,00 %
15.05.2016 21:59 6,7 C 81 % 1018,3 hPa 0,0 l/m 10,7 km/h (2 Bft) S-SW 213 0 min 0,000 mm 0,0 UV-I 0 W/m 3,7 C 3,5 C 16,1 km/h (3 Bft) 100,00 %
15.05.2016 22:00 6,7 C 82 % 1018,3 hPa 0,0 l/m 9,7 km/h (2 Bft) W-SW 241 0 min 0,000 mm 0,0 UV-I 0 W/m 3,8 C 4,2 C 12,9 km/h (3 Bft) 94,44 %
15.05.2016 22:01 6,7 C 82 % 1018,4 hPa 0,0 l/m 11,5 km/h (2 Bft) SW 228 0 min 0,026 mm 0,0 UV-I 0 W/m 3,8 C 3,0 C 14,5 km/h (3 Bft) 100,00 %
15.05.2016 22:02 6,7 C 82 % 1018,4 hPa 0,0 l/m 8,8 km/h (2 Bft) W-SW 241 0 min 0,000 mm 0,0 UV-I 0 W/m 3,8 C 4,8 C 12,9 km/h (3 Bft) 100,00 %
15.05.2016 22:03 6,7 C 82 % 1018,3 hPa 0,0 l/m 9,5 km/h (2 Bft) W-SW 240 0 min 0,000 mm 0,0 UV-I 0 W/m 3,8 C 4,3 C 14,5 km/h (3 Bft) 95,65 %
15.05.2016 22:04 6,7 C 82 % 1018,4 hPa 0,0 l/m 11,3 km/h (2 Bft) SW 225 0 min 0,000 mm 0,0 UV-I 0 W/m 3,8 C 3,1 C 14,5 km/h (3 Bft) 95,83 %
15.05.2016 22:05 6,7 C 82 % 1018,4 hPa 0,0 l/m 10,5 km/h (2 Bft) SW 227 0 min 0,000 mm 0,0 UV-I 0 W/m 3,8 C 3,6 C 14,5 km/h (3 Bft) 100,00 %
15.05.2016 22:06 6,7 C 82 % 1018,4 hPa 0,0 l/m 10,5 km/h (2 Bft) SW 214 0 min 0,000 mm 0,0 UV-I 0 W/m 3,8 C 3,6 C 14,5 km/h (3 Bft) 100,00 %
15.05.2016 22:07 6,7 C 82 % 1018,5 hPa 0,0 l/m 10,0 km/h (2 Bft) SW 215 0 min 0,000 mm 0,0 UV-I 0 W/m 3,8 C 4,0 C 12,9 km/h (3 Bft) 95,65 %
15.05.2016 22:08 6,7 C 82 % 1018,5 hPa 0,0 l/m 8,8 km/h (2 Bft) SW 221 0 min 0,000 mm 0,0 UV-I 0 W/m 3,8 C 4,8 C 11,3 km/h (2 Bft) 100,00 %
15.05.2016 22:09 6,7 C 82 % 1018,5 hPa 0,0 l/m 9,7 km/h (2 Bft) SW 235 0 min 0,000 mm 0,0 UV-I 0 W/m 3,8 C 4,2 C 14,5 km/h (3 Bft) 100,00 %
15.05.2016 22:10 6,7 C 82 % 1018,4 hPa 0,0 l/m 10,2 km/h (2 Bft) SW 229 0 min 0,000 mm 0,0 UV-I 0 W/m 3,8 C 3,8 C 14,5 km/h (3 Bft) 100,00 %
15.05.2016 22:11 6,7 C 83 % 1018,5 hPa 0,0 l/m 9,5 km/h (2 Bft) W-SW 239 0 min 0,000 mm 0,0 UV-I 0 W/m 4,0 C 4,3 C 16,1 km/h (3 Bft) 100,00 %
15.05.2016 22:12 6,7 C 83 % 1018,5 hPa 0,0 l/m 10,0 km/h (2 Bft) SW 230 0 min 0,000 mm 0,0 UV-I 0 W/m 4,0 C 4,0 C 14,5 km/h (3 Bft) 100,00 %
15.05.2016 22:13 6,7 C 83 % 1018,5 hPa 0,0 l/m 9,0 km/h (2 Bft) SW 232 0 min 0,000 mm 0,0 UV-I 0 W/m 4,0 C 4,6 C 11,3 km/h (2 Bft) 93,94 %
15.05.2016 22:14 6,7 C 83 % 1018,5 hPa 0,0 l/m 7,6 km/h (2 Bft) W-SW 238 0 min 0,000 mm 0,0 UV-I 0 W/m 4,0 C 5,7 C 12,9 km/h (3 Bft) 100,00 %
15.05.2016 22:15 6,7 C 83 % 1018,5 hPa 0,0 l/m 10,0 km/h (2 Bft) SW 229 0 min 0,000 mm 0,0 UV-I 0 W/m 4,0 C 4,0 C 12,9 km/h (3 Bft) 96,15 %
15.05.2016 22:16 6,6 C 83 % 1018,5 hPa 0,0 l/m 8,0 km/h (2 Bft) W-SW 240 0 min 0,000 mm 0,0 UV-I 0 W/m 3,9 C 5,3 C 11,3 km/h (2 Bft) 100,00 %
15.05.2016 22:17 6,6 C 83 % 1018,4 hPa 0,0 l/m 8,9 km/h (2 Bft) SW 232 0 min 0,000 mm 0,0 UV-I 0 W/m 3,9 C 4,6 C 12,9 km/h (3 Bft) 95,83 %
15.05.2016 22:18 6,6 C 83 % 1018,5 hPa 0,0 l/m 7,0 km/h (2 Bft) SW 216 0 min 0,000 mm 0,0 UV-I 0 W/m 3,9 C 6,1 C 8,0 km/h (2 Bft) 96,55 %
15.05.2016 22:19 6,6 C 83 % 1018,5 hPa 0,0 l/m 9,0 km/h (2 Bft) W-SW 240 0 min 0,000 mm 0,0 UV-I 0 W/m 3,9 C 4,5 C 12,9 km/h (3 Bft) 100,00 %
15.05.2016 22:20 6,6 C 83 % 1018,5 hPa 0,0 l/m 9,2 km/h (2 Bft) SW 227 0 min 0,000 mm 0,0 UV-I 0 W/m 3,9 C 4,4 C 12,9 km/h (3 Bft) 96,55 %
15.05.2016 22:21 6,6 C 83 % 1018,5 hPa 0,0 l/m 9,1 km/h (2 Bft) SW 229 0 min 0,000 mm 0,0 UV-I 0 W/m 3,9 C 4,5 C 12,9 km/h (3 Bft) 95,83 %
15.05.2016 22:22 6,6 C 83 % 1018,5 hPa 0,0 l/m 9,3 km/h (2 Bft) SW 236 0 min 0,000 mm 0,0 UV-I 0 W/m 3,9 C 4,3 C 12,9 km/h (3 Bft) 96,55 %
15.05.2016 22:23 6,6 C 83 % 1018,5 hPa 0,0 l/m 7,8 km/h (2 Bft) S-SW 201 0 min 0,000 mm 0,0 UV-I 0 W/m 3,9 C 5,4 C 11,3 km/h (2 Bft) 100,00 %
15.05.2016 22:24 6,6 C 83 % 1018,4 hPa 0,0 l/m 8,7 km/h (2 Bft) SW 221 0 min 0,000 mm 0,0 UV-I 0 W/m 3,9 C 4,8 C 11,3 km/h (2 Bft) 96,15 %
15.05.2016 22:25 6,6 C 83 % 1018,4 hPa 0,0 l/m 9,1 km/h (2 Bft) SW 226 0 min 0,000 mm 0,0 UV-I 0 W/m 3,9 C 4,5 C 12,9 km/h (3 Bft) 100,00 %
15.05.2016 22:26 6,6 C 83 % 1018,4 hPa 0,0 l/m 11,1 km/h (2 Bft) SW 226 0 min 0,000 mm 0,0 UV-I 0 W/m 3,9 C 3,1 C 16,1 km/h (3 Bft) 92,31 %
15.05.2016 22:27 6,6 C 83 % 1018,4 hPa 0,0 l/m 9,1 km/h (2 Bft) S-SW 209 0 min 0,000 mm 0,0 UV-I 0 W/m 3,9 C 4,5 C 12,9 km/h (3 Bft) 96,30 %
15.05.2016 22:28 6,5 C 83 % 1018,4 hPa 0,0 l/m 7,9 km/h (2 Bft) SW 219 0 min 0,000 mm 0,0 UV-I 0 W/m 3,8 C 5,3 C 9,7 km/h (2 Bft) 100,00 %
15.05.2016 22:29 6,6 C 83 % 1018,5 hPa 0,0 l/m 8,8 km/h (2 Bft) SW 232 0 min 0,000 mm 0,0 UV-I 0 W/m 3,9 C 4,7 C 11,3 km/h (2 Bft) 100,00 %
15.05.2016 22:30 6,6 C 83 % 1018,4 hPa 0,0 l/m 9,4 km/h (2 Bft) SW 224 0 min 0,000 mm 0,0 UV-I 0 W/m 3,9 C 4,2 C 12,9 km/h (3 Bft) 96,30 %
15.05.2016 22:31 6,6 C 83 % 1018,5 hPa 0,0 l/m 9,4 km/h (2 Bft) SW 221 0 min 0,000 mm 0,0 UV-I 0 W/m 3,9 C 4,2 C 12,9 km/h (3 Bft) 95,83 %
15.05.2016 22:32 6,5 C 83 % 1018,5 hPa 0,0 l/m 10,1 km/h (2 Bft) SW 230 0 min 0,000 mm 0,0 UV-I 0 W/m 3,8 C 3,7 C 16,1 km/h (3 Bft) 100,00 %
15.05.2016 22:33 6,5 C 83 % 1018,5 hPa 0,0 l/m 10,3 km/h (2 Bft) W-SW 237 0 min 0,000 mm 0,0 UV-I 0 W/m 3,8 C 3,5 C 14,5 km/h (3 Bft) 95,83 %
15.05.2016 22:34 6,5 C 83 % 1018,5 hPa 0,0 l/m 11,5 km/h (2 Bft) SW 236 0 min 0,000 mm 0,0 UV-I 0 W/m 3,8 C 2,8 C 16,1 km/h (3 Bft) 95,83 %
15.05.2016 22:35 6,5 C 83 % 1018,6 hPa 0,0 l/m 10,7 km/h (2 Bft) SW 226 0 min 0,000 mm 0,0 UV-I 0 W/m 3,8 C 3,3 C 14,5 km/h (3 Bft) 95,65 %
15.05.2016 22:36 6,5 C 83 % 1018,6 hPa 0,0 l/m 10,4 km/h (2 Bft) SW 220 0 min 0,000 mm 0,0 UV-I 0 W/m 3,8 C 3,5 C 14,5 km/h (3 Bft) 100,00 %
15.05.2016 22:37 6,5 C 83 % 1018,5 hPa 0,0 l/m 10,1 km/h (2 Bft) W-SW 238 0 min 0,000 mm 0,0 UV-I 0 W/m 3,8 C 3,7 C 14,5 km/h (3 Bft) 93,10 %
15.05.2016 22:38 6,5 C 83 % 1018,6 hPa 0,0 l/m 10,5 km/h (2 Bft) W-SW 238 0 min 0,000 mm 0,0 UV-I 0 W/m 3,8 C 3,4 C 14,5 km/h (3 Bft) 100,00 %
15.05.2016 22:39 6,5 C 83 % 1018,5 hPa 0,0 l/m 9,2 km/h (2 Bft) SW 223 0 min 0,000 mm 0,0 UV-I 0 W/m 3,8 C 4,3 C 14,5 km/h (3 Bft) 96,15 %
15.05.2016 22:40 6,5 C 82 % 1018,5 hPa 0,0 l/m 10,5 km/h (2 Bft) W-SW 240 0 min 0,000 mm 0,0 UV-I 0 W/m 3,7 C 3,4 C 14,5 km/h (3 Bft) 93,33 %
15.05.2016 22:41 6,6 C 82 % 1018,6 hPa 0,0 l/m 10,0 km/h (2 Bft) SW 231 0 min 0,000 mm 0,0 UV-I 0 W/m 3,8 C 3,8 C 14,5 km/h (3 Bft) 100,00 %
15.05.2016 22:42 6,6 C 82 % 1018,6 hPa 0,0 l/m 11,0 km/h (2 Bft) SW 234 0 min 0,000 mm 0,0 UV-I 0 W/m 3,8 C 3,2 C 17,7 km/h (3 Bft) 96,67 %
15.05.2016 22:43 6,6 C 82 % 1018,5 hPa 0,0 l/m 8,4 km/h (2 Bft) W-SW 239 0 min 0,000 mm 0,0 UV-I 0 W/m 3,8 C 5,0 C 9,7 km/h (2 Bft) 100,00 %
15.05.2016 22:44 6,6 C 82 % 1018,5 hPa 0,0 l/m 7,2 km/h (2 Bft) SW 215 0 min 0,000 mm 0,0 UV-I 0 W/m 3,8 C 5,9 C 11,3 km/h (2 Bft) 96,30 %
15.05.2016 22:45 6,6 C 82 % 1018,5 hPa 0,0 l/m 9,2 km/h (2 Bft) SW 217 0 min 0,000 mm 0,0 UV-I 0 W/m 3,8 C 4,4 C 11,3 km/h (2 Bft) 98,70 %
15.05.2016 22:46 6,6 C 82 % 1018,5 hPa 0,0 l/m 9,4 km/h (2 Bft) SW 236 0 min 0,000 mm 0,0 UV-I 0 W/m 3,8 C 4,2 C 14,5 km/h (3 Bft) 97,37 %
15.05.2016 22:47 6,6 C 82 % 1018,5 hPa 0,0 l/m 9,3 km/h (2 Bft) W-SW 237 0 min 0,000 mm 0,0 UV-I 0 W/m 3,8 C 4,3 C 11,3 km/h (2 Bft) 92,31 %
15.05.2016 22:48 6,6 C 82 % 1018,5 hPa 0,0 l/m 8,3 km/h (2 Bft) SW 225 0 min 0,000 mm 0,0 UV-I 0 W/m 3,8 C 5,1 C 11,3 km/h (2 Bft) 100,00 %
15.05.2016 22:49 6,6 C 82 % 1018,6 hPa 0,0 l/m 9,3 km/h (2 Bft) SW 221 0 min 0,000 mm 0,0 UV-I 0 W/m 3,8 C 4,3 C 11,3 km/h (2 Bft) 95,65 %
15.05.2016 22:50 6,6 C 82 % 1018,5 hPa 0,0 l/m 8,6 km/h (2 Bft) SW 215 0 min 0,000 mm 0,0 UV-I 0 W/m 3,8 C 4,8 C 12,9 km/h (3 Bft) 100,00 %
15.05.2016 22:51 6,6 C 82 % 1018,5 hPa 0,0 l/m 9,9 km/h (2 Bft) SW 221 0 min 0,000 mm 0,0 UV-I 0 W/m 3,8 C 3,9 C 12,9 km/h (3 Bft) 100,00 %
15.05.2016 22:52 6,6 C 82 % 1018,5 hPa 0,0 l/m 8,2 km/h (2 Bft) SW 234 0 min 0,000 mm 0,0 UV-I 0 W/m 3,8 C 5,1 C 11,3 km/h (2 Bft) 100,00 %
15.05.2016 22:53 6,6 C 82 % 1018,5 hPa 0,0 l/m 8,0 km/h (2 Bft) SW 231 0 min 0,000 mm 0,0 UV-I 0 W/m 3,8 C 5,3 C 11,3 km/h (2 Bft) 100,00 %
15.05.2016 22:54 6,6 C 82 % 1018,5 hPa 0,0 l/m 8,5 km/h (2 Bft) SW 231 0 min 0,000 mm 0,0 UV-I 0 W/m 3,8 C 4,9 C 11,3 km/h (2 Bft) 95,83 %
15.05.2016 22:55 6,6 C 82 % 1018,6 hPa 0,0 l/m 9,2 km/h (2 Bft) SW 228 0 min 0,000 mm 0,0 UV-I 0 W/m 3,8 C 4,4 C 11,3 km/h (2 Bft) 100,00 %
15.05.2016 22:56 6,6 C 82 % 1018,5 hPa 0,0 l/m 8,8 km/h (2 Bft) SW 236 0 min 0,000 mm 0,0 UV-I 0 W/m 3,8 C 4,7 C 11,3 km/h (2 Bft) 100,00 %
15.05.2016 22:57 6,6 C 83 % 1018,6 hPa 0,0 l/m 8,2 km/h (2 Bft) S-SW 212 0 min 0,000 mm 0,0 UV-I 0 W/m 3,9 C 5,1 C 9,7 km/h (2 Bft) 96,30 %
15.05.2016 22:58 6,6 C 83 % 1018,6 hPa 0,0 l/m 9,6 km/h (2 Bft) SW 216 0 min 0,000 mm 0,0 UV-I 0 W/m 3,9 C 4,1 C 12,9 km/h (3 Bft) 100,00 %
15.05.2016 22:59 6,5 C 83 % 1018,6 hPa 0,0 l/m 11,8 km/h (2 Bft) SW 223 0 min 0,000 mm 0,0 UV-I 0 W/m 3,8 C 2,6 C 16,1 km/h (3 Bft) 100,00 %
15.05.2016 23:00 6,5 C 83 % 1018,6 hPa 0,0 l/m 9,1 km/h (2 Bft) SW 229 0 min 0,000 mm 0,0 UV-I 0 W/m 3,8 C 4,4 C 11,3 km/h (2 Bft) 100,00 %
15.05.2016 23:02 6,6 C 83 % 1018,6 hPa 0,0 l/m 9,9 km/h (2 Bft) SW 219 0 min 0,025 mm 0,0 UV-I 0 W/m 3,9 C 3,9 C 12,9 km/h (3 Bft) 97,73 %
15.05.2016 23:03 6,6 C 83 % 1018,6 hPa 0,0 l/m 8,6 km/h (2 Bft) SW 223 0 min 0,000 mm 0,0 UV-I 0 W/m 3,9 C 4,8 C 11,3 km/h (2 Bft) 95,83 %
15.05.2016 23:04 6,6 C 83 % 1018,6 hPa 0,0 l/m 8,8 km/h (2 Bft) SW 217 0 min 0,000 mm 0,0 UV-I 0 W/m 3,9 C 4,7 C 11,3 km/h (2 Bft) 100,00 %
15.05.2016 23:05 6,6 C 83 % 1018,6 hPa 0,0 l/m 8,9 km/h (2 Bft) SW 216 0 min 0,000 mm 0,0 UV-I 0 W/m 3,9 C 4,6 C 12,9 km/h (3 Bft) 100,00 %
15.05.2016 23:06 6,6 C 83 % 1018,6 hPa 0,0 l/m 9,2 km/h (2 Bft) W-SW 237 0 min 0,000 mm 0,0 UV-I 0 W/m 3,9 C 4,4 C 12,9 km/h (3 Bft) 100,00 %
15.05.2016 23:07 6,6 C 83 % 1018,7 hPa 0,0 l/m 8,9 km/h (2 Bft) S-SW 209 0 min 0,000 mm 0,0 UV-I 0 W/m 3,9 C 4,6 C 11,3 km/h (2 Bft) 100,00 %
15.05.2016 23:08 6,6 C 83 % 1018,7 hPa 0,0 l/m 9,3 km/h (2 Bft) SW 235 0 min 0,000 mm 0,0 UV-I 0 W/m 3,9 C 4,3 C 12,9 km/h (3 Bft) 100,00 %
15.05.2016 23:09 6,6 C 83 % 1018,7 hPa 0,0 l/m 7,0 km/h (2 Bft) SW 220 0 min 0,000 mm 0,0 UV-I 0 W/m 3,9 C 6,1 C 11,3 km/h (2 Bft) 100,00 %
15.05.2016 23:10 6,6 C 83 % 1018,7 hPa 0,0 l/m 9,5 km/h (2 Bft) SW 219 0 min 0,000 mm 0,0 UV-I 0 W/m 3,9 C 4,2 C 12,9 km/h (3 Bft) 100,00 %
15.05.2016 23:11 6,6 C 83 % 1018,7 hPa 0,0 l/m 7,9 km/h (2 Bft) S-SW 211 0 min 0,000 mm 0,0 UV-I 0 W/m 3,9 C 5,4 C 11,3 km/h (2 Bft) 100,00 %
15.05.2016 23:12 6,6 C 83 % 1018,7 hPa 0,0 l/m 9,7 km/h (2 Bft) W-SW 242 0 min 0,000 mm 0,0 UV-I 0 W/m 3,9 C 4,0 C 12,9 km/h (3 Bft) 100,00 %
15.05.2016 23:13 6,6 C 83 % 1018,7 hPa 0,0 l/m 9,5 km/h (2 Bft) SW 217 0 min 0,000 mm 0,0 UV-I 0 W/m 3,9 C 4,2 C 12,9 km/h (3 Bft) 100,00 %
15.05.2016 23:14 6,6 C 83 % 1018,7 hPa 0,0 l/m 8,7 km/h (2 Bft) SW 220 0 min 0,000 mm 0,0 UV-I 0 W/m 3,9 C 4,8 C 14,5 km/h (3 Bft) 100,00 %
15.05.2016 23:15 6,6 C 83 % 1018,7 hPa 0,0 l/m 8,6 km/h (2 Bft) SW 229 0 min 0,000 mm 0,0 UV-I 0 W/m 3,9 C 4,8 C 12,9 km/h (3 Bft) 100,00 %
15.05.2016 23:16 6,6 C 83 % 1018,7 hPa 0,0 l/m 10,5 km/h (2 Bft) W-SW 246 0 min 0,000 mm 0,0 UV-I 0 W/m 3,9 C 3,5 C 16,1 km/h (3 Bft) 100,00 %
15.05.2016 23:17 6,7 C 83 % 1018,7 hPa 0,0 l/m 10,9 km/h (2 Bft) W-SW 238 0 min 0,000 mm 0,0 UV-I 0 W/m 4,0 C 3,4 C 16,1 km/h (3 Bft) 100,00 %
15.05.2016 23:18 6,7 C 83 % 1018,7 hPa 0,0 l/m 8,8 km/h (2 Bft) SW 236 0 min 0,000 mm 0,0 UV-I 0 W/m 4,0 C 4,8 C 12,9 km/h (3 Bft) 100,00 %
15.05.2016 23:19 6,7 C 83 % 1018,7 hPa 0,0 l/m 9,7 km/h (2 Bft) SW 227 0 min 0,000 mm 0,0 UV-I 0 W/m 4,0 C 4,2 C 12,9 km/h (3 Bft) 96,15 %
15.05.2016 23:20 6,7 C 83 % 1018,7 hPa 0,0 l/m 8,1 km/h (2 Bft) W-SW 240 0 min 0,000 mm 0,0 UV-I 0 W/m 4,0 C 5,3 C 14,5 km/h (3 Bft) 100,00 %
15.05.2016 23:21 6,7 C 82 % 1018,7 hPa 0,0 l/m 9,7 km/h (2 Bft) S-SW 212 0 min 0,000 mm 0,0 UV-I 0 W/m 3,8 C 4,2 C 14,5 km/h (3 Bft) 100,00 %
15.05.2016 23:22 6,8 C 82 % 1018,7 hPa 0,0 l/m 8,1 km/h (2 Bft) W-SW 237 0 min 0,000 mm 0,0 UV-I 0 W/m 3,9 C 5,4 C 9,7 km/h (2 Bft) 100,00 %
15.05.2016 23:23 6,8 C 82 % 1018,7 hPa 0,0 l/m 6,9 km/h (2 Bft) SW 219 0 min 0,000 mm 0,0 UV-I 0 W/m 3,9 C 6,4 C 9,7 km/h (2 Bft) 100,00 %
15.05.2016 23:24 6,8 C 82 % 1018,7 hPa 0,0 l/m 7,6 km/h (2 Bft) SW 221 0 min 0,000 mm 0,0 UV-I 0 W/m 3,9 C 5,8 C 9,7 km/h (2 Bft) 96,30 %
15.05.2016 23:25 6,8 C 82 % 1018,7 hPa 0,0 l/m 7,6 km/h (2 Bft) W-SW 248 0 min 0,000 mm 0,0 UV-I 0 W/m 3,9 C 5,8 C 9,7 km/h (2 Bft) 100,00 %
15.05.2016 23:26 6,8 C 82 % 1018,7 hPa 0,0 l/m 7,6 km/h (2 Bft) W-SW 240 0 min 0,000 mm 0,0 UV-I 0 W/m 3,9 C 5,8 C 9,7 km/h (2 Bft) 100,00 %
15.05.2016 23:27 6,8 C 82 % 1018,7 hPa 0,0 l/m 7,1 km/h (2 Bft) SW 236 0 min 0,000 mm 0,0 UV-I 0 W/m 3,9 C 6,2 C 9,7 km/h (2 Bft) 100,00 %
15.05.2016 23:28 6,9 C 82 % 1018,8 hPa 0,0 l/m 6,7 km/h (2 Bft) W-SW 249 0 min 0,000 mm 0,0 UV-I 0 W/m 4,0 C 6,7 C 8,0 km/h (2 Bft) 100,00 %
15.05.2016 23:29 6,9 C 81 % 1018,8 hPa 0,0 l/m 7,3 km/h (2 Bft) W-SW 255 0 min 0,000 mm 0,0 UV-I 0 W/m 3,9 C 6,2 C 11,3 km/h (2 Bft) 100,00 %
15.05.2016 23:30 6,9 C 81 % 1018,7 hPa 0,0 l/m 7,3 km/h (2 Bft) W-SW 253 0 min 0,000 mm 0,0 UV-I 0 W/m 3,9 C 6,2 C 11,3 km/h (2 Bft) 100,00 %
15.05.2016 23:31 6,9 C 81 % 1018,8 hPa 0,0 l/m 6,4 km/h (2 Bft) SW 228 0 min 0,000 mm 0,0 UV-I 0 W/m 3,9 C 6,9 C 8,0 km/h (2 Bft) 100,00 %
15.05.2016 23:32 6,9 C 81 % 1018,8 hPa 0,0 l/m 6,9 km/h (2 Bft) SW 217 0 min 0,000 mm 0,0 UV-I 0 W/m 3,9 C 6,5 C 9,7 km/h (2 Bft) 96,30 %
15.05.2016 23:33 6,9 C 81 % 1018,8 hPa 0,0 l/m 8,6 km/h (2 Bft) W-SW 249 0 min 0,000 mm 0,0 UV-I 0 W/m 3,9 C 5,1 C 11,3 km/h (2 Bft) 100,00 %
15.05.2016 23:34 6,9 C 82 % 1018,8 hPa 0,0 l/m 7,7 km/h (2 Bft) W-SW 238 0 min 0,000 mm 0,0 UV-I 0 W/m 4,0 C 5,8 C 9,7 km/h (2 Bft) 100,00 %
15.05.2016 23:35 6,9 C 81 % 1018,8 hPa 0,0 l/m 8,3 km/h (2 Bft) SW 234 0 min 0,000 mm 0,0 UV-I 0 W/m 3,9 C 5,4 C 11,3 km/h (2 Bft) 100,00 %
15.05.2016 23:36 6,9 C 82 % 1018,8 hPa 0,0 l/m 8,7 km/h (2 Bft) SW 233 0 min 0,000 mm 0,0 UV-I 0 W/m 4,0 C 5,1 C 11,3 km/h (2 Bft) 100,00 %
15.05.2016 23:37 6,9 C 82 % 1018,8 hPa 0,0 l/m 8,8 km/h (2 Bft) S-SW 207 0 min 0,000 mm 0,0 UV-I 0 W/m 4,0 C 5,0 C 11,3 km/h (2 Bft) 100,00 %
15.05.2016 23:38 6,9 C 82 % 1018,8 hPa 0,0 l/m 7,4 km/h (2 Bft) SW 219 0 min 0,000 mm 0,0 UV-I 0 W/m 4,0 C 6,1 C 11,3 km/h (2 Bft) 100,00 %
15.05.2016 23:39 6,9 C 82 % 1018,8 hPa 0,0 l/m 7,8 km/h (2 Bft) W-SW 246 0 min 0,000 mm 0,0 UV-I 0 W/m 4,0 C 5,8 C 11,3 km/h (2 Bft) 100,00 %
15.05.2016 23:40 6,9 C 82 % 1018,8 hPa 0,0 l/m 7,0 km/h (2 Bft) SW 218 0 min 0,000 mm 0,0 UV-I 0 W/m 4,0 C 6,4 C 11,3 km/h (2 Bft) 100,00 %
15.05.2016 23:41 6,9 C 82 % 1018,8 hPa 0,0 l/m 8,7 km/h (2 Bft) W-SW 242 0 min 0,000 mm 0,0 UV-I 0 W/m 4,0 C 5,1 C 12,9 km/h (3 Bft) 100,00 %
15.05.2016 23:42 6,9 C 82 % 1018,8 hPa 0,0 l/m 7,3 km/h (2 Bft) S-SW 213 0 min 0,000 mm 0,0 UV-I 0 W/m 4,0 C 6,2 C 12,9 km/h (3 Bft) 96,15 %
15.05.2016 23:43 6,9 C 81 % 1018,8 hPa 0,0 l/m 6,5 km/h (2 Bft) W-SW 237 0 min 0,000 mm 0,0 UV-I 0 W/m 3,9 C 6,8 C 8,0 km/h (2 Bft) 100,00 %
15.05.2016 23:44 6,9 C 81 % 1018,8 hPa 0,0 l/m 7,6 km/h (2 Bft) SW 214 0 min 0,000 mm 0,0 UV-I 0 W/m 3,9 C 5,9 C 9,7 km/h (2 Bft) 100,00 %
15.05.2016 23:45 6,9 C 81 % 1018,8 hPa 0,0 l/m 7,7 km/h (2 Bft) W-SW 241 0 min 0,000 mm 0,0 UV-I 0 W/m 3,9 C 5,8 C 11,3 km/h (2 Bft) 100,00 %
15.05.2016 23:46 6,9 C 82 % 1018,8 hPa 0,0 l/m 8,8 km/h (2 Bft) SW 225 0 min 0,000 mm 0,0 UV-I 0 W/m 4,0 C 5,0 C 11,3 km/h (2 Bft) 100,00 %
15.05.2016 23:47 6,9 C 81 % 1018,8 hPa 0,0 l/m 8,7 km/h (2 Bft) SW 215 0 min 0,000 mm 0,0 UV-I 0 W/m 3,9 C 5,1 C 12,9 km/h (3 Bft) 95,83 %
15.05.2016 23:48 6,9 C 82 % 1018,8 hPa 0,0 l/m 8,3 km/h (2 Bft) W-SW 248 0 min 0,000 mm 0,0 UV-I 0 W/m 4,0 C 5,4 C 11,3 km/h (2 Bft) 100,00 %
15.05.2016 23:49 6,9 C 82 % 1018,9 hPa 0,0 l/m 7,7 km/h (2 Bft) SW 229 0 min 0,000 mm 0,0 UV-I 0 W/m 4,0 C 5,8 C 12,9 km/h (3 Bft) 100,00 %
15.05.2016 23:50 6,9 C 82 % 1018,9 hPa 0,0 l/m 8,5 km/h (2 Bft) SW 231 0 min 0,000 mm 0,0 UV-I 0 W/m 4,0 C 5,2 C 11,3 km/h (2 Bft) 100,00 %
15.05.2016 23:51 6,9 C 82 % 1018,9 hPa 0,0 l/m 8,0 km/h (2 Bft) SW 225 0 min 0,000 mm 0,0 UV-I 0 W/m 4,0 C 5,6 C 11,3 km/h (2 Bft) 100,00 %
15.05.2016 23:52 6,8 C 82 % 1018,9 hPa 0,0 l/m 7,9 km/h (2 Bft) S-SW 197 0 min 0,000 mm 0,0 UV-I 0 W/m 3,9 C 5,6 C 11,3 km/h (2 Bft) 100,00 %
15.05.2016 23:53 6,8 C 82 % 1018,9 hPa 0,0 l/m 9,8 km/h (2 Bft) S-SW 207 0 min 0,000 mm 0,0 UV-I 0 W/m 3,9 C 4,2 C 12,9 km/h (3 Bft) 100,00 %
15.05.2016 23:54 6,8 C 82 % 1018,9 hPa 0,0 l/m 7,8 km/h (2 Bft) SW 225 0 min 0,000 mm 0,0 UV-I 0 W/m 3,9 C 5,6 C 12,9 km/h (3 Bft) 100,00 %
15.05.2016 23:55 6,8 C 82 % 1018,9 hPa 0,0 l/m 7,9 km/h (2 Bft) SW 220 0 min 0,000 mm 0,0 UV-I 0 W/m 3,9 C 5,6 C 12,9 km/h (3 Bft) 100,00 %
15.05.2016 23:56 6,8 C 82 % 1018,9 hPa 0,0 l/m 6,0 km/h (2 Bft) SW 223 0 min 0,000 mm 0,0 UV-I 0 W/m 3,9 C 6,8 C 11,3 km/h (2 Bft) 100,00 %
15.05.2016 23:57 6,8 C 82 % 1018,9 hPa 0,0 l/m 5,7 km/h (1 Bft) S-SW 208 0 min 0,000 mm 0,0 UV-I 0 W/m 3,9 C 6,8 C 11,3 km/h (2 Bft) 96,15 %
15.05.2016 23:58 6,8 C 82 % 1018,9 hPa 0,0 l/m 8,3 km/h (2 Bft) S-SW 196 0 min 0,000 mm 0,0 UV-I 0 W/m 3,9 C 5,3 C 11,3 km/h (2 Bft) 100,00 %
15.05.2016 23:59 6,8 C 82 % 1018,9 hPa 0,0 l/m 6,6 km/h (2 Bft) S 183 0 min 0,000 mm 0,0 UV-I 0 W/m 3,9 C 6,7 C 8,0 km/h (2 Bft) 100,00 %
_ Min-Zeit 22:28 18:17 00:00 - 15:51 - - - - - - 20:23 07:36 12:43 01:15
Minimum _ 6,5 C 51 % 1010,0 hPa - 2,3 km/h (1 Bft) - - - - - - 0,3 C -0,1 C 4,8 km/h (1 Bft) 83,33 %
_ Max-Zeit 14:38 00:02 23:49 10:31 11:11 - - 08:02 12:00 11:55 11:59 00:02 14:44 11:11 00:00
Maximum _ 11,8 C 88 % 1018,9 hPa 0,2 l/m 26,4 km/h
SW (4 Bft)
- - 2 min 0,330 mm 4,4 UV-I 1090 W/m 8,4 C 10,7 C 37,0 km/h
W-SW (5 Bft)
100,00 %
Durchschnitt _ 9,1 C 69 % 1015,1 hPa #0,2 l/m 11,7 km/h (2 Bft) W-SW - #4:46 h #2,870 mm 1,6 UV-I 283 W/m 3,6 C 5,9 C 17,4 km/h (3 Bft) 98,71 %